[[{"header":{"parameterUnit":"m.s-1","parameterCategory":1,"la1":31.0,"la2":29.5877,"lo1":-88.7671,"lo2":-86.6584,"dy":0.0162,"dx":0.0185,"nx":115,"ny":88,"refTime":"2024-04-23T00:00:00:Z","depth":0,"parameterNumber":2,"parameterNumberName":"U-component_of_WINDS"},"data":[0.0,0.0,0.0,0.0,0.0,0.0,0.0,0.0,0.0,0.0,0.0,0.0,0.0,0.0,0.0,0.0,0.0,0.0,0.0,0.0,0.0,0.0,0.0,0.0,0.0,0.0,0.0,0.0,0.0,0.0,0.0,0.0,0.0,0.0,0.0,0.0,0.0,0.0,0.0,0.0,0.0,0.0,0.0,0.0,0.0,0.0,0.0,0.0,0.0,0.0,0.0,0.0,0.0,0.0,0.0,0.0,0.0,0.0,0.0,0.0,0.0,0.0,0.0,0.0,0.0,0.0,0.0,0.0,0.0,0.0,0.0,0.0,0.0,0.0,0.0,0.0,0.0,0.0,0.0,0.0,0.0,0.0,0.0,0.0,0.0,0.0,0.0,0.0,0.0,0.0,0.0,0.0,0.0,0.0,0.0,0.0,0.0,0.0,0.0,0.0,0.0,0.0,0.0,0.0,0.0,0.0,0.0,0.0,0.0,0.0,0.0,0.0,0.0,0.0,0.0,0.0,0.0,0.0,0.0,0.0,0.0,0.0,0.0,0.0,0.0,0.0,0.0,0.0,0.0,0.0,0.0,0.0,0.0,0.0,0.0,0.0,0.0,0.0,0.0,0.0,0.0,0.0,0.0,0.0,0.0,0.0,0.0,0.0,0.0,0.0,0.0,0.0,0.0,0.0,0.0,0.0,0.0,0.0,0.0,0.0,0.0,0.0,0.0,0.0,0.0,0.0,0.0,0.0,0.0,0.0,0.0,0.0,0.0,0.0,0.0,0.0,0.0,0.0,0.0,0.0,0.0,0.0,0.0,0.0,0.0,0.0,0.0,0.0,0.0,0.0,0.0,0.0,0.0,0.0,0.0,0.0,0.0,0.0,0.0,0.0,0.0,0.0,0.0,0.0,0.0,0.0,0.0,0.0,0.0,0.0,0.0,0.0,0.0,0.0,0.0,0.0,0.0,0.0,0.0,0.0,0.0,0.0,0.0,0.0,0.0,0.0,0.0,0.0,0.0,0.0,0.0,0.0,0.0,0.0,0.0,0.0,0.0,0.0,0.0,0.0,0.0,0.0,0.0,0.0,0.0,0.0,0.0,0.0,0.0,0.0,0.0,0.0,0.0,0.0,0.0,0.0,0.0,0.0,0.0,0.0,0.0,0.0,0.0,0.0,0.0,0.0,0.0,0.0,0.0,0.0,0.0,0.0,0.0,0.0,0.0,0.0,0.0,0.0,0.0,0.0,0.0,0.0,0.0,0.0,0.0,0.0,0.0,0.0,0.0,0.0,0.0,0.0,0.0,0.0,0.0,0.0,0.0,0.0,0.0,0.0,0.0,0.0,0.0,0.0,0.0,0.0,0.0,0.0,0.0,0.0,0.0,0.0,0.0,0.0,0.0,0.0,0.0,0.0,0.0,0.0,0.0,0.0,0.0,0.0,0.0,0.0,0.0,0.0,0.0,0.0,0.0,0.0,0.0,0.0,0.0,0.0,0.0,0.0,0.0,0.0,0.0,0.0,0.0,0.0,0.0,0.0,0.0,0.0,0.0,0.0,0.0,0.0,0.0,0.0,0.0,0.0,0.0,0.0,0.0,0.0,0.0,0.0,0.0,0.0,0.0,0.0,0.0,0.0,0.0,0.0,0.0,0.0,0.0,0.0,0.0,0.0,0.0,0.0,0.0,0.0,0.0,0.0,0.0,0.0,0.0,0.0,0.0,0.0,0.0,0.0,0.0,0.0,0.0,0.0,0.0,0.0,0.0,0.0,0.0,0.0,0.0,0.0,0.0,0.0,0.0,0.0,0.0,0.0,0.0,0.0,0.0,0.0,0.0,0.0,0.0,0.0,0.0,0.0,0.0,0.0,0.0,0.0,0.0,0.0,0.0,0.0,0.0,0.0,0.0,0.0,0.0,0.0,0.0,0.0,0.0,0.0,0.0,0.0,0.0,0.0,0.0,0.0,0.0,0.0,0.0,0.0,0.0,0.0,0.0,0.0,0.0,0.0,0.0,0.0,0.0,0.0,0.0,0.0,0.0,0.0,0.0,0.0,0.0,0.0,0.0,0.0,0.0,0.0,0.0,0.0,0.0,0.0,0.0,0.0,0.0,0.0,0.0,0.0,0.0,0.0,0.0,0.0,0.0,0.0,0.0,0.0,0.0,0.0,0.0,0.0,0.0,0.0,0.0,0.0,0.0,0.0,0.0,0.0,0.0,0.0,0.0,0.0,0.0,0.0,0.0,0.0,0.0,0.0,0.0,0.0,0.0,0.0,0.0,0.0,0.0,0.0,0.0,0.0,0.0,0.0,0.0,0.0,0.0,0.0,0.0,0.0,0.0,0.0,0.0,0.0,0.0,0.0,0.0,0.0,0.0,0.0,0.0,0.0,0.0,0.0,0.0,0.0,0.0,0.0,0.0,0.0,0.0,0.0,0.0,0.0,0.0,0.0,0.0,0.0,0.0,0.0,0.0,0.0,0.0,0.0,0.0,0.0,0.0,0.0,0.0,0.0,0.0,0.0,0.0,0.0,0.0,0.0,0.0,0.0,0.0,0.0,0.0,0.0,0.0,0.0,0.0,0.0,0.0,0.0,0.0,0.0,0.0,0.0,0.0,0.0,0.0,0.0,0.0,0.0,0.0,0.0,0.0,0.0,0.0,0.0,0.0,0.0,0.0,0.0,0.0,0.0,0.0,0.0,0.0,0.0,0.0,0.0,0.0,0.0,0.0,0.0,0.0,0.0,0.0,0.0,0.0,0.0,0.0,0.0,0.0,0.0,0.0,0.0,0.0,0.0,0.0,0.0,0.0,0.0,0.0,0.0,0.0,0.0,0.0,0.0,0.0,0.0,0.0,0.0,0.0,0.0,0.0,0.0,0.0,0.0,0.0,0.0,0.0,0.0,0.0,0.0,0.0,0.0,0.0,0.0,0.0,0.0,0.0,0.0,0.0,0.0,0.0,0.0,0.0,0.0,0.0,0.0,0.0,0.0,0.0,0.0,0.0,0.0,0.0,0.0,0.0,0.0,0.0,0.0,0.0,0.0,0.0,0.0,0.0,0.0,0.0,0.0,0.0,0.0,0.0,0.0,0.0,0.0,0.0,0.0,0.0,0.0,0.0,0.0,0.0,0.0,0.0,0.0,0.0,0.0,0.0,0.0,0.0,0.0,0.0,0.0,0.0,0.0,0.0,0.0,0.0,0.0,0.0,0.0,0.0,0.0,0.0,0.0,0.0,0.0,0.0,0.0,0.0,0.0,0.0,0.0,0.0,0.0,0.0,0.0,0.0,0.0,0.0,0.0,0.0,0.0,0.0,0.0,0.0,0.0,0.0,0.0,0.0,0.0,0.0,0.0,0.0,0.0,0.0,0.0,0.0,0.0,0.0,0.0,0.0,0.0,0.0,0.0,0.0,0.0,0.0,0.0,0.0,0.0,0.0,0.0,0.0,0.0,0.0,0.0,0.0,0.0,0.0,0.0,0.0,0.0,0.0,0.0,0.0,0.0,0.0,0.0,0.0,0.0,0.0,0.0,0.0,0.0,0.0,0.0,0.0,0.0,0.0,0.0,0.0,0.0,0.0,0.0,0.0,0.0,0.0,0.0,0.0,0.0,0.0,0.0,0.0,0.0,0.0,0.0,0.0,0.0,0.0,0.0,0.0,0.0,0.0,0.0,0.0,0.0,0.0,0.0,0.0,0.0,0.0,0.0,0.0,0.0,0.0,0.0,0.0,0.0,0.0,0.0,0.0,0.0,0.0,0.0,0.0,0.0,0.0,0.0,0.0,0.0,0.0,0.0,0.0,0.0,0.0,0.0,0.0,0.0,0.0,0.0,0.0,0.0,0.0,0.0,0.0,0.0,0.0,0.0,0.0,0.0,0.0,0.0,0.0,0.0,0.0,0.0,0.0,0.0,0.0,0.0,0.0,0.0,0.0,0.0,0.0,0.0,0.0,0.0,0.0,0.0,0.0,0.0,0.0,0.0,0.0,0.0,0.0,0.0,0.0,0.0,0.0,0.0,0.0,0.0,0.0,0.0,0.0,0.0,0.0,0.0,0.0,0.0,0.0,0.0,0.0,0.0,0.0,0.0,0.0,0.0,0.0,0.0,0.0,0.0,0.0,0.0,0.0,0.0,0.0,0.0,0.0,0.0,0.0,0.0,0.0,0.0,0.0,0.0,0.0,0.0,0.0,0.0,0.0,0.0,0.0,0.0,0.0,0.0,0.0,0.0,0.0,0.0,0.0,0.0,0.0,0.0,0.0,0.0,0.0,0.0,0.0,0.0,-0.3649,0.0,0.0,0.0,0.0,0.0,0.0,0.0,0.0,0.0,0.0,0.0,0.0,0.0,0.0,0.0,0.0,0.0,0.0,0.0,0.0,0.0,0.0,0.0,0.0,0.0,0.0,0.0,0.0,0.0,0.0,0.0,0.0,0.0,0.0,0.0,0.0,0.0,0.0,0.0,0.0,0.0,0.0,0.0,0.0,0.0,0.0,0.0,0.0,0.0,0.0,0.0,0.0,0.0,0.0,0.0,0.0,0.0,0.0,0.0,0.0,0.0,0.0,0.0,0.0,0.0,0.0,0.0,0.0,0.0,0.0,0.0,0.0,0.0,0.0,0.0,0.0,0.0,0.0,0.0,0.0,0.0,0.0,0.0,0.0,0.0,0.0,0.0,0.0,0.0,0.0,0.0,0.0,0.0,0.0,0.0,0.0,0.0,0.0,0.0,0.0,0.0,0.0,0.0,0.0,0.0,0.0,0.0,0.0,0.0,0.0,-0.3476,-0.3451,-0.3804,-0.3806,-0.3443,0.0,0.0,0.0,0.0,0.0,0.0,0.0,0.0,0.0,0.0,0.0,0.0,0.0,0.0,0.0,0.0,0.0,0.0,0.0,0.0,0.0,0.0,0.0,0.0,0.0,0.0,0.0,0.0,0.0,0.0,0.0,0.0,0.0,0.0,0.0,0.0,0.0,0.0,0.0,0.0,0.0,0.0,0.0,0.0,0.0,0.0,0.0,0.0,0.0,0.0,0.0,0.0,0.0,0.0,0.0,0.0,0.0,0.0,0.0,0.0,0.0,0.0,0.0,0.0,0.0,0.0,0.0,0.0,0.0,0.0,0.0,0.0,0.0,0.0,0.0,0.0,0.0,0.0,0.0,0.0,0.0,0.0,0.0,0.0,0.0,0.0,0.0,0.0,0.0,0.0,0.0,0.0,0.0,0.0,0.0,0.0,0.0,0.0,0.0,0.0,0.0,0.0,0.0,0.0,0.0,0.0,0.0,0.0,0.0,0.0,0.0,0.0,-0.3804,-0.3845,-0.3757,0.0,0.0,0.0,0.0,0.0,0.0,0.0,0.0,0.0,0.0,0.0,0.0,0.0,0.0,0.0,0.0,0.0,0.0,0.0,0.0,0.0,0.0,0.0,0.0,0.0,0.0,0.0,0.0,0.0,0.0,0.0,0.0,0.0,0.0,0.0,0.0,0.0,0.0,0.0,0.0,0.0,0.0,0.0,0.0,0.0,0.0,0.0,0.0,0.0,0.0,0.0,0.0,0.0,0.0,0.0,0.0,0.0,0.0,0.0,0.0,0.0,0.0,0.0,0.0,0.0,0.0,0.0,0.0,0.0,0.0,0.0,0.0,0.0,0.0,0.0,0.0,0.0,0.0,0.0,0.0,0.0,0.0,0.0,0.0,0.0,0.0,0.0,0.0,0.0,0.0,0.0,0.0,0.0,0.0,0.0,0.0,0.0,0.0,0.0,0.0,0.0,0.0,0.0,0.0,0.0,0.0,0.0,0.0,0.0,0.0,-0.357,-0.4117,-0.4197,0.0,-0.4983,0.0,0.0,0.0,0.0,0.0,0.0,0.0,0.0,0.0,0.0,0.0,0.0,0.0,0.0,0.0,0.0,0.0,0.0,0.0,0.0,0.0,0.0,0.0,0.0,0.0,0.0,0.0,0.0,0.0,0.0,0.0,0.0,0.0,0.0,0.0,0.0,0.0,0.0,0.0,0.0,0.0,0.0,0.0,0.0,0.0,0.0,0.0,0.0,0.0,0.0,0.0,0.0,0.0,0.0,0.0,0.0,0.0,0.0,0.0,0.0,0.0,0.0,0.0,0.0,0.0,0.0,0.0,0.0,0.0,0.0,0.0,0.0,0.0,0.0,0.0,0.0,0.0,0.0,0.0,0.0,0.0,0.0,0.0,0.0,0.0,0.0,0.0,0.0,0.0,0.0,0.0,0.0,0.0,0.0,0.0,0.0,0.0,0.0,0.0,0.0,0.0,0.0,0.0,0.0,0.0,0.0,0.0,0.0,0.0,0.0,-0.4311,-0.4665,-0.4366,-0.4235,0.0,0.0,0.0,0.0,0.0,0.0,0.0,0.0,0.0,0.0,0.0,0.0,0.0,0.0,0.0,0.0,0.0,0.0,0.0,0.0,0.0,0.0,0.0,0.0,0.0,0.0,0.0,0.0,0.0,0.0,0.0,0.0,0.0,0.0,0.0,0.0,0.0,0.0,0.0,0.0,0.0,0.0,0.0,0.0,0.0,0.0,0.0,0.0,0.0,0.0,0.0,0.0,0.0,0.0,0.0,0.0,0.0,0.0,0.0,0.0,0.0,0.0,0.0,0.0,0.0,0.0,0.0,0.0,0.0,0.0,0.0,0.0,0.0,0.0,0.0,0.0,0.0,0.0,0.0,0.0,0.0,0.0,0.0,0.0,0.0,0.0,0.0,0.0,0.0,0.0,0.0,0.0,0.0,0.0,0.0,0.0,0.0,0.0,0.0,0.0,0.0,0.0,0.0,0.0,0.0,0.0,0.0,0.0,0.0,0.0,-0.5042,-0.4971,-0.5135,-0.4712,-0.435,-0.4086,0.0,0.0,0.0,0.0,0.0,0.0,0.0,0.0,0.0,0.0,0.0,0.0,0.0,0.0,0.0,0.0,0.0,0.0,0.0,0.0,0.0,0.0,0.0,0.0,0.0,0.0,0.0,0.0,0.0,0.0,0.0,0.0,0.0,0.0,0.0,0.0,0.0,0.0,0.0,0.0,0.0,0.0,0.0,0.0,0.0,0.0,0.0,0.0,0.0,0.0,0.0,0.0,0.0,0.0,0.0,0.0,0.0,0.0,0.0,0.0,0.0,0.0,0.0,0.0,0.0,0.0,0.0,0.0,0.0,0.0,0.0,0.0,0.0,0.0,0.0,0.0,0.0,0.0,0.0,0.0,0.0,0.0,0.0,0.0,0.0,0.0,0.0,0.0,0.0,0.0,0.0,0.0,0.0,0.0,0.0,0.0,0.0,0.0,0.0,0.0,0.0,0.0,0.0,0.0,0.0,0.0,0.0,0.0,-0.582,-0.5571,-0.5449,-0.5587,-0.5474,-0.5227,0.0,0.0,0.0,0.0,0.0,0.0,0.0,0.0,0.0,0.0,0.0,0.0,0.0,0.0,0.0,0.0,0.0,0.0,0.0,0.0,0.0,0.0,0.0,0.0,0.0,0.0,0.0,0.0,0.0,0.0,0.0,0.0,0.0,0.0,0.0,0.0,0.0,0.0,0.0,0.0,0.0,0.0,0.0,0.0,0.0,0.0,0.0,0.0,0.0,0.0,0.0,0.0,0.0,0.0,0.0,0.0,0.0,0.0,0.0,0.0,0.0,0.0,0.0,0.0,0.0,0.0,0.0,0.0,0.0,0.0,0.0,0.0,0.0,0.0,0.0,0.0,0.0,0.0,0.0,0.0,0.0,0.0,0.0,0.0,0.0,0.0,0.0,0.0,0.0,0.0,0.0,0.0,0.0,0.0,0.0,0.0,0.0,0.0,0.0,0.0,0.0,0.0,0.0,0.0,0.0,0.0,0.0,0.0,0.0,-0.5883,-0.662,-0.687,-0.6624,-0.6067,-0.5703,0.0,0.0,0.0,0.0,0.0,0.0,0.0,0.0,0.0,0.0,0.0,0.0,0.0,0.0,0.0,0.0,0.0,0.0,0.0,0.0,0.0,0.0,0.0,0.0,0.0,0.0,0.0,0.0,0.0,0.0,0.0,0.0,0.0,0.0,0.0,0.0,0.0,0.0,0.0,0.0,0.0,0.0,0.0,0.0,0.0,0.0,0.0,0.0,0.0,0.0,0.0,0.0,0.0,0.0,0.0,0.0,0.0,0.0,0.0,0.0,0.0,0.0,0.0,0.0,0.0,0.0,0.0,0.0,0.0,0.0,0.0,0.0,0.0,0.0,0.0,0.0,0.0,0.0,0.0,0.0,0.0,0.0,0.0,0.0,0.0,0.0,0.0,0.0,0.0,0.0,0.0,0.0,0.0,0.0,0.0,0.0,0.0,0.0,0.0,0.0,0.0,0.0,0.0,0.0,0.0,0.0,0.0,0.0,0.0,-0.6306,0.0,-0.784,-0.729,-0.6821,-0.646,0.0,0.0,0.0,0.0,0.0,0.0,0.0,0.0,0.0,0.0,0.0,0.0,0.0,0.0,0.0,0.0,0.0,0.0,0.0,0.0,0.0,0.0,0.0,0.0,0.0,0.0,0.0,0.0,0.0,0.0,0.0,0.0,0.0,0.0,0.0,0.0,0.0,0.0,0.0,0.0,0.0,0.0,0.0,0.0,0.0,0.0,0.0,0.0,0.0,0.0,0.0,0.0,0.0,0.0,0.0,0.0,0.0,0.0,0.0,0.0,0.0,0.0,0.0,0.0,0.0,0.0,0.0,0.0,0.0,0.0,0.0,0.0,0.0,0.0,0.0,0.0,0.0,0.0,0.0,0.0,0.0,0.0,0.0,0.0,0.0,0.0,0.0,0.0,0.0,0.0,0.0,0.0,0.0,0.0,0.0,0.0,0.0,0.0,0.0,0.0,0.0,0.0,0.0,0.0,0.0,0.0,0.0,0.0,-0.6658,-0.709,-0.8007,-0.8203,-0.7486,-0.7758,-0.7433,0.0,0.0,0.0,0.0,0.0,0.0,0.0,0.0,0.0,0.0,0.0,0.0,0.0,0.0,0.0,0.0,0.0,0.0,0.0,0.0,0.0,0.0,0.0,0.0,0.0,0.0,0.0,0.0,0.0,0.0,0.0,0.0,0.0,0.0,0.0,0.0,0.0,0.0,0.0,0.0,0.0,0.0,0.0,0.0,0.0,0.0,0.0,0.0,0.0,0.0,0.0,0.0,0.0,0.0,0.0,0.0,0.0,0.0,0.0,0.0,0.0,0.0,0.0,0.0,0.0,0.0,0.0,0.0,0.0,0.0,0.0,0.0,0.0,0.0,0.0,0.0,0.0,0.0,0.0,0.0,0.0,0.0,0.0,0.0,0.0,0.0,0.0,0.0,0.0,0.0,0.0,0.0,0.0,0.0,0.0,0.0,0.0,0.0,0.0,0.0,0.0,0.0,0.0,0.0,0.0,0.0,0.0,0.0,0.0,-0.6456,-0.7966,-0.8937,-0.9197,-0.8118,-0.7747,0.0,0.0,0.0,0.0,0.0,0.0,0.0,0.0,0.0,0.0,0.0,0.0,0.0,0.0,0.0,0.0,0.0,0.0,0.0,0.0,0.0,0.0,0.0,0.0,0.0,0.0,0.0,0.0,0.0,0.0,0.0,0.0,0.0,0.0,0.0,0.0,0.0,0.0,0.0,0.0,0.0,0.0,0.0,0.0,0.0,0.0,0.0,0.0,0.0,0.0,0.0,0.0,0.0,0.0,0.0,0.0,0.0,0.0,0.0,0.0,0.0,0.0,0.0,0.0,0.0,0.0,0.0,0.0,0.0,0.0,0.0,0.0,0.0,0.0,0.0,0.0,0.0,0.0,0.0,0.0,0.0,0.0,0.0,0.0,0.0,0.0,0.0,0.0,0.0,0.0,0.0,0.0,0.0,0.0,0.0,0.0,0.0,0.0,0.0,0.0,0.0,0.0,0.0,0.0,0.0,0.0,0.0,0.0,0.0,-0.7779,-0.8838,-0.9807,-1.0578,-0.9106,-0.8584,-0.9122,0.0,0.0,0.0,0.0,0.0,0.0,0.0,0.0,0.0,0.0,0.0,0.0,0.0,0.0,0.0,0.0,0.0,0.0,0.0,0.0,0.0,0.0,0.0,0.0,0.0,0.0,0.0,0.0,0.0,0.0,0.0,0.0,0.0,0.0,0.0,0.0,0.0,0.0,0.0,0.0,0.0,0.0,0.0,0.0,0.0,0.0,0.0,0.0,0.0,0.0,0.0,0.0,0.0,0.0,0.0,0.0,0.0,0.0,0.0,0.0,0.0,0.0,0.0,0.0,0.0,0.0,0.0,0.0,0.0,0.0,0.0,0.0,0.0,0.0,0.0,0.0,0.0,0.0,0.0,0.0,0.0,0.0,0.0,0.0,0.0,0.0,0.0,0.0,0.0,0.0,0.0,0.0,0.0,0.0,0.0,0.0,0.0,0.0,0.0,0.0,0.0,0.0,0.0,0.0,0.0,0.0,0.0,0.0,-1.0611,-1.0621,-1.0943,-1.1541,-1.0573,-0.9854,0.0,0.0,0.0,0.0,0.0,0.0,0.0,0.0,0.0,0.0,0.0,0.0,0.0,0.0,0.0,0.0,0.0,0.0,0.0,0.0,0.0,0.0,0.0,0.0,0.0,0.0,0.0,0.0,0.0,0.0,0.0,0.0,0.0,0.0,0.0,0.0,0.0,0.0,0.0,0.0,0.0,0.0,0.0,0.0,0.0,0.0,0.0,0.0,0.0,0.0,0.0,0.0,0.0,0.0,0.0,0.0,0.0,0.0,0.0,0.0,0.0,0.0,0.0,0.0,0.0,0.0,0.0,0.0,0.0,0.0,0.0,0.0,0.0,0.0,0.0,0.0,0.0,0.0,0.0,0.0,0.0,0.0,0.0,0.0,0.0,0.0,0.0,0.0,0.0,0.0,0.0,0.0,0.0,0.0,0.0,0.0,0.0,0.0,0.0,0.0,0.0,0.0,0.0,0.0,0.0,0.0,0.0,0.0,0.0,-1.2012,-1.3659,-1.4171,-1.3474,-1.1794,-1.0561,0.0,0.0,0.0,0.0,0.0,0.0,0.0,0.0,0.0,0.0,0.0,0.0,0.0,0.0,0.0,0.0,0.0,0.0,0.0,0.0,0.0,0.0,0.0,0.0,0.0,0.0,0.0,0.0,0.0,0.0,0.0,0.0,0.0,0.0,0.0,0.0,0.0,0.0,0.0,0.0,0.0,0.0,0.0,0.0,0.0,0.0,0.0,0.0,0.0,0.0,0.0,0.0,0.0,0.0,0.0,0.0,0.0,0.0,0.0,0.0,0.0,0.0,0.0,0.0,0.0,0.0,0.0,0.0,0.0,0.0,0.0,0.0,0.0,0.0,0.0,0.0,0.0,0.0,0.0,0.0,0.0,0.0,0.0,0.0,0.0,0.0,0.0,0.0,0.0,0.0,0.0,0.0,0.0,0.0,0.0,0.0,0.0,0.0,0.0,0.0,0.0,0.0,0.0,0.0,0.0,0.0,0.0,0.0,-1.187,-1.4036,-1.6383,-1.724,-1.6501,-1.4559,-1.2579,0.0,0.0,0.0,0.0,0.0,0.0,0.0,0.0,0.0,0.0,0.0,0.0,0.0,0.0,0.0,0.0,0.0,0.0,0.0,0.0,0.0,0.0,0.0,0.0,0.0,0.0,0.0,0.0,0.0,0.0,0.0,0.0,0.0,0.0,0.0,0.0,0.0,0.0,0.0,0.0,0.0,0.0,0.0,0.0,0.0,0.0,0.0,0.0,0.0,0.0,0.0,0.0,0.0,0.0,0.0,0.0,0.0,0.0,0.0,0.0,0.0,0.0,0.0,0.0,0.0,0.0,0.0,0.0,0.0,0.0,0.0,0.0,0.0,0.0,0.0,0.0,0.0,0.0,0.0,0.0,0.0,0.0,0.0,0.0,0.0,0.0,0.0,0.0,0.0,0.0,0.0,0.0,0.0,0.0,0.0,0.0,0.0,0.0,0.0,0.0,0.0,0.0,0.0,0.0,0.0,0.0,0.0,0.0,-1.3438,-1.6231,-1.8731,-1.9992,-1.9914,-1.796,-1.5198,0.0,0.0,0.0,0.0,0.0,0.0,0.0,0.0,0.0,0.0,0.0,0.0,0.0,0.0,0.0,0.0,0.0,0.0,0.0,0.0,0.0,0.0,0.0,0.0,0.0,0.0,0.0,0.0,0.0,0.0,0.0,0.0,0.0,0.0,0.0,0.0,0.0,0.0,0.0,0.0,0.0,0.0,0.0,0.0,0.0,0.0,0.0,0.0,0.0,0.0,0.0,0.0,0.0,0.0,0.0,0.0,0.0,0.0,0.0,0.0,0.0,0.0,0.0,0.0,0.0,0.0,0.0,0.0,0.0,0.0,0.0,0.0,0.0,0.0,0.0,0.0,0.0,0.0,0.0,0.0,0.0,0.0,0.0,0.0,0.0,0.0,0.0,0.0,0.0,0.0,0.0,0.0,0.0,0.0,0.0,0.0,0.0,0.0,0.0,0.0,0.0,0.0,0.0,0.0,0.0,0.0,0.0,0.0,-1.4518,-1.7457,-2.0046,-2.1658,-2.2243,-1.9577,-1.6441,0.0,0.0,0.0,0.0,0.0,0.0,0.0,0.0,0.0,0.0,0.0,0.0,0.0,0.0,0.0,0.0,0.0,0.0,0.0,0.0,0.0,0.0,0.0,0.0,0.0,0.0,0.0,0.0,0.0,0.0,0.0,0.0,0.0,0.0,0.0,0.0,0.0,0.0,0.0,0.0,0.0,0.0,0.0,0.0,0.0,0.0,0.0,0.0,-0.764,0.0,0.0,0.0,0.0,0.0,0.0,0.0,0.0,0.0,0.0,0.0,0.0,0.0,0.0,0.0,0.0,0.0,0.0,0.0,0.0,0.0,0.0,0.0,0.0,0.0,0.0,0.0,0.0,0.0,0.0,0.0,0.0,0.0,0.0,0.0,0.0,0.0,0.0,0.0,0.0,0.0,0.0,0.0,0.0,0.0,0.0,0.0,0.0,0.0,0.0,0.0,0.0,0.0,0.0,0.0,0.0,0.0,0.0,0.0,-1.612,-1.9008,-2.1271,-2.2809,-2.3513,-2.1902,-1.909,0.0,0.0,0.0,0.0,0.0,0.0,0.0,0.0,0.0,0.0,0.0,0.0,0.0,0.0,0.0,0.0,0.0,0.0,0.0,0.0,0.0,0.0,0.0,0.0,0.0,0.0,0.0,0.0,0.0,0.0,0.0,0.0,0.0,0.0,0.0,0.0,0.0,0.0,0.0,0.0,0.0,0.0,0.0,0.0,0.0,0.0,0.0,0.0,0.0,0.0,0.0,0.0,0.0,0.0,0.0,0.0,0.0,0.0,0.0,0.0,0.0,0.0,0.0,0.0,0.0,0.0,0.0,0.0,0.0,0.0,0.0,0.0,0.0,0.0,0.0,0.0,0.0,0.0,0.0,0.0,0.0,0.0,0.0,0.0,0.0,0.0,0.0,0.0,0.0,0.0,0.0,0.0,0.0,0.0,0.0,0.0,0.0,0.0,0.0,0.0,0.0,0.0,0.0,0.0,0.0,0.0,0.0,-1.4987,-1.7556,-2.0439,-2.2262,-2.3605,-2.4471,-2.4056,-2.1795,-1.7585,0.0,0.0,0.0,0.0,0.0,0.0,0.0,0.0,0.0,0.0,0.0,0.0,0.0,0.0,0.0,0.0,0.0,0.0,0.0,0.0,0.0,0.0,0.0,0.0,0.0,0.0,0.0,0.0,0.0,0.0,0.0,0.0,0.0,0.0,0.0,0.0,0.0,0.0,-0.7527,-0.8538,0.0,0.0,0.0,0.0,0.0,0.0,0.0,0.0,-0.9215,0.0,0.0,0.0,0.0,0.0,0.0,0.0,0.0,0.0,0.0,0.0,0.0,0.0,0.0,0.0,0.0,0.0,0.0,0.0,0.0,0.0,0.0,0.0,0.0,0.0,0.0,0.0,0.0,0.0,0.0,0.0,0.0,0.0,0.0,0.0,0.0,0.0,0.0,0.0,0.0,0.0,0.0,0.0,0.0,0.0,0.0,0.0,0.0,0.0,0.0,0.0,0.0,0.0,0.0,0.0,0.0,-1.3172,-1.4919,-1.7511,-2.1058,-2.2644,-2.4076,-2.5364,-2.4375,-2.2522,-1.9781,0.0,0.0,0.0,0.0,0.0,0.0,0.0,0.0,0.0,0.0,0.0,0.0,0.0,0.0,0.0,0.0,0.0,0.0,0.0,0.0,0.0,0.0,0.0,0.0,0.0,0.0,0.0,0.0,0.0,0.0,0.0,0.0,0.0,0.0,0.0,0.0,0.0,0.0,0.0,-1.0978,-1.177,0.0,0.0,0.0,0.0,0.0,0.0,0.0,0.0,-1.0566,0.0,0.0,0.0,0.0,0.0,0.0,0.0,0.0,0.0,0.0,0.0,0.0,0.0,0.0,0.0,0.0,0.0,0.0,0.0,0.0,0.0,0.0,0.0,0.0,0.0,0.0,0.0,0.0,0.0,0.0,0.0,0.0,0.0,0.0,0.0,0.0,0.0,0.0,0.0,0.0,0.0,0.0,0.0,0.0,0.0,0.0,0.0,0.0,0.0,0.0,0.0,0.0,0.0,0.0,0.0,-1.3932,-1.6463,-1.9173,-2.1971,-2.3313,-2.459,-2.5826,-2.5002,-2.2982,0.0,0.0,0.0,0.0,0.0,0.0,0.0,0.0,0.0,0.0,0.0,0.0,0.0,0.0,0.0,0.0,0.0,0.0,0.0,0.0,0.0,0.0,0.0,0.0,0.0,0.0,0.0,0.0,0.0,0.0,0.0,0.0,0.0,0.0,0.0,0.0,0.0,0.0,0.0,0.0,-1.299,-1.3784,-1.3858,0.0,0.0,0.0,0.0,0.0,0.0,-1.2398,-1.2623,0.0,0.0,0.0,0.0,0.0,0.0,0.0,0.0,0.0,0.0,0.0,0.0,0.0,0.0,0.0,0.0,0.0,0.0,0.0,0.0,0.0,0.0,0.0,0.0,0.0,0.0,0.0,0.0,0.0,0.0,0.0,0.0,0.0,0.0,0.0,0.0,0.0,0.0,0.0,0.0,0.0,0.0,0.0,0.0,0.0,0.0,0.0,0.0,0.0,0.0,0.0,0.0,0.0,0.0,0.0,-1.4689,-1.791,-2.069,-2.2856,-2.3939,-2.4996,-2.6073,-2.5519,-2.3206,0.0,0.0,0.0,0.0,0.0,0.0,0.0,0.0,0.0,0.0,0.0,0.0,0.0,0.0,0.0,0.0,0.0,0.0,0.0,0.0,0.0,0.0,0.0,0.0,0.0,0.0,0.0,0.0,0.0,0.0,0.0,0.0,0.0,0.0,0.0,0.0,0.0,0.0,0.0,0.0,0.0,-1.5713,-1.6038,-1.5519,0.0,0.0,0.0,0.0,-1.4134,-1.4857,0.0,0.0,0.0,0.0,0.0,0.0,0.0,0.0,0.0,0.0,0.0,0.0,0.0,0.0,0.0,0.0,0.0,0.0,0.0,0.0,0.0,0.0,0.0,0.0,0.0,0.0,0.0,0.0,0.0,0.0,0.0,0.0,0.0,0.0,0.0,0.0,0.0,0.0,0.0,0.0,0.0,0.0,0.0,0.0,0.0,0.0,0.0,0.0,0.0,0.0,0.0,0.0,0.0,0.0,0.0,0.0,-1.504,-1.7805,-2.0651,-2.3366,-2.4266,-2.5189,-2.6232,-2.5538,-2.3189,0.0,0.0,0.0,0.0,0.0,0.0,0.0,0.0,0.0,0.0,0.0,0.0,0.0,0.0,0.0,0.0,0.0,0.0,0.0,0.0,0.0,0.0,0.0,0.0,0.0,0.0,0.0,0.0,0.0,0.0,0.0,0.0,0.0,0.0,0.0,0.0,0.0,0.0,0.0,0.0,0.0,-1.7663,-1.7726,-1.7006,-1.6327,0.0,0.0,-1.6617,-1.7609,-1.7696,0.0,0.0,0.0,0.0,0.0,0.0,0.0,0.0,0.0,0.0,0.0,0.0,0.0,0.0,0.0,0.0,0.0,0.0,0.0,0.0,0.0,0.0,0.0,0.0,0.0,0.0,0.0,0.0,0.0,0.0,0.0,0.0,0.0,0.0,0.0,0.0,0.0,0.0,0.0,0.0,0.0,0.0,0.0,0.0,0.0,0.0,0.0,0.0,0.0,0.0,0.0,0.0,0.0,0.0,0.0,-1.3936,-1.5897,-1.8793,-2.146,-2.3809,-2.4672,-2.5489,-2.6333,-2.6029,-2.3666,0.0,0.0,0.0,0.0,0.0,0.0,0.0,0.0,0.0,0.0,0.0,0.0,0.0,0.0,0.0,0.0,0.0,0.0,0.0,0.0,0.0,0.0,0.0,0.0,0.0,0.0,0.0,0.0,0.0,0.0,0.0,0.0,0.0,0.0,0.0,0.0,0.0,0.0,0.0,0.0,0.0,0.0,-2.1999,-2.1841,0.0,0.0,0.0,-2.1148,-2.1143,0.0,0.0,0.0,0.0,0.0,0.0,0.0,0.0,0.0,0.0,0.0,0.0,0.0,0.0,0.0,0.0,0.0,0.0,0.0,0.0,0.0,0.0,0.0,0.0,0.0,0.0,0.0,0.0,0.0,0.0,0.0,0.0,0.0,0.0,0.0,0.0,0.0,0.0,0.0,0.0,0.0,0.0,0.0,0.0,0.0,0.0,0.0,0.0,0.0,0.0,0.0,0.0,0.0,0.0,0.0,0.0,0.0,-1.6681,-1.9723,-2.2259,-2.4241,-2.5137,-2.585,-2.647,-2.6435,0.0,0.0,0.0,0.0,0.0,0.0,0.0,0.0,0.0,0.0,0.0,0.0,0.0,0.0,0.0,0.0,0.0,0.0,0.0,0.0,0.0,0.0,0.0,0.0,0.0,0.0,0.0,-0.4926,0.0,0.0,0.0,0.0,0.0,0.0,0.0,0.0,0.0,0.0,0.0,0.0,0.0,0.0,-2.3553,-2.4781,-2.5262,-2.493,0.0,0.0,-2.4738,-2.4134,-2.3265,-2.181,0.0,0.0,0.0,0.0,0.0,0.0,0.0,0.0,0.0,0.0,0.0,0.0,0.0,0.0,0.0,0.0,0.0,0.0,0.0,0.0,0.0,0.0,0.0,0.0,0.0,0.0,0.0,0.0,0.0,0.0,0.0,0.0,0.0,0.0,0.0,0.0,0.0,0.0,0.0,0.0,0.0,0.0,0.0,0.0,0.0,0.0,0.0,0.0,0.0,0.0,0.0,0.0,0.0,0.0,0.0,-1.7148,-2.0251,-2.2827,-2.478,-2.5589,-2.6208,-2.6724,-2.6517,-2.4411,0.0,0.0,0.0,0.0,0.0,0.0,0.0,0.0,0.0,0.0,0.0,0.0,0.0,0.0,0.0,0.0,0.0,0.0,0.0,0.0,0.0,0.0,0.0,0.0,0.0,0.0,0.0,0.0,0.0,0.0,0.0,0.0,0.0,0.0,0.0,0.0,0.0,0.0,0.0,0.0,0.0,-2.416,-2.4004,-2.4957,-2.6169,0.0,0.0,-2.5572,-2.6193,-2.5838,-2.481,-2.2703,0.0,0.0,0.0,0.0,0.0,0.0,0.0,0.0,0.0,0.0,0.0,0.0,0.0,0.0,0.0,0.0,0.0,0.0,0.0,0.0,0.0,0.0,0.0,0.0,0.0,0.0,0.0,0.0,0.0,0.0,0.0,0.0,0.0,0.0,0.0,0.0,0.0,0.0,0.0,0.0,0.0,0.0,0.0,0.0,0.0,0.0,0.0,0.0,0.0,0.0,0.0,0.0,0.0,-1.6107,-1.8196,-2.1315,-2.3735,-2.5319,-2.5959,-2.6504,-2.6972,-2.712,-2.5623,0.0,0.0,0.0,0.0,0.0,0.0,0.0,0.0,0.0,0.0,0.0,0.0,0.0,0.0,0.0,0.0,0.0,0.0,0.0,0.0,0.0,0.0,0.0,0.0,0.0,0.0,0.0,0.0,-0.7966,-0.7558,-0.7444,0.0,0.0,0.0,0.0,0.0,0.0,0.0,0.0,0.0,0.0,-2.6941,-2.7949,-2.8533,0.0,0.0,-2.9154,-2.8565,-2.8268,-2.7064,-2.5836,-2.484,-2.3203,0.0,0.0,0.0,0.0,0.0,0.0,0.0,0.0,0.0,0.0,0.0,0.0,0.0,0.0,0.0,0.0,0.0,0.0,0.0,0.0,0.0,0.0,0.0,0.0,0.0,0.0,0.0,0.0,0.0,0.0,0.0,0.0,0.0,0.0,0.0,0.0,0.0,0.0,0.0,0.0,0.0,0.0,0.0,0.0,0.0,0.0,0.0,0.0,0.0,0.0,0.0,0.0,-1.7188,-1.8997,-2.2215,-2.4553,-2.587,-2.6349,-2.6758,-2.7182,-2.7522,-2.647,0.0,0.0,0.0,0.0,0.0,0.0,0.0,0.0,0.0,0.0,0.0,0.0,0.0,0.0,0.0,0.0,0.0,0.0,0.0,0.0,0.0,0.0,0.0,0.0,0.0,0.0,0.0,0.0,-0.8871,-0.8436,-0.8665,0.0,0.0,0.0,0.0,0.0,0.0,0.0,0.0,0.0,0.0,-2.9179,-3.0503,-3.0976,-3.119,-3.1302,-3.1219,-3.0786,-2.9887,-2.8369,-2.7116,-2.6614,0.0,0.0,0.0,0.0,0.0,0.0,0.0,0.0,0.0,0.0,0.0,0.0,0.0,0.0,0.0,0.0,0.0,0.0,0.0,0.0,0.0,0.0,0.0,0.0,0.0,0.0,0.0,0.0,0.0,0.0,-0.5518,0.0,0.0,0.0,0.0,0.0,0.0,0.0,0.0,0.0,0.0,0.0,0.0,0.0,0.0,0.0,0.0,0.0,0.0,0.0,0.0,0.0,0.0,-1.7707,-1.9506,-2.2834,-2.5131,-2.6367,-2.6792,-2.7138,-2.7405,-2.7615,-2.669,-2.4527,0.0,0.0,0.0,0.0,0.0,0.0,0.0,0.0,0.0,0.0,0.0,0.0,0.0,0.0,0.0,0.0,0.0,0.0,0.0,0.0,0.0,0.0,0.0,0.0,0.0,0.0,-1.0398,-0.925,-0.9372,0.0,0.0,0.0,0.0,0.0,0.0,0.0,0.0,0.0,0.0,-2.9621,-3.0366,-3.0707,-3.1443,-3.2075,-3.2383,-3.2216,-3.1765,-3.0886,-2.9934,-2.9041,0.0,0.0,0.0,0.0,0.0,0.0,0.0,0.0,0.0,0.0,0.0,0.0,0.0,0.0,0.0,0.0,0.0,0.0,0.0,0.0,0.0,0.0,0.0,0.0,0.0,0.0,0.0,-0.916,-0.8932,0.0,0.0,0.0,0.0,0.0,0.0,0.0,0.0,0.0,0.0,0.0,-2.0035,-2.0506,0.0,0.0,0.0,0.0,0.0,0.0,0.0,0.0,0.0,0.0,0.0,0.0,-1.9257,-2.0736,-2.4496,-2.6819,-2.7521,-2.7873,-2.7891,-2.7544,-2.7763,-2.6934,-2.4823,0.0,0.0,0.0,0.0,0.0,0.0,0.0,0.0,0.0,0.0,0.0,0.0,0.0,0.0,0.0,0.0,0.0,0.0,0.0,0.0,0.0,0.0,0.0,0.0,0.0,-1.332,0.0,0.0,0.0,0.0,0.0,0.0,0.0,0.0,0.0,0.0,0.0,-2.913,-3.1021,-3.1632,-3.1987,-3.2259,-3.259,-3.2654,0.0,0.0,0.0,0.0,0.0,0.0,0.0,0.0,0.0,0.0,0.0,0.0,0.0,0.0,-2.4099,-2.2503,-2.1507,-2.0933,-2.0988,0.0,0.0,0.0,0.0,0.0,0.0,0.0,0.0,0.0,0.0,0.0,0.0,0.0,0.0,-1.2694,0.0,-1.1656,0.0,0.0,0.0,0.0,0.0,0.0,0.0,0.0,-1.9179,-2.1203,-2.341,-2.4027,-2.4513,0.0,-2.4953,-2.3553,0.0,0.0,0.0,0.0,0.0,0.0,0.0,0.0,-2.1686,-2.2634,-2.6247,-2.8237,-2.8352,-2.8838,-2.8804,-2.8157,-2.8332,-2.7691,-2.6099,-2.4255,-2.2275,0.0,0.0,0.0,0.0,0.0,0.0,0.0,0.0,0.0,0.0,0.0,0.0,0.0,0.0,0.0,0.0,0.0,0.0,0.0,0.0,0.0,0.0,0.0,-1.5772,0.0,0.0,0.0,0.0,0.0,0.0,0.0,0.0,0.0,-2.815,-2.9793,-3.1337,-3.2355,-3.287,-3.3133,-3.3107,0.0,0.0,0.0,0.0,0.0,0.0,0.0,-3.1714,-3.1696,-3.1235,-3.0752,-3.0395,-2.9599,-2.9017,-2.9,0.0,0.0,-2.5659,-2.4793,-2.4438,-2.4466,-2.4524,-2.4479,-2.4214,-2.3997,-2.3782,0.0,0.0,0.0,0.0,0.0,0.0,0.0,0.0,-1.7704,-1.735,0.0,-1.5076,0.0,0.0,0.0,0.0,0.0,-1.5363,0.0,0.0,-2.3592,-2.5538,-2.6652,-2.7607,-2.8296,-2.8725,-2.8717,-2.8774,-2.8556,-2.3237,0.0,0.0,0.0,0.0,0.0,0.0,-2.4814,-2.5135,-2.7954,-2.9279,-2.8944,-2.972,-2.9812,-2.9121,-2.9225,-2.8941,-2.8196,-2.611,-2.457,-2.3654,-1.9522,0.0,0.0,0.0,0.0,0.0,0.0,0.0,0.0,0.0,0.0,0.0,0.0,0.0,0.0,0.0,0.0,0.0,0.0,0.0,0.0,-1.6324,0.0,0.0,0.0,0.0,0.0,0.0,0.0,0.0,0.0,0.0,-3.0697,-3.2174,-3.3142,-3.2716,0.0,0.0,0.0,0.0,-3.4556,-3.4659,-3.4685,-3.4646,-3.4613,-3.3926,-3.3413,-3.3378,0.0,0.0,-3.2216,-3.1337,-3.0697,-3.0678,-2.9972,-2.9163,-2.8229,-2.7884,-2.7814,-2.7858,-2.7763,-2.7636,-2.6876,-2.5955,-2.526,-2.5369,0.0,0.0,0.0,0.0,-1.9672,-1.9711,-1.9681,-1.9988,-1.9756,-1.9161,-1.841,0.0,0.0,0.0,0.0,0.0,0.0,-2.034,-2.3161,-2.4729,-2.6375,-2.8089,-2.8694,-2.9105,-2.9403,-2.9489,-2.9574,-2.9571,-2.795,-2.6134,-2.429,0.0,0.0,0.0,0.0,-2.6295,-2.7102,-2.9479,-3.0703,-3.0574,-3.1026,-3.0604,-2.9351,-2.9301,-2.9226,-2.9052,-2.7391,-2.6159,-2.5459,-2.3179,0.0,0.0,0.0,0.0,0.0,0.0,0.0,0.0,0.0,0.0,0.0,0.0,0.0,0.0,0.0,0.0,0.0,0.0,0.0,-2.1563,-2.162,-2.1571,0.0,0.0,0.0,0.0,0.0,0.0,0.0,0.0,0.0,-3.3209,-3.336,-3.3884,0.0,0.0,-3.5134,-3.5666,-3.5529,-3.5178,-3.4714,-3.466,0.0,0.0,-3.4079,-3.4121,-3.3491,-3.3382,-3.3093,-3.2245,-3.1887,-3.1487,-3.0817,-3.0513,-3.0241,-2.992,-2.8849,-2.81,-2.8038,-2.8036,-2.7926,-2.7655,-2.6997,-2.6369,-2.9422,-2.5578,-2.4408,-2.363,-2.3204,-2.3512,-2.3759,-2.391,-2.4291,-2.4168,-2.3597,-2.2324,-2.1447,-2.0911,-2.0021,0.0,0.0,0.0,-2.3547,-2.6101,-2.7012,-2.8166,-2.9492,-3.0123,-3.0543,-3.0783,-3.0882,-3.1013,-3.1075,-3.1108,-3.0321,-2.8761,0.0,0.0,-2.6045,-2.7561,-2.8677,-2.9357,-3.0947,-3.1688,-3.1452,-3.1658,-3.1273,-3.035,-3.0344,-3.0073,-2.9423,-2.8528,-2.7738,-2.7036,-2.5302,-2.3482,0.0,0.0,0.0,0.0,0.0,0.0,0.0,0.0,0.0,0.0,0.0,-1.585,0.0,0.0,0.0,0.0,-1.899,-2.1595,-2.4437,-2.4275,0.0,0.0,0.0,0.0,0.0,0.0,0.0,-3.2366,-3.308,-3.3888,-3.4899,-3.4829,-3.4963,-3.5755,-3.558,-3.5622,-3.6284,0.0,-3.5636,-3.5225,-3.5187,-3.5039,-3.4525,-3.4861,-3.5038,-3.4493,-3.3773,-3.3231,-3.2681,-3.2035,-3.1365,-3.0856,-3.071,-3.0698,-3.0707,-2.9772,-2.9042,-2.9085,-2.9064,-2.8939,-2.8597,-2.814,-2.7662,-3.2475,-3.16,-2.92,-2.7985,-2.7714,-2.7676,-2.8361,-2.9523,-2.9472,-2.9454,-2.911,-2.6482,-2.5197,-2.497,-2.2959,0.0,-2.5018,-2.5689,-2.7148,-2.9244,-3.0011,-3.0515,-3.087,-3.1707,-3.2249,-3.2422,-3.2639,-3.2784,-3.2898,-3.2963,-3.2979,-3.2846,-3.1026,-3.0176,-3.0439,-3.1026,-3.146,-3.1718,-3.2332,-3.2382,-3.1844,-3.1885,-3.1831,-3.1719,-3.1906,-3.1221,-2.9612,-2.9522,-2.9169,-2.8398,-2.6399,-2.5226,-2.4953,0.0,0.0,0.0,0.0,0.0,0.0,0.0,0.0,0.0,0.0,0.0,0.0,0.0,0.0,0.0,-2.2482,0.0,-2.5354,-2.5408,0.0,0.0,0.0,-2.932,-3.0216,-3.1819,-3.3247,-3.4294,0.0,0.0,-3.5984,-3.6292,-3.6129,-3.5337,-3.5446,-3.5685,-3.5882,-3.5939,-3.5916,-3.5929,-3.599,-3.5996,-3.5831,-3.5899,-3.5818,-3.5566,-3.4514,-3.3546,-3.3122,-3.209,-3.1031,-3.0737,-3.0695,-3.0701,-3.0704,-3.0579,-3.0597,-3.0498,-3.0513,-3.03,-2.9565,-2.931,-2.8768,-3.4172,-3.3405,-3.2197,-3.0818,-2.9513,-2.9911,-2.995,-2.9777,-3.0266,-3.0145,-2.954,-2.8763,-2.8385,-2.8318,-2.78,-2.7919,-2.8505,-2.9179,-2.9816,-3.0421,-3.1306,-3.1777,-3.1864,-3.2282,-3.2589,-3.2771,-3.2818,-3.2914,-3.3039,-3.3073,-3.307,-3.3021,-3.2552,-3.2282,-3.219,-3.2446,-3.2599,-3.2662,-3.2986,-3.3063,-3.2913,-3.2832,-3.2529,-3.1936,-3.1966,-3.1516,-3.0507,-2.993,-2.9575,-2.9354,-2.8276,-2.7355,-2.6657,-2.4556,0.0,0.0,0.0,0.0,0.0,0.0,0.0,0.0,0.0,-2.1527,-2.3196,0.0,-2.4979,0.0,-2.4994,-2.6713,-2.9799,-2.9462,0.0,0.0,-3.1476,-3.2026,-3.2243,-3.3863,-3.5055,-3.5329,-3.5514,-3.5771,-3.6198,-3.6421,-3.6277,-3.556,-3.6098,-3.6848,-3.7523,-3.6619,-3.5923,-3.5984,-3.5995,-3.6014,-3.6005,-3.5946,-3.5695,-3.5009,-3.5084,-3.4616,-3.2632,-3.2544,-3.2272,-3.1032,-3.0695,-3.0674,-3.0626,-3.0617,-3.0572,-3.053,-3.0574,-3.0549,-3.0317,-2.9788,-2.9035,-3.504,-3.4576,-3.3367,-3.1882,-3.0375,-3.1278,-3.1406,-3.1107,-3.141,-3.1323,-3.0904,-3.0504,-3.0071,-2.9709,-3.0123,-3.0346,-3.0485,-3.1133,-3.1446,-3.1551,-3.2108,-3.2353,-3.2301,-3.2623,-3.2818,-3.29,-3.3028,-3.3122,-3.318,-3.3229,-3.3229,-3.318,-3.3229,-3.3168,-3.3031,-3.3044,-3.3073,-3.3183,-3.3262,-3.3262,-3.3214,-3.3211,-3.2979,-3.2502,-3.2264,-3.1718,-3.089,-3.0473,-3.0292,-3.0301,-2.9832,-2.9332,-2.8792,-2.659,-2.5116,0.0,0.0,0.0,0.0,0.0,0.0,0.0,0.0,0.0,0.0,0.0,-2.8301,0.0,-2.8316,-2.9394,-3.1769,-3.1491,-3.1536,-3.2493,-3.2949,-3.3328,-3.3653,-3.4633,-3.5467,-3.5931,-3.575,-3.5807,-3.6383,-3.6644,-3.6626,-3.6209,-3.6673,-3.7066,-3.7131,-3.6428,-3.5929,-3.5994,-3.5975,-3.5963,-3.5958,-3.5931,-3.5725,-3.5236,-3.4909,-3.4212,-3.2827,-3.2308,-3.1789,-3.0925,-3.0704,-3.069,-3.0614,-3.0613,-3.0586,-3.055,-3.0554,-3.054,-3.054,-3.0181,-2.9573,-3.5393,-3.5251,-3.3546,-3.2068,-3.0987,-3.2152,-3.2355,-3.1912,-3.1954,-3.208,-3.2206,-3.1694,-3.0997,-3.0304,-3.1101,-3.15,-3.1588,-3.2105,-3.2387,-3.2474,-3.259,-3.259,-3.2508,-3.2854,-3.3049,-3.3124,-3.3237,-3.3346,-3.347,-3.3421,-3.3364,-3.3307,-3.3364,-3.3367,-3.3307,-3.3214,-3.3226,-3.3393,-3.3337,-3.3277,-3.3147,-3.3334,-3.3316,-3.3144,-3.2719,-3.2018,-3.1133,-3.1138,-3.108,-3.0947,-3.0903,-3.081,-3.0596,-2.7906,-2.6675,0.0,-2.55,0.0,0.0,0.0,0.0,0.0,0.0,0.0,0.0,-3.0479,-3.144,-3.2345,-3.1808,-3.1788,-3.2663,-3.2637,-3.2902,-3.3705,-3.3677,-3.3903,-3.466,-3.4907,-3.5353,-3.6242,-3.5736,-3.5703,-3.6572,-3.685,-3.6943,-3.68,-3.6995,-3.6893,-3.614,-3.5947,-3.5949,-3.5995,-3.5944,-3.5916,-3.5906,-3.5888,-3.5814,-3.5523,-3.4706,-3.3563,-3.3313,-3.2116,-3.105,-3.09,-3.078,-3.0668,-3.061,-3.0585,-3.0582,-3.0574,-3.0525,-3.0491,-3.0525,-3.0516,-3.0006,-3.5442,-3.5249,-3.3625,-3.2771,-3.2489,-3.2743,-3.1034,-2.8174,-2.8818,-2.9762,-3.0947,-3.1914,-3.2272,-3.2115,-3.2272,-3.2359,-3.2377,-3.2502,-3.2606,-3.2741,-3.2804,-3.2852,-3.2902,-3.3008,-3.3461,-3.4132,-3.3586,-3.3665,-3.4341,-3.3704,-3.3378,-3.3382,-3.3378,-3.3378,-3.3382,0.0,0.0,0.0,-3.3396,-3.3393,-3.3437,-3.3466,-3.3448,-3.3419,-3.3317,0.0,-3.2083,-3.1991,-3.1392,-3.0225,-3.0631,0.0,0.0,0.0,0.0,0.0,0.0,0.0,0.0,0.0,0.0,0.0,-3.0555,-3.1205,-3.0836,-3.2155,-3.3201,-3.3551,-3.3954,-3.4342,-3.4631,-3.4606,-3.4647,-3.486,-3.4827,-3.484,-3.503,-3.5689,-3.628,-3.6496,-3.6488,-3.6569,-3.6765,-3.6973,-3.6806,-3.6295,-3.6727,-3.6834,-3.6092,-3.5976,-3.5976,-3.6002,-3.5939,-3.5885,-3.5895,-3.5885,-3.5631,-3.4987,-3.5193,-3.4684,-3.3447,-3.2947,-3.2392,-3.1755,-3.1087,-3.0633,-3.0608,-3.0568,-3.0535,-3.0525,-3.0465,-3.0455,-3.0554,-3.054,-3.0037,-3.5343,0.0,-3.3546,-3.2563,0.0,-3.1861,-3.0098,-2.7356,-2.9603,-3.0987,-3.1702,-3.2433,-3.2753,-3.2682,-3.1558,-3.1087,-3.1082,-3.0329,-3.0401,-3.1183,-3.1667,-3.2256,-3.3013,-3.3532,-3.4058,-3.4483,-3.453,-3.456,-3.4573,-3.419,-3.381,-3.3393,-3.3393,-3.3393,-3.3393,-3.3437,-3.3452,-3.3452,-3.3452,-3.3509,-3.3591,-3.3605,-3.3591,-3.353,0.0,0.0,0.0,0.0,0.0,0.0,0.0,0.0,0.0,0.0,0.0,-2.9964,-2.9896,-2.964,-2.9102,-2.9541,-3.0186,-3.1021,-3.2512,-3.3289,-3.3094,-3.3895,-3.4475,-3.4623,-3.4986,-3.5228,-3.5328,-3.5295,-3.5283,-3.5331,-3.5265,-3.5216,-3.5331,-3.5732,-3.6068,-3.6144,-3.6226,-3.6324,-3.6373,-3.6432,-3.6354,-3.5994,-3.6293,-3.6463,-3.6068,-3.599,-3.5987,-3.5947,-3.5903,-3.584,-3.5846,-3.5838,-3.5554,-3.4794,-3.4527,-3.396,-3.279,-3.2189,-3.1743,-3.1327,-3.0869,-3.0604,-3.0601,-3.0574,-3.055,-3.05,-3.0463,-3.0419,-3.0501,-3.0206,-2.9496,-3.5094,-3.4431,-3.3591,-3.2463,-3.1186,-3.1322,-3.0204,-2.8468,0.0,0.0,0.0,-3.2775,-3.2916,-3.2789,-3.0965,-3.0176,-3.0124,-2.8904,-2.9004,-3.0194,-3.0912,-3.1963,-3.3306,-3.413,-3.4679,-3.4966,-3.5519,-3.546,-3.4808,-3.4679,-3.419,-3.3465,-3.3393,-3.3411,-3.3422,-3.3481,-3.3506,-3.3553,-3.3538,-3.3577,-3.3684,-3.3698,-3.3652,-3.3615,-3.2963,-3.2575,-3.2556,-3.2524,-3.2479,-3.2425,-3.3059,-3.306,-3.2284,-3.2059,-3.1663,-3.0993,-3.0805,-3.0767,-3.0832,-3.0984,-3.1664,-3.291,-3.4162,-3.4917,-3.5054,-3.5141,-3.5231,-3.5398,-3.5404,-3.5457,-3.5527,-3.5495,-3.5494,-3.5543,-3.5451,-3.5432,-3.5557,-3.5605,-3.5713,-3.5736,-3.5818,-3.5826,-3.5882,-3.5924,-3.5917,-3.5923,-3.5995,-3.597,-3.59,-3.5919,-3.5935,-3.5891,-3.5838,-3.5791,-3.5784,-3.5794,-3.549,-3.4875,-3.4065,-3.3173,-3.2423,-3.1484,-3.0875,-3.0983,-3.0726,-3.0592,-3.0569,-3.0554,-3.0545,-3.0509,-3.0453,-3.0398,-3.0378,-2.9799,-2.8974,-3.4653,-3.4467,-3.4229,-3.3557,-3.2742,-3.3361,-3.3057,-3.2,-3.0628,-3.037,-3.1073,-3.2404,-3.2979,-3.2979,-3.2696,-3.2583,-3.2598,-3.2397,-3.2463,0.0,-3.2898,-3.3452,-3.4364,-3.4506,-3.5315,-3.6544,-3.6057,-3.5731,-3.5569,-3.4935,-3.419,-3.3484,-3.3393,-3.3441,-3.3481,-3.3509,-3.3549,-3.3657,-3.3601,-3.3633,-3.3698,-3.3698,-3.3698,-3.3684,-3.3519,-3.3451,-3.3511,-3.3381,-3.3071,-3.2532,-3.3126,-3.3114,-3.2369,-3.2795,-3.2921,-3.2594,-3.2483,-3.2119,-3.1379,-3.1912,-3.2813,-3.4063,-3.5275,-3.5653,-3.4917,-3.4997,-3.5179,-3.5372,-3.5457,-3.555,-3.5644,-3.5713,-3.5732,-3.5741,-3.5739,-3.5736,-3.5745,-3.5818,-3.5859,-3.5866,-3.5869,-3.5914,-3.5949,-3.5992,-3.5991,-3.5995,-3.5946,-3.5908,-3.5837,-3.5824,-3.5827,-3.5807,-3.5803,-3.5778,-3.5742,-3.5713,-3.5601,-3.5563,-3.469,-3.392,-3.3604,-3.2367,-3.1482,-3.1553,-3.0954,-3.0558,-3.0514,-3.0469,-3.0444,-3.0463,-3.0425,-3.039,-3.0327,-2.9687,-2.8871,-3.4974,-3.4635,-3.4918,-3.4835,-3.4499,-3.4712,-3.4357,-3.3635,-3.3034,-3.2675,-3.2663,-3.3396,-3.3732,-3.3692,-3.2552,-3.2018,-3.1986,-3.1147,-3.1247,-3.2115,-3.2936,-3.3515,-3.3994,-3.4811,-3.5607,-3.6327,-3.6435,-3.6236,-3.5786,-3.5406,-3.4624,-3.3484,-3.3393,-3.3452,-3.3567,-3.3549,-3.3633,-3.3753,-3.3684,-3.3726,-3.3855,-3.3815,-3.3802,-3.382,-3.3739,-3.3703,-3.3643,-3.3591,-3.3395,-3.3113,-3.381,-3.4036,-3.369,-3.3916,-3.3951,-3.3667,-3.3082,-3.2545,-3.2075,-3.285,-3.3831,-3.4907,-3.5566,-3.5826,-3.5529,-3.5526,-3.5438,-3.5215,-3.5316,-3.5451,-3.5612,-3.5728,-3.5797,-3.5792,-3.5836,-3.5862,-3.5872,-3.5914,-3.5948,-3.5951,-3.5947,-3.598,-3.5994,-3.6008,-3.6015,-3.5992,-3.5933,-3.582,-3.575,-3.5727,-3.5708,-3.5732,-3.5718,-3.5699,-3.5703,-3.5657,-3.5461,-3.5041,-3.4212,-3.349,-3.299,-3.1832,-3.1223,-3.1042,-3.067,-3.0486,-3.0419,-3.0414,-3.0402,-3.0379,-3.038,-3.0336,-3.0202,-2.9669,-2.8681,-3.5455,-3.4948,-3.565,-3.5818,-3.564,-3.5493,-3.5027,-3.4443,-3.5195,-3.5303,-3.4893,-3.4742,-3.4718,-3.4602,-3.2929,-3.2192,-3.2,-3.0934,-3.1048,-3.2204,-3.3342,-3.3997,-3.4317,-3.5465,-3.6116,-3.6365,-3.6979,-3.6868,-3.6146,-3.6073,-3.5276,-3.3828,-3.3683,-3.3738,-3.385,-3.3846,-3.4022,-3.428,-3.4106,-3.4004,-3.3972,-3.3921,-3.3908,-3.3921,-3.3829,-3.3766,-3.3671,-3.3647,-3.3706,-3.3903,-3.4337,-3.4666,-3.4812,-3.4594,-3.4355,-3.4055,-3.3299,-3.2912,-3.3136,-3.384,-3.4758,-3.5823,-3.6061,-3.6184,-3.6231,-3.6237,-3.5907,-3.5296,-3.5201,-3.529,-3.5483,-3.5648,-3.5736,-3.5761,-3.584,-3.6014,-3.615,-3.6091,-3.6102,-3.6223,-3.6147,-3.5998,-3.6008,-3.6014,-3.5995,-3.5953,-3.5852,-3.5754,-3.5679,-3.561,-3.5629,-3.5646,-3.5632,-3.5612,-3.5681,-3.562,-3.5314,-3.4631,-3.3913,-3.3182,-3.2341,-3.1403,-3.0665,-3.0554,-3.0408,-3.0365,-3.0317,-3.0317,-3.0324,-3.0286,-3.0273,-3.0286,-3.0235,-2.9844,-2.8929,-3.5854,-3.5877,-3.6443,-3.6238,-3.5596,-3.5542,-3.5177,-3.4713,-3.5426,-3.6211,-3.6697,-3.6077,-3.5719,-3.567,-3.5475,-3.5299,-3.524,-3.5204,-3.5131,-3.5258,-3.5496,-3.5949,-3.6469,-3.6777,-3.725,-3.7828,-3.7973,-3.7557,-3.685,-3.6814,-3.6037,-3.4661,-3.4482,-3.4543,-3.46,-3.467,-3.5067,-3.5853,-3.5237,-3.4555,-3.395,-3.3895,-3.3939,-3.3985,-3.3868,-3.3834,-3.386,-3.3753,-3.406,-3.472,-3.4238,-3.4257,-3.4811,-3.4243,-3.3719,-3.3538,-3.3292,-3.3582,-3.4552,-3.4836,-3.551,-3.6928,-3.7238,-3.718,-3.6808,-3.696,-3.6708,-3.5817,-3.521,-3.5105,-3.5278,-3.5419,-3.556,-3.5672,-3.5859,-3.6197,-3.6791,-3.6443,-3.6297,-3.7103,-3.646,-3.6014,-3.6015,-3.6014,-3.5958,-3.5853,-3.5776,-3.5679,-3.557,-3.5553,-3.5547,-3.5534,-3.5546,-3.5593,-3.5602,-3.554,-3.5438,-3.5265,-3.4616,-3.3731,-3.2884,-3.207,-3.1346,-3.0656,-3.0305,-3.0273,-3.0241,-3.0227,-3.0214,-3.0232,-3.0213,-3.0195,-3.0221,-3.0092,-2.9563,-3.6326,-3.602,-3.7143,-3.7166,-3.6483,-3.6844,-3.6673,-3.6217,-3.7023,-3.7666,-3.7966,-3.7692,-3.7213,-3.6585,-3.6599,-3.6585,-3.649,-3.6425,-3.6425,-3.6544,-3.6979,-3.6888,-3.6363,-3.6844,-3.7243,-3.7466,-3.7533,-3.737,-3.6977,-3.6526,-3.5946,-3.5385,-3.5359,-3.5399,-3.5475,-3.5531,-3.5784,-3.6204,-3.5922,-3.5441,-3.4745,-3.4205,-3.3985,-3.4049,-3.4011,-3.3947,-3.3895,-3.3842,-3.3967,-3.4302,-3.4417,-3.4637,-3.4986,-3.4646,-3.4383,-3.4208,-3.3614,-3.4033,-3.5774,-3.5079,-3.5401,-3.738,-3.6791,-3.6609,-3.7322,-3.6798,-3.617,-3.5864,-3.5453,-3.5103,-3.487,-3.4975,-3.5177,-3.544,-3.6033,-3.6669,-3.706,-3.6893,-3.6896,-3.7182,-3.6542,-3.6016,-3.6014,-3.6006,-3.5953,-3.583,-3.5747,-3.5649,-3.5521,-3.5483,-3.5455,-3.54,-3.543,-3.5502,-3.5534,-3.5515,-3.5495,-3.5347,-3.4743,-3.3935,-3.3551,-3.2436,-3.1443,-3.0994,-3.0546,-3.0225,-3.015,-3.0142,-3.0135,-3.0147,-3.0147,-3.0123,-3.0142,-3.015,-2.9925,-3.7119,-3.6796,-3.7771,-3.7754,-3.7118,-3.7827,-3.7798,-3.7411,-3.818,-3.859,-3.8692,-3.8707,-3.8235,-3.7519,-3.7382,-3.7352,-3.7305,-3.7169,-3.7222,-3.7393,-3.7954,-3.7609,-3.6612,-3.7112,-3.7402,-3.737,-3.7423,-3.7406,-3.7267,-3.6779,-3.6363,-3.6164,-3.6186,-3.6248,-3.631,-3.6398,-3.66,-3.6864,-3.6747,-3.6407,-3.5923,-3.5151,-3.4537,-3.4204,-3.4124,-3.4049,-3.3959,-3.4155,-3.4244,-3.4201,-3.4784,-3.5078,-3.506,-3.4862,-3.4738,-3.4761,-3.4105,-3.454,-3.6567,-3.5567,-3.5713,-3.7362,-3.6501,-3.6301,-3.7088,-3.643,-3.5677,-3.5395,-3.527,-3.4938,-3.471,-3.4595,-3.4802,-3.53,-3.6068,-3.6537,-3.6959,-3.6962,-3.6926,-3.7164,-3.6543,-3.6014,-3.6006,-3.5986,-3.5924,-3.5822,-3.5726,-3.5629,-3.5515,-3.5435,-3.5391,-3.532,-3.5342,-3.5379,-3.5442,-3.5435,-3.5415,-3.5086,-3.452,-3.4299,-3.3885,-3.2508,-3.1656,-3.13,-3.0667,-3.0204,-3.0061,-3.0019,-3.0038,-3.003,-3.003,-3.003,-3.0046,-3.0042,-2.9901,-3.8373,-3.8257,-3.8203,-3.7771,-3.718,-3.7945,-3.7968,-3.7519,-3.8313,-3.8689,-3.8707,-3.8692,-3.8559,-3.8275,-3.8058,-3.8065,-3.8101,-3.7945,-3.7943,-3.8082,-3.8221,-3.8254,-3.82,-3.8218,-3.8234,-3.8143,-3.8077,-3.808,-3.8082,-3.8029,-3.7685,-3.6995,-3.7037,-3.7051,-3.7082,-3.7256,-3.7683,-3.8138,-3.7738,-3.7485,-3.7507,-3.684,-3.5751,-3.4586,-3.4191,-3.4173,-3.4234,-3.4831,-3.519,-3.5133,-3.5219,-3.5277,-3.5227,-3.4442,-3.427,-3.4759,-3.4633,-3.5222,-3.6655,-3.6507,-3.6766,-3.7557,-3.6872,-3.6687,-3.6741,-3.6103,-3.5345,-3.4497,-3.4584,-3.4677,-3.4793,-3.4414,-3.4656,-3.5597,-3.5466,-3.5907,-3.6824,-3.6592,-3.6472,-3.6949,-3.6523,-3.6027,-3.6006,-3.5936,-3.5866,-3.5792,-3.5737,-3.5621,-3.5457,-3.5395,-3.5357,-3.5316,-3.5293,-3.5308,-3.5308,-3.5315,-3.4955,-3.4615,-3.4604,-3.4671,-3.352,-3.2523,-3.2069,-3.1493,-3.067,-3.016,-2.9994,-2.9916,-2.9907,-2.9918,-2.991,-2.9918,-2.9943,-2.9924,-2.9723,-3.8449,-3.832,-3.8241,-3.8077,-3.7925,-3.8227,-3.8319,-3.8273,-3.8588,-3.878,-3.8732,-3.864,-3.8512,-3.8382,-3.8203,-3.8138,-3.8174,-3.8053,-3.8087,-3.8239,-3.8338,-3.8385,-3.8433,-3.8515,-3.8485,-3.8387,-3.832,-3.829,-3.8209,-3.8224,-3.813,-3.7927,-3.7949,-3.7977,-3.8026,-3.8156,-3.8386,-3.8585,-3.8467,-3.8231,-3.7863,-3.7588,-3.7012,-3.6072,-3.5404,-3.5256,-3.5686,-3.5494,-3.5584,-3.6021,-3.5568,-3.5304,-3.5217,-3.4413,-3.4196,-3.4755,-3.4345,-3.4943,-3.6594,-3.5512,-3.5399,-3.697,-3.5481,-3.5033,-3.5642,-3.5317,-3.4724,-3.4472,-3.4434,-3.4503,-3.4476,-3.4101,-3.4428,-3.5844,-3.6342,-3.6589,-3.7238,-3.7384,-3.7372,-3.7155,-3.6482,-3.596,-3.5931,-3.5897,-3.5806,-3.5751,-3.5669,-3.5556,-3.5443,-3.5379,-3.532,-3.525,-3.5229,-3.5231,-3.5229,-3.5234,-3.5031,-3.4603,-3.4437,-3.4737,-3.4159,-3.2945,-3.2319,-3.1784,-3.0896,-3.007,-2.9891,-2.9849,-2.9832,-2.9834,-2.9816,-2.9844,-2.9851,-2.9823,-2.946,-3.8399,-3.8322,-3.8257,-3.8274,-3.832,-3.8417,-3.8512,-3.864,-3.8735,-3.8747,-3.8683,-3.8556,-3.846,-3.8415,-3.8251,-3.8238,-3.8272,-3.8172,-3.8206,-3.8352,-3.8449,-3.8528,-3.8588,-3.8655,-3.8611,-3.8449,-3.8368,-3.8289,-3.8241,-3.8274,-3.8305,-3.832,-3.8481,-3.8575,-3.8575,-3.867,-3.8735,-3.8762,-3.8833,-3.8658,-3.8303,-3.8378,-3.8103,-3.7386,-3.6557,-3.6273,-3.6694,-3.6395,-3.6313,-3.6496,-3.6062,-3.5518,-3.4962,-3.4338,-3.4289,-3.4835,-3.4467,-3.4887,-3.6352,-3.5181,-3.4945,-3.6359,-3.4891,-3.4127,-3.5112,-3.4488,-3.4125,-3.4101,-3.4099,-3.4117,-3.4286,-3.3927,-3.4366,-3.5977,-3.6592,-3.6871,-3.7226,-3.7528,-3.7368,-3.6846,-3.6279,-3.5938,-3.5888,-3.5833,-3.5767,-3.5678,-3.561,-3.5502,-3.5388,-3.53,-3.5246,-3.522,-3.5153,-3.4965,-3.485,-3.4821,-3.4751,-3.438,-3.4135,-3.4518,-3.4329,-3.32,-3.2387,-3.1927,-3.1202,-3.0299,-2.9859,-2.9798,-2.9763,-2.9755,-2.9737,-2.9765,-2.9746,-2.9746,-2.9226,-3.8399,-3.8382,-3.8338,-3.8338,-3.8399,-3.8462,-3.851,-3.8544,-3.864,-3.864,-3.8541,-3.851,-3.851,-3.8494,-3.8415,-3.843,-3.8465,-3.8368,-3.8385,-3.8528,-3.8624,-3.8716,-3.8792,-3.8735,-3.864,-3.8494,-3.8305,-3.8259,-3.8289,-3.8323,-3.8354,-3.8433,-3.8611,-3.8689,-3.8707,-3.878,-3.8818,-3.8877,-3.8921,-3.9003,-3.9165,-3.9175,-3.8852,-3.8165,-3.7441,-3.7005,-3.6907,-3.7436,-3.731,-3.6857,-3.6626,-3.5863,-3.455,-3.4204,-3.4457,-3.4932,-3.4963,-3.5325,-3.5934,-3.5763,-3.5402,-3.575,-3.4984,-3.4343,-3.4395,-3.3906,-3.349,-3.3538,-3.3553,-3.3745,-3.4309,-3.3992,-3.438,-3.6002,-3.6193,-3.6226,-3.6427,-3.6652,-3.6619,-3.6188,-3.5956,-3.587,-3.5814,-3.5788,-3.5704,-3.561,-3.5527,-3.545,-3.5304,-3.5219,-3.5201,-3.5162,-3.5091,-3.4884,-3.4592,-3.4327,-3.423,-3.4087,-3.3926,-3.3928,-3.3491,-3.2638,-3.2013,-3.1505,-3.08,-2.9935,-2.9782,-2.9737,-2.9692,-2.9683,-2.9673,-2.9645,-2.9626,-2.9467,-2.8866,-3.8478,-3.8462,-3.8382,-3.8417,-3.846,-3.8476,-3.851,-3.8544,-3.8658,-3.8624,-3.8525,-3.851,-3.851,-3.851,-3.846,-3.851,-3.8643,-3.864,-3.8667,-3.8713,-3.8773,-3.8851,-3.8866,-3.8851,-3.8713,-3.8525,-3.8401,-3.8336,-3.8368,-3.8417,-3.8446,-3.8494,-3.8667,-3.8747,-3.878,-3.8881,-3.895,-3.8979,-3.9101,-3.9232,-3.9268,-3.8939,-3.8611,-3.8368,-3.7668,-3.7242,-3.7167,-3.671,-3.6607,-3.6869,-3.6341,-3.5472,-3.453,-3.4221,-3.4272,-3.4394,-3.4302,-3.455,-3.5127,-3.4724,-3.4604,-3.4782,-3.4244,-3.3801,-3.3743,-3.353,-3.3396,-3.3466,-3.3549,-3.3789,-3.4005,-3.4034,-3.4634,-3.6173,-3.6466,-3.6414,-3.6294,-3.6195,-3.6089,-3.6014,-3.5939,-3.5887,-3.5794,-3.5745,-3.5637,-3.5534,-3.5437,-3.5311,-3.5246,-3.5174,-3.5151,-3.5119,-3.499,-3.4907,-3.4699,-3.4462,-3.4282,-3.4149,-3.3951,-3.3505,-3.2956,-3.2425,-3.1782,-3.1018,-3.0313,-2.9912,-2.9757,-2.9683,-2.9645,-2.9589,-2.9579,-2.9522,-2.9472,-2.9099,-2.8559,-3.851,-3.8494,-3.8462,-3.8481,-3.851,-3.8541,-3.8541,-3.8525,-3.867,-3.8689,-3.859,-3.8606,-3.8603,-3.8621,-3.859,-3.864,-3.875,-3.8807,-3.8837,-3.8851,-3.8892,-3.8921,-3.8925,-3.8851,-3.8713,-3.8525,-3.843,-3.8415,-3.8446,-3.846,-3.8525,-3.859,-3.8743,-3.8851,-3.8877,-3.9007,-3.9092,-3.9147,-3.9277,-3.9344,-3.9339,-3.9093,-3.8629,-3.809,-3.7586,-3.72,-3.6858,-3.5881,-3.5886,-3.667,-3.623,-3.5479,-3.4885,-3.4528,-3.4245,-3.4161,-3.4086,-3.4179,-3.4431,-3.4032,-3.3788,-3.4069,-3.3683,-3.3367,-3.339,-3.3378,-3.3437,-3.3605,-3.3684,-3.382,-3.4004,-3.4086,-3.4643,-3.5527,-3.6148,-3.647,-3.6315,-3.6047,-3.5873,-3.5915,-3.5926,-3.5877,-3.579,-3.5694,-3.5556,-3.5438,-3.5311,-3.5223,-3.5168,-3.5089,-3.5046,-3.502,-3.4964,-3.4889,-3.4851,-3.4652,-3.4395,-3.4235,-3.4093,-3.3469,-3.2845,-3.2353,-3.1777,-3.0777,-2.994,-2.983,-2.9692,-2.9645,-2.9598,-2.955,-2.9482,-2.9451,-2.9345,-2.8954,-2.8462,-3.8525,-3.851,-3.8525,-3.8525,-3.8544,-3.8658,-3.8624,-3.8541,-3.8713,-3.8765,-3.8719,-3.8747,-3.8773,-3.8795,-3.8716,-3.8735,-3.8807,-3.8851,-3.8877,-3.891,-3.8935,-3.8983,-3.8921,-3.8795,-3.8655,-3.8525,-3.8481,-3.8462,-3.851,-3.8525,-3.8556,-3.8686,-3.8837,-3.8954,-3.9021,-3.9161,-3.9283,-3.938,-3.9426,-3.9464,-3.952,-3.9484,-3.8939,-3.7613,-3.7453,-3.7029,-3.625,-3.5414,-3.5541,-3.6712,-3.6088,-3.5619,-3.5499,-3.4862,-3.4351,-3.4281,-3.4173,-3.4011,-3.3879,-3.3808,-3.3698,-3.3629,-3.3521,-3.3437,-3.3441,-3.3488,-3.3577,-3.3739,-3.382,-3.3921,-3.4136,-3.4221,-3.4421,-3.4655,-3.545,-3.6027,-3.6568,-3.6181,-3.5907,-3.5909,-3.5914,-3.5875,-3.5801,-3.5679,-3.5513,-3.5362,-3.5246,-3.5143,-3.5037,-3.4973,-3.4927,-3.4898,-3.4888,-3.4859,-3.4812,-3.4753,-3.4524,-3.4439,-3.426,-3.3693,-3.2855,-3.2279,-3.1704,-3.0676,-2.9923,-2.9804,-2.9664,-2.9607,-2.9549,-2.9481,-2.9431,-2.937,-2.9153,-2.88,-2.8402,-3.8701,-3.8658,-3.8716,-3.8701,-3.8673,-3.875,-3.8667,-3.8541,-3.8713,-3.8792,-3.8777,-3.8773,-3.8837,-3.8866,-3.8807,-3.8792,-3.8807,-3.8803,-3.8848,-3.891,-3.8925,-3.891,-3.8851,-3.875,-3.8692,-3.8624,-3.8609,-3.8627,-3.8643,-3.8658,-3.8686,-3.8777,-3.8892,-3.9036,-3.9142,-3.9324,-3.9471,-3.9564,-3.9594,-3.9654,-3.9618,-3.918,-3.8745,-3.8401,-3.7781,-3.7061,-3.6255,-3.5353,-3.4952,-3.5262,-3.5133,-3.4961,-3.5036,-3.4645,-3.4386,-3.434,-3.4197,-3.4036,-3.3895,-3.382,-3.3712,-3.3591,-3.3549,-3.353,-3.3559,-3.3633,-3.3684,-3.382,-3.3921,-3.4086,-3.4245,-3.4363,-3.4542,-3.4811,-3.5248,-3.5798,-3.6439,-3.6284,-3.5885,-3.5944,-3.5937,-3.5887,-3.5788,-3.565,-3.5507,-3.5355,-3.5198,-3.5047,-3.4945,-3.4898,-3.4859,-3.483,-3.4819,-3.479,-3.4761,-3.4739,-3.4699,-3.4641,-3.4432,-3.4081,-3.3116,-3.2194,-3.1553,-3.0781,-3.0217,-2.9964,-2.9739,-2.9578,-2.9491,-2.9431,-2.939,-2.9349,-2.9103,-2.8796,-2.8371,-3.8822,-3.8795,-3.884,-3.8837,-3.8822,-3.8818,-3.8773,-3.8695,-3.8788,-3.8833,-3.8837,-3.8822,-3.8851,-3.8877,-3.8792,-3.8765,-3.8765,-3.8792,-3.8807,-3.8792,-3.8807,-3.8807,-3.8777,-3.8753,-3.8707,-3.8707,-3.8707,-3.8707,-3.8707,-3.8719,-3.8747,-3.8803,-3.8964,-3.9101,-3.9232,-3.9439,-3.9575,-3.9654,-3.9724,-3.9804,-3.9769,-3.9443,-3.8755,-3.836,-3.7698,-3.7043,-3.5894,-3.5543,-3.5409,-3.527,-3.4932,-3.4795,-3.5104,-3.4664,-3.4416,-3.4404,-3.4233,-3.4074,-3.3952,-3.3855,-3.3748,-3.3629,-3.3605,-3.3619,-3.3661,-3.3698,-3.3793,-3.397,-3.4092,-3.4209,-3.4363,-3.452,-3.4742,-3.4991,-3.5216,-3.5637,-3.6309,-3.6079,-3.5953,-3.5973,-3.5976,-3.59,-3.5799,-3.5681,-3.5543,-3.5381,-3.5182,-3.5019,-3.4888,-3.4849,-3.4788,-3.4728,-3.4697,-3.4658,-3.4626,-3.4583,-3.4572,-3.4561,-3.4524,-3.421,-3.3435,-3.238,-3.1891,-3.1308,-3.0641,-3.0124,-2.9972,-2.9744,-2.947,-2.9419,-2.9399,-2.932,-2.9111,-2.864,-2.8227,-3.8966,-3.891,-3.8925,-3.8954,-3.8997,-3.8921,-3.8892,-3.8896,-3.8881,-3.8877,-3.8896,-3.8833,-3.8881,-3.8906,-3.8851,-3.875,-3.875,-3.8825,-3.8765,-3.8735,-3.8738,-3.8735,-3.8792,-3.8753,-3.8707,-3.8707,-3.8707,-3.8723,-3.8738,-3.8762,-3.8822,-3.8892,-3.9045,-3.9192,-3.9363,-3.9539,-3.9665,-3.9758,-3.9848,-3.9922,-3.9933,-3.9832,-3.9283,-3.8373,-3.7757,-3.6891,-3.5902,-3.5666,-3.5913,-3.5927,-3.5155,-3.5071,-3.5495,-3.4802,-3.4453,-3.4374,-3.4281,-3.4136,-3.3978,-3.3939,-3.3847,-3.3703,-3.3629,-3.3661,-3.3726,-3.3775,-3.39,-3.4104,-3.421,-3.4293,-3.4484,-3.468,-3.487,-3.5113,-3.5302,-3.545,-3.5614,-3.5772,-3.5911,-3.5978,-3.6013,-3.5929,-3.5836,-3.5729,-3.5612,-3.539,-3.5187,-3.5,-3.486,-3.4769,-3.4676,-3.4572,-3.455,-3.4528,-3.4484,-3.4409,-3.4409,-3.4409,-3.4427,-3.4192,-3.3706,-3.2927,-3.2491,-3.1958,-3.1406,-3.0889,-3.0453,-3.0149,-2.9727,-2.9388,-2.9347,-2.9344,-2.922,-2.8527,-2.7988,-3.9483,-3.891,-3.895,-3.8997,-3.9011,-3.8964,-3.8954,-3.891,-3.8833,-3.8866,-3.8896,-3.8896,-3.895,-3.9027,-3.9007,-3.8993,-3.8906,-3.8877,-3.884,-3.8707,-3.8707,-3.8735,-3.8795,-3.8735,-3.8723,-3.8723,-3.8707,-3.8735,-3.8777,-3.8837,-3.8896,-3.9045,-3.9197,-3.935,-3.9539,-3.9712,-3.9878,-3.9943,-4.0026,-4.0046,-4.0036,-4.0017,-3.978,-3.9164,-3.8195,-3.7174,-3.6296,-3.5687,-3.5378,-3.5192,-3.5001,-3.491,-3.4929,-3.4689,-3.4461,-3.4386,-3.4316,-3.4209,-3.4068,-3.3998,-3.3934,-3.3829,-3.3775,-3.3793,-3.386,-3.3868,-3.3959,-3.4105,-3.4209,-3.4363,-3.4561,-3.4711,-3.4908,-3.5127,-3.5338,-3.5554,-3.5712,-3.5833,-3.5924,-3.5988,-3.5994,-3.5968,-3.588,-3.5767,-3.5605,-3.5392,-3.52,-3.499,-3.4841,-3.471,-3.4604,-3.4506,-3.4431,-3.442,-3.4363,-3.4316,-3.4305,-3.4293,-3.4293,-3.4286,-3.3801,-3.3485,-3.3064,-3.2667,-3.2259,-3.1702,-3.1062,-3.0575,-3.0182,-2.9776,-2.9334,-2.9323,-2.9106,-2.8402,-2.7909,-3.9816,-3.9068,-3.9152,-3.9193,-3.9207,-3.911,-3.9017,-3.8979,-3.8848,-3.8851,-3.8896,-3.8881,-3.895,-3.9087,-3.9059,-3.9017,-3.9036,-3.8935,-3.8851,-3.8747,-3.8732,-3.878,-3.8807,-3.8822,-3.8855,-3.8855,-3.8855,-3.8881,-3.8935,-3.9007,-3.9115,-3.921,-3.935,-3.9526,-3.967,-3.9845,-3.9962,-4.0036,-4.0127,-4.0157,-4.0147,-4.0127,-3.9546,-3.8947,-3.7793,-3.675,-3.5914,-3.5529,-3.5234,-3.5063,-3.4973,-3.4869,-3.4708,-3.458,-3.4484,-3.4397,-3.4328,-3.4233,-3.4124,-3.4061,-3.3998,-3.3908,-3.3921,-3.3926,-3.3978,-3.3998,-3.4111,-3.4197,-3.4335,-3.4484,-3.4676,-3.4811,-3.4982,-3.5181,-3.5399,-3.559,-3.5768,-3.5862,-3.5909,-3.5971,-3.6014,-3.597,-3.5888,-3.5801,-3.5636,-3.5432,-3.5308,-3.5107,-3.4851,-3.472,-3.4583,-3.4484,-3.4386,-3.4328,-3.4269,-3.4221,-3.4209,-3.4197,-3.4185,-3.4209,-3.4029,-3.3824,-3.3662,-3.3306,-3.2929,-3.2221,-3.1629,-3.1142,-3.0466,-2.9744,-2.9331,-2.9312,-2.9169,-2.879,-2.8307,-4.008,-3.9242,-3.936,-3.9444,-3.9457,-3.9202,-3.9087,-3.9064,-3.8881,-3.8822,-3.8881,-3.8833,-3.8964,-3.9073,-3.912,-3.9106,-3.9092,-3.9007,-3.8906,-3.8837,-3.8837,-3.8866,-3.8877,-3.8964,-3.9036,-3.9068,-3.9007,-3.905,-3.9115,-3.9219,-3.9251,-3.9356,-3.9514,-3.9647,-3.9781,-3.9911,-4.0007,-4.0118,-4.0186,-4.0215,-4.0215,-4.0158,-3.9404,-3.8032,-3.7611,-3.6555,-3.5793,-3.5453,-3.5411,-3.516,-3.5105,-3.4963,-3.479,-3.4623,-3.4495,-3.442,-3.4351,-3.4257,-3.4161,-3.4111,-3.4074,-3.3941,-3.4018,-3.4043,-3.4049,-3.4148,-3.4264,-3.4335,-3.4416,-3.4539,-3.4778,-3.4879,-3.506,-3.528,-3.5476,-3.5665,-3.5802,-3.5858,-3.5921,-3.5995,-3.5995,-3.5972,-3.5917,-3.582,-3.5645,-3.5482,-3.5348,-3.5185,-3.4917,-3.468,-3.4539,-3.4416,-3.4305,-3.4227,-3.4185,-3.4136,-3.4124,-3.4111,-3.4068,-3.4111,-3.4136,-3.4006,-3.3864,-3.3924,-3.355,-3.2832,-3.2102,-3.147,-3.0713,-2.9783,-2.9299,-2.9229,-2.9207,-2.9167,-2.8658,-4.012,-3.9373,-3.9388,-3.94,-3.9373,-3.917,-3.9092,-3.8997,-3.8807,-3.8765,-3.8818,-3.8906,-3.9017,-3.9188,-3.9373,-3.9346,-3.9183,-3.9101,-3.8989,-3.8906,-3.8939,-3.8979,-3.9003,-3.9115,-3.9229,-3.9301,-3.9215,-3.9156,-3.9197,-3.9192,-3.9356,-3.9464,-3.9618,-3.9747,-3.9878,-4.0026,-4.0118,-4.0177,-4.0244,-4.0263,-4.0262,-4.0091,-3.9423,-3.8014,-3.8069,-3.7328,-3.5993,-3.5932,-3.5965,-3.5278,-3.5141,-3.5018,-3.4889,-3.478,-3.4666,-3.4517,-3.4409,-3.4316,-3.4221,-3.4185,-3.4173,-3.4161,-3.4185,-3.4203,-3.4215,-3.425,-3.434,-3.4393,-3.4439,-3.4528,-3.4759,-3.4794,-3.502,-3.5256,-3.5434,-3.5669,-3.5824,-3.5904,-3.5941,-3.5987,-3.5996,-3.5991,-3.5955,-3.5924,-3.5847,-3.5589,-3.5336,-3.513,-3.486,-3.4609,-3.4416,-3.4311,-3.4209,-3.4161,-3.4111,-3.4061,-3.4023,-3.4011,-3.3979,-3.3998,-3.4023,-3.4023,-3.3993,-3.3963,-3.3877,-3.3426,-3.2667,-3.1866,-3.103,-3.0138,-2.9636,-2.9171,-2.9141,-2.9082,-2.8754,-4.0258,-3.9521,-3.9546,-3.9502,-3.9407,-3.9224,-3.9087,-3.8979,-3.8866,-3.884,-3.8881,-3.895,-3.9106,-3.9288,-3.9386,-3.9386,-3.9301,-3.9237,-3.9101,-3.9007,-3.905,-3.9064,-3.9087,-3.9242,-3.9373,-3.9425,-3.9367,-3.9393,-3.9458,-3.9458,-3.9508,-3.9649,-3.9777,-3.9848,-3.9954,-4.0067,-4.0196,-4.0253,-4.0301,-4.031,-4.0308,-4.0196,-3.9423,-3.8804,-3.8631,-3.8093,-3.7045,-3.6388,-3.6361,-3.5881,-3.5411,-3.5136,-3.5011,-3.4898,-3.4751,-3.4583,-3.4495,-3.4397,-3.4316,-3.4305,-3.4311,-3.4305,-3.4328,-3.434,-3.4363,-3.4397,-3.4443,-3.4484,-3.4506,-3.4564,-3.4762,-3.4566,-3.4677,-3.5166,-3.5273,-3.541,-3.5738,-3.591,-3.6019,-3.6171,-3.6581,-3.6569,-3.6023,-3.6009,-3.603,-3.5784,-3.5369,-3.5092,-3.4851,-3.4709,-3.4514,-3.4221,-3.4167,-3.4185,-3.4171,-3.4175,-3.4142,-3.4073,-3.3992,-3.3992,-3.3881,-3.3868,-3.3855,-3.3837,-3.3729,-3.3664,-3.2958,-3.2034,-3.1266,-3.0494,-2.9835,-2.93,-2.914,-2.8941,-2.8698,-4.0263,-3.963,-3.9668,-3.9601,-3.9464,-3.9277,-3.912,-3.8993,-3.8921,-3.8925,-3.895,-3.9036,-3.9207,-3.9378,-3.9418,-3.9386,-3.9354,-3.9304,-3.9215,-3.912,-3.9188,-3.9188,-3.9193,-3.9333,-3.9495,-3.9438,-3.954,-3.9657,-3.9657,-3.9656,-3.972,-3.9747,-3.9826,-3.9954,-4.0046,-4.0108,-4.0187,-4.0272,-4.0309,-4.029,-4.0272,-4.0215,-3.9776,-3.9052,-3.9089,-3.8819,-3.764,-3.7185,-3.6752,-3.6288,-3.5731,-3.5176,-3.5082,-3.4973,-3.484,-3.4687,-3.4602,-3.4506,-3.4461,-3.4473,-3.4461,-3.445,-3.4517,-3.4517,-3.4495,-3.4539,-3.4594,-3.4612,-3.4623,-3.4668,-3.4746,-3.4402,-3.4615,-3.5066,-3.5146,-3.5071,-3.5734,-3.6148,-3.6422,-3.6738,-3.7261,-3.701,-3.6326,-3.6384,-3.646,-3.5963,-3.5575,-3.5236,-3.5021,-3.5007,-3.4787,-3.4321,-3.4154,-3.4214,-3.4278,-3.4378,-3.4361,-3.4353,-3.4225,-3.4133,-3.3913,-3.3694,-3.3698,-3.3684,-3.3762,-3.359,-3.29,-3.2324,-3.1667,-3.0918,-2.9989,-2.9388,-2.9154,-2.9058,-2.89,-3.9841,-3.9689,-3.9708,-3.9594,-3.9401,-3.9205,-3.9073,-3.9007,-3.8935,-3.8964,-3.9073,-3.9192,-3.9335,-3.9438,-3.9482,-3.9386,-3.9296,-3.9328,-3.9283,-3.9183,-3.9341,-3.9386,-3.936,-3.9502,-3.9514,-3.9502,-3.9602,-3.9681,-3.9729,-3.9722,-3.9715,-3.9766,-3.9867,-3.9943,-4.0038,-4.0157,-4.0224,-4.0298,-4.0326,-4.0281,-4.0225,-4.0244,-3.9729,-3.9376,-3.9462,-3.9413,-3.8171,-3.7679,-3.7275,-3.6556,-3.5782,-3.5278,-3.511,-3.5029,-3.4965,-3.4859,-3.4758,-3.4645,-3.4612,-3.4612,-3.4612,-3.4602,-3.4676,-3.4697,-3.4676,-3.4655,-3.4647,-3.4612,-3.4655,-3.474,-3.4879,-3.4901,-3.5162,-3.5333,-3.5387,-3.5538,-3.6017,-3.6537,-3.6797,-3.7398,-3.7955,-3.7177,-3.6382,-3.6663,-3.6844,-3.6273,-3.5775,-3.5416,-3.5191,-3.5143,-3.5106,-3.4662,-3.4727,-3.4821,-3.487,-3.4899,-3.4683,-3.4678,-3.4479,-3.4265,-3.3836,-3.3549,-3.352,-3.3549,-3.3633,-3.3671,-3.3259,-3.2713,-3.2124,-3.1385,-3.052,-2.9761,-2.9108,-2.9053,-2.9017,-3.9804,-3.9811,-3.9724,-3.963,-3.9489,-3.9335,-3.9202,-3.9115,-3.9073,-3.9101,-3.917,-3.9315,-3.9399,-3.9444,-3.9444,-3.936,-3.9256,-3.9346,-3.9315,-3.9269,-3.938,-3.9457,-3.9444,-3.9514,-3.9546,-3.9552,-3.9637,-3.9743,-3.9766,-3.9808,-3.98,-3.9834,-3.9943,-4.0065,-4.0078,-4.0177,-4.028,-4.037,-4.0398,-4.0308,-4.0263,-4.0234,-4.0053,-3.9604,-3.9986,-3.9681,-3.9137,-3.8078,-3.7674,-3.7041,-3.6383,-3.5921,-3.5841,-3.5788,-3.5732,-3.5676,-3.5154,-3.4858,-3.4747,-3.4728,-3.4697,-3.4687,-3.4747,-3.4778,-3.4758,-3.4758,-3.4739,-3.4708,-3.4747,-3.483,-3.484,-3.4672,-3.5011,-3.5262,-3.5461,-3.6024,-3.6392,-3.6855,-3.7337,-3.7991,-3.8448,-3.7646,-3.6996,-3.7118,-3.6935,-3.5994,-3.56,-3.5333,-3.5208,-3.5225,-3.5163,-3.5025,-3.5299,-3.5661,-3.569,-3.5716,-3.5166,-3.4998,-3.4685,-3.436,-3.3676,-3.3393,-3.3364,-3.3378,-3.3437,-3.3444,-3.3422,-3.3022,-3.2358,-3.1713,-3.1072,-3.0222,-2.941,-2.9014,-2.8929,-3.9856,-3.9848,-3.9747,-3.9665,-3.9594,-3.9426,-3.9328,-3.9256,-3.9224,-3.9237,-3.9315,-3.9386,-3.9418,-3.9373,-3.936,-3.9275,-3.9175,-3.9333,-3.9301,-3.9315,-3.9399,-3.9482,-3.9495,-3.954,-3.9576,-3.9539,-3.9682,-3.9804,-3.99,-3.9943,-3.9984,-3.9962,-4.0036,-4.0118,-4.0167,-4.0234,-4.0316,-4.0458,-4.0415,-4.0345,-4.0291,-4.0263,-4.0215,-4.0177,-4.0195,-4.0166,-3.9986,-3.8899,-3.8087,-3.7866,-3.6903,-3.6323,-3.6278,-3.5966,-3.5778,-3.5637,-3.5201,-3.4946,-3.4868,-3.4819,-3.4778,-3.4728,-3.4728,-3.4759,-3.4781,-3.48,-3.4819,-3.479,-3.4829,-3.4927,-3.495,-3.4649,-3.5001,-3.5258,-3.5344,-3.6116,-3.6854,-3.7398,-3.8007,-3.8695,-3.8914,-3.8412,-3.7915,-3.7764,-3.7107,-3.5877,-3.5379,-3.5252,-3.5299,-3.5388,-3.5343,-3.533,-3.5767,-3.62,-3.6468,-3.6325,-3.5823,-3.5369,-3.5036,-3.4383,-3.3647,-3.3283,-3.318,-3.3214,-3.3229,-3.3241,-3.322,-3.2932,-3.2565,-3.1743,-3.0971,-3.0381,-2.9759,-2.9259,-2.8888,-3.9848,-3.9804,-3.9743,-3.9665,-3.9587,-3.9389,-3.9349,-3.938,-3.933,-3.9356,-3.9451,-3.9482,-3.9444,-3.9373,-3.9275,-3.9161,-3.9036,-3.9293,-3.9288,-3.9322,-3.9432,-3.9502,-3.9533,-3.9577,-3.9656,-3.9642,-3.9781,-3.9911,-4.0026,-4.0099,-4.0108,-4.0098,-4.0128,-4.0148,-4.0215,-4.0289,-4.0351,-4.0458,-4.0396,-4.0325,-4.0308,-4.0291,-4.0244,-4.0234,-4.0244,-4.0253,-4.0167,-3.9252,-3.8726,-3.8667,-3.7408,-3.6646,-3.6544,-3.6001,-3.5709,-3.5494,-3.5229,-3.5002,-3.4917,-3.4878,-3.4819,-3.4758,-3.4708,-3.473,-3.4782,-3.4851,-3.4851,-3.485,-3.4898,-3.4974,-3.5115,-3.5235,-3.5315,-3.5456,-3.5663,-3.6267,-3.7109,-3.8029,-3.8649,-3.9392,-3.9433,-3.9042,-3.8465,-3.8249,-3.7142,-3.5892,-3.5798,-3.5695,-3.5655,-3.5702,-3.5656,-3.5739,-3.6145,-3.6629,-3.7134,-3.6985,-3.6687,-3.6056,-3.5514,-3.4555,-3.3546,-3.3304,-3.3075,-3.3011,-3.3026,-3.3026,-3.3039,-3.2931,-3.2552,-3.1624,-3.0891,-3.0372,-2.9661,-2.8986,-2.8804,-3.9856,-3.9848,-3.9781,-3.9724,-3.9635,-3.9489,-3.9477,-3.9564,-3.9521,-3.9477,-3.9502,-3.9464,-3.9386,-3.9269,-3.9183,-3.9115,-3.9092,-3.9147,-3.9229,-3.9283,-3.9349,-3.9451,-3.9514,-3.9595,-3.9618,-3.9735,-3.9881,-4.0019,-4.0129,-4.0215,-4.0272,-4.0272,-4.0244,-4.0234,-4.0298,-4.0368,-4.0427,-4.0466,-4.0449,-4.0396,-4.0307,-4.0308,-4.0262,-4.0206,-4.0225,-4.0215,-4.0072,-3.9376,-3.9079,-3.8677,-3.7789,-3.7294,-3.696,-3.6283,-3.584,-3.5597,-3.5321,-3.5057,-3.4936,-3.4908,-3.4849,-3.4788,-3.4718,-3.472,-3.4793,-3.4889,-3.4955,-3.4992,-3.5011,-3.5073,-3.5203,-3.5364,-3.551,-3.5713,-3.6075,-3.659,-3.7381,-3.8365,-3.9282,-4.0019,-4.0094,-3.9898,-3.9252,-3.8621,-3.7267,-3.5983,-3.6064,-3.6119,-3.5994,-3.6223,-3.6295,-3.6491,-3.6912,-3.7253,-3.775,-3.7705,-3.7549,-3.6737,-3.591,-3.4859,-3.3793,-3.3221,-3.3013,-3.2934,-3.2836,-3.2852,-3.2898,-3.3008,-3.2682,-3.2054,-3.1257,-3.0472,-2.9682,-2.8814,-2.8675,-3.9837,-3.9867,-3.9815,-3.9781,-3.9712,-3.9642,-3.9654,-3.9712,-3.9689,-3.9587,-3.9502,-3.9439,-3.9335,-3.921,-3.9156,-3.9087,-3.9087,-3.9115,-3.9215,-3.9269,-3.9341,-3.9419,-3.9533,-3.9613,-3.9689,-3.9826,-3.9986,-4.0118,-4.0215,-4.0298,-4.0344,-4.0362,-4.0379,-4.037,-4.0396,-4.046,-4.0508,-4.0531,-4.0515,-4.0491,-4.0386,-4.0342,-4.0298,-4.0234,-4.0263,-4.0244,-4.0015,-3.9489,-3.9222,-3.8858,-3.8237,-3.7559,-3.7215,-3.6825,-3.619,-3.584,-3.5536,-3.5127,-3.5001,-3.487,-3.484,-3.4749,-3.4708,-3.474,-3.4821,-3.4936,-3.5037,-3.5108,-3.5145,-3.5201,-3.5326,-3.5451,-3.5586,-3.5787,-3.6352,-3.6914,-3.7839,-3.8807,-3.9763,-4.0598,-4.0373,-3.9921,-3.9277,-3.8471,-3.7398,-3.626,-3.6114,-3.6096,-3.599,-3.6427,-3.7234,-3.7477,-3.7838,-3.8123,-3.838,-3.8097,-3.7723,-3.6803,-3.5989,-3.5135,-3.4211,-3.3534,-3.2969,-3.2854,-3.2755,-3.2706,-3.2721,-3.2802,-3.28,-3.2697,-3.162,-3.035,-2.9756,-2.8967,-2.8621,-3.9848,-3.9804,-3.9804,-3.9804,-3.9804,-3.9804,-3.9792,-3.9815,-3.9792,-3.9682,-3.9539,-3.9489,-3.9376,-3.9251,-3.921,-3.9161,-3.9106,-3.9156,-3.9242,-3.9301,-3.9341,-3.9489,-3.957,-3.9649,-3.9724,-3.9892,-4.0048,-4.0206,-4.0298,-4.037,-4.0407,-4.0432,-4.0438,-4.0474,-4.0491,-4.0562,-4.058,-4.058,-4.0592,-4.0543,-4.0476,-4.043,-4.037,-4.0308,-4.0281,-4.0281,-4.0108,-3.9441,-3.9335,-3.9639,-3.7787,-3.7196,-3.7502,-3.6165,-3.5463,-3.5314,-3.528,-3.5176,-3.5096,-3.486,-3.4769,-3.4739,-3.4718,-3.4759,-3.4889,-3.5019,-3.5132,-3.5193,-3.5242,-3.5327,-3.5417,-3.5525,-3.5659,-3.6131,-3.6723,-3.742,-3.8348,-3.9337,-4.0299,-4.076,-4.0136,-3.9467,-3.8883,-3.8202,-3.734,-3.6602,-3.6283,-3.6166,-3.6225,-3.6842,-3.7839,-3.7974,-3.8258,-3.8295,-3.8368,-3.8322,-3.7861,-3.6938,-3.6049,-3.5214,-3.4343,-3.351,-3.3071,-3.2811,-3.2658,-3.2574,-3.2557,-3.2556,-3.261,-3.2496,-3.124,-3.0161,-2.9606,-2.9183,-2.8837,-3.9889,-3.9867,-3.9867,-3.99,-3.9914,-3.987,-3.9892,-3.9965,-3.99,-3.9762,-3.9623,-3.9514,-3.9433,-3.933,-3.9251,-3.9229,-3.9261,-3.9188,-3.9242,-3.938,-3.9367,-3.9432,-3.9546,-3.9649,-3.9735,-3.9911,-4.0098,-4.0272,-4.037,-4.0413,-4.0455,-4.0487,-4.0487,-4.0484,-4.0492,-4.0523,-4.0531,-4.0531,-4.0543,-4.0527,-4.0507,-4.0455,-4.0413,-4.0335,-4.0317,-4.0326,-4.0274,-3.9447,-3.9409,-3.9806,-3.7791,-3.6918,-3.7205,-3.605,-3.525,-3.5215,-3.5248,-3.5277,-3.5207,-3.5062,-3.4879,-3.4792,-3.4769,-3.479,-3.4802,-3.5,-3.5122,-3.5251,-3.5345,-3.5424,-3.5519,-3.5614,-3.5889,-3.6709,-3.7357,-3.804,-3.8898,-3.9905,-4.0781,-4.0796,-4.0427,-4.0134,-3.9658,-3.8858,-3.7931,-3.7526,-3.7278,-3.7197,-3.7237,-3.7787,-3.8538,-3.834,-3.8368,-3.8328,-3.8285,-3.8023,-3.7796,-3.7051,-3.6179,-3.5361,-3.4456,-3.3608,-3.3082,-3.2803,-3.2596,-3.2422,-3.2387,-3.2403,-3.2483,-3.2111,-3.1318,-3.0513,-2.9952,-2.9507,-2.9067,-3.99,-3.99,-3.9922,-3.9965,-4.0026,-3.9994,-4.0007,-4.0067,-3.9965,-3.9848,-3.9705,-3.9575,-3.9477,-3.942,-3.9356,-3.9309,-3.9405,-3.9315,-3.9328,-3.9464,-3.9399,-3.9464,-3.9558,-3.9661,-3.9789,-3.9933,-4.0128,-4.0309,-4.0388,-4.0474,-4.0495,-4.05,-4.05,-4.05,-4.0508,-4.0504,-4.0539,-4.0546,-4.0554,-4.0546,-4.0527,-4.0507,-4.0474,-4.0396,-4.037,-4.037,-4.0081,-3.9604,-3.9023,-3.8988,-3.7975,-3.6589,-3.6608,-3.619,-3.5313,-3.5256,-3.5324,-3.5357,-3.5345,-3.5247,-3.5047,-3.4879,-3.4879,-3.484,-3.4851,-3.5027,-3.5176,-3.5299,-3.5418,-3.5531,-3.5649,-3.575,-3.6242,-3.7035,-3.7831,-3.8499,-3.9273,-4.0295,-4.0597,-4.0648,-4.0519,-4.0381,-4.0307,-3.9595,-3.8726,-3.8508,-3.8315,-3.8244,-3.8141,-3.853,-3.8818,-3.8569,-3.8271,-3.8122,-3.7861,-3.7526,-3.73,-3.7073,-3.6235,-3.5293,-3.4798,-3.4002,-3.3387,-3.2808,-3.2564,-3.2354,-3.2267,-3.2266,-3.2368,-3.243,-3.222,-3.1383,-3.0438,-2.984,-2.9339,-3.99,-3.99,-3.9965,-4.0036,-4.0096,-4.0106,-4.0106,-4.0106,-4.0036,-3.9911,-3.9705,-3.977,-3.9658,-3.9477,-3.9489,-3.9471,-3.9419,-3.9393,-3.9451,-3.9476,-3.9476,-3.9552,-3.9631,-3.9743,-3.9856,-3.9996,-4.0158,-4.0344,-4.0405,-4.0484,-4.0531,-4.0516,-4.0519,-4.0519,-4.0535,-4.0543,-4.0577,-4.0546,-4.0561,-4.0561,-4.055,-4.0516,-4.0503,-4.0455,-4.0441,-4.0334,-3.9863,-3.904,-3.8692,-3.8074,-3.6869,-3.6378,-3.6056,-3.5756,-3.5473,-3.5339,-3.5429,-3.5457,-3.5477,-3.5371,-3.5268,-3.5111,-3.5051,-3.5028,-3.5067,-3.5212,-3.5446,-3.5462,-3.5532,-3.5674,-3.5786,-3.6096,-3.6411,-3.7253,-3.8123,-3.8857,-3.9608,-4.0124,-4.0296,-4.0272,-4.0031,-3.9971,-4.0172,-3.9735,-3.9347,-3.9257,-3.9004,-3.8723,-3.8652,-3.865,-3.8811,-3.8556,-3.8221,-3.7842,-3.7526,-3.7246,-3.6875,-3.6664,-3.5934,-3.51,-3.4711,-3.4394,-3.3829,-3.3231,-3.2617,-3.2301,-3.2125,-3.2144,-3.2266,-3.2315,-3.2428,-3.1827,-3.0773,-3.012,-2.9619,-3.9859,-3.9837,-3.9954,-4.0046,-4.0106,-4.0157,-4.0147,-4.0087,-4.0086,-3.9994,-3.9856,-3.9815,-3.977,-3.9766,-3.967,-3.9623,-3.9563,-3.9533,-3.9552,-3.957,-3.9552,-3.9618,-3.9712,-3.9845,-3.9954,-4.0109,-4.0262,-4.0402,-4.0476,-4.0542,-4.0583,-4.0573,-4.0569,-4.0554,-4.0531,-4.0534,-4.0519,-4.0523,-4.0546,-4.0546,-4.0539,-4.0504,-4.05,-4.0484,-4.0499,-4.0276,-3.9504,-3.8604,-3.8262,-3.7815,-3.6358,-3.5791,-3.6503,-3.5837,-3.532,-3.5383,-3.545,-3.5514,-3.5552,-3.554,-3.5457,-3.5378,-3.5342,-3.5157,-3.524,-3.5482,-3.5741,-3.563,-3.5789,-3.6023,-3.6266,-3.6568,-3.7129,-3.8023,-3.8803,-3.944,-4.0034,-4.0,-4.017,-4.02,-3.996,-4.005,-4.0226,-4.0072,-3.9736,-3.9775,-3.9645,-3.9289,-3.9027,-3.8989,-3.8851,-3.86,-3.8243,-3.7865,-3.7425,-3.7091,-3.6646,-3.6202,-3.5491,-3.5031,-3.4836,-3.4517,-3.4146,-3.3493,-3.2668,-3.2193,-3.191,-3.1983,-3.2126,-3.2318,-3.2364,-3.1785,-3.1179,-3.0493,-2.9808,-3.9867,-3.981,-3.9572,-3.9552,-3.969,-4.0072,-4.0205,-4.0117,-4.0067,-4.0005,-3.99,-3.987,-3.987,-3.9878,-3.9804,-3.977,-3.9717,-3.9642,-3.9649,-3.9677,-3.9635,-3.9705,-3.9826,-3.9943,-4.0057,-4.0206,-4.0344,-4.0452,-4.0546,-4.0607,-4.0635,-4.0631,-4.0629,-4.0569,-4.0503,-4.0491,-4.0482,-4.0487,-4.0511,-4.05,-4.0496,-4.0504,-4.0531,-4.0504,-4.0527,-4.0057,-3.9287,-3.8385,-3.7911,-3.7485,-3.5984,-3.5624,-3.6147,-3.5616,-3.5323,-3.5393,-3.5483,-3.5552,-3.5575,-3.5612,-3.5581,-3.5623,-3.572,-3.5652,-3.5457,-3.5514,-3.5556,-3.556,-3.6074,-3.6494,-3.6768,-3.7162,-3.8067,-3.8964,-3.9524,-4.0084,-4.009,-3.9988,-4.0073,-4.0196,-4.0247,-4.0338,-4.0314,-4.0196,-4.0057,-3.9927,-3.9777,-3.9548,-3.9258,-3.9077,-3.8913,-3.8695,-3.8293,-3.7923,-3.7446,-3.6843,-3.6113,-3.5616,-3.5208,-3.4854,-3.4835,-3.4814,-3.46,-3.3665,-3.2542,-3.2171,-3.1854,-3.1892,-3.2001,-3.2179,-3.2248,-3.1823,-3.128,-3.0706,-3.0009,-3.9769,-3.9681,-3.8955,-3.8764,-3.9042,-3.9805,-4.0139,-4.0078,-3.9943,-3.9861,-3.9781,-3.9872,-3.9777,-3.9699,-3.9829,-3.9881,-3.9837,-3.977,-3.9758,-3.9815,-3.9826,-3.987,-3.9956,-4.0057,-4.0177,-4.0243,-4.0368,-4.0523,-4.0605,-4.0668,-4.0707,-4.0681,-4.0633,-4.0583,-4.0539,-4.0487,-4.0499,-4.0523,-4.0531,-4.0519,-4.0531,-4.0546,-4.0573,-4.0527,-4.0434,-4.0154,-3.9244,-3.8428,-3.766,-3.6779,-3.6085,-3.5545,-3.5545,-3.5532,-3.542,-3.5409,-3.554,-3.5575,-3.5615,-3.5637,-3.5632,-3.5844,-3.6222,-3.5957,-3.5664,-3.5779,-3.5871,-3.6003,-3.6471,-3.7007,-3.7342,-3.8029,-3.8911,-3.9492,-3.9975,-4.0418,-4.0566,-4.0318,-4.0026,-4.0147,-4.0251,-4.0318,-4.0307,-4.0167,-4.0067,-3.9975,-3.9826,-3.9642,-3.9471,-3.9224,-3.8989,-3.8788,-3.8412,-3.794,-3.7339,-3.661,-3.5491,-3.4924,-3.4889,-3.4976,-3.5167,-3.5162,-3.5085,-3.3904,-3.2641,-3.2187,-3.1924,-3.1908,-3.191,-3.1984,-3.1987,-3.1812,-3.1371,-3.0914,-3.0171,-3.9467,-3.8798,-3.8124,-3.8261,-3.8946,-3.9212,-3.9662,-4.0081,-3.9442,-3.9126,-3.9095,-3.9136,-3.9137,-3.9165,-3.9869,-4.0038,-3.9889,-3.9895,-3.9911,-3.9943,-3.9975,-4.0058,-4.0119,-4.0187,-4.0289,-4.0413,-4.0519,-4.0612,-4.0707,-4.0769,-4.0787,-4.0776,-4.0707,-4.0648,-4.0586,-4.0539,-4.0569,-4.0577,-4.0558,-4.0565,-4.0569,-4.0569,-4.0576,-4.0564,-4.0509,-3.9781,-3.8936,-3.8241,-3.7159,-3.6119,-3.574,-3.5547,-3.5586,-3.556,-3.5515,-3.5483,-3.5589,-3.5615,-3.5648,-3.5679,-3.5699,-3.5674,-3.5839,-3.5724,-3.5779,-3.6176,-3.644,-3.6568,-3.6927,-3.7458,-3.8111,-3.8916,-3.9615,-4.0019,-4.0366,-4.0695,-4.0981,-4.0555,-4.0097,-4.0113,-4.02,-4.0227,-4.0223,-4.0158,-4.0068,-3.9954,-3.9792,-3.9654,-3.9545,-3.9324,-3.9059,-3.8833,-3.8481,-3.8006,-3.739,-3.6682,-3.5722,-3.5403,-3.5488,-3.5537,-3.5551,-3.5364,-3.5124,-3.3913,-3.2844,-3.2511,-3.2181,-3.1887,-3.189,-3.1892,-3.1894,-3.1775,-3.169,-3.1321,-3.043,-3.9031,-3.8529,-3.7918,-3.8137,-3.8879,-3.8956,-3.9424,-3.9862,-3.889,-3.8318,-3.8375,-3.8652,-3.8718,-3.8709,-3.9624,-3.99,-3.9755,-3.9954,-4.004,-4.0089,-4.0128,-4.0234,-4.0289,-4.0323,-4.0383,-4.0511,-4.0605,-4.0707,-4.0792,-4.0826,-4.0851,-4.0834,-4.0767,-4.0706,-4.0642,-4.0647,-4.0639,-4.0658,-4.0612,-4.0619,-4.0633,-4.0633,-4.0605,-4.0605,-4.0374,-3.9608,-3.884,-3.8164,-3.7313,-3.6203,-3.5586,-3.5541,-3.5573,-3.5579,-3.5554,-3.5547,-3.5581,-3.5639,-3.5659,-3.5718,-3.5773,-3.5727,-3.5684,-3.5667,-3.5679,-3.6026,-3.6367,-3.6602,-3.7472,-3.8077,-3.8948,-3.98,-4.0256,-4.0662,-4.0757,-4.0943,-4.0938,-4.0689,-4.0359,-4.0235,-4.0257,-4.0183,-4.0158,-4.0048,-3.9975,-3.9922,-3.9789,-3.9642,-3.9545,-3.9389,-3.9142,-3.8877,-3.8544,-3.8254,-3.7784,-3.7058,-3.6203,-3.6058,-3.605,-3.6023,-3.5943,-3.5612,-3.5072,-3.4073,-3.3358,-3.308,-3.2731,-3.2178,-3.181,-3.174,-3.178,-3.1785,-3.172,-3.1601,-3.0905,-3.8618,-3.8474,-3.7804,-3.8088,-3.8861,-3.8918,-3.9385,-3.9804,-3.8566,-3.7927,-3.8013,-3.867,-3.8393,-3.8498,-3.9213,-3.9271,-3.95,-4.0005,-4.0177,-4.0215,-4.0279,-4.0351,-4.0394,-4.0433,-4.0489,-4.0557,-4.0655,-4.0732,-4.0801,-4.0853,-4.0888,-4.0902,-4.0837,-4.0765,-4.0738,-4.0726,-4.0733,-4.0726,-4.0701,-4.0681,-4.0688,-4.0701,-4.0647,-4.0646,-4.0511,-3.9771,-3.8982,-3.8363,-3.7769,-3.6678,-3.5682,-3.5578,-3.5591,-3.5598,-3.5566,-3.5559,-3.5599,-3.5658,-3.5694,-3.5751,-3.5778,-3.5782,-3.573,-3.5717,-3.5728,-3.5936,-3.628,-3.6826,-3.772,-3.8695,-3.9577,-4.029,-4.0705,-4.0974,-4.1009,-4.1009,-4.0875,-4.0754,-4.0561,-4.0362,-4.026,-4.0168,-4.0039,-3.9954,-3.99,-3.9845,-3.9766,-3.963,-3.9508,-3.9343,-3.9133,-3.8906,-3.8637,-3.8332,-3.8033,-3.7486,-3.672,-3.6537,-3.651,-3.6476,-3.6332,-3.5945,-3.5353,-3.453,-3.3938,-3.3449,-3.2881,-3.2276,-3.1958,-3.1692,-3.1667,-3.1709,-3.1545,-3.1414,-3.1301,-3.8312,-3.7823,-3.7002,-3.7571,-3.8932,-3.902,-3.9461,-4.0034,-3.9259,-3.8826,-3.876,-3.8814,-3.8593,-3.7832,-3.8793,-3.9282,-3.9764,-4.0164,-4.0279,-4.0307,-4.0392,-4.0441,-4.0489,-4.0534,-4.0593,-4.0668,-4.0726,-4.0781,-4.0807,-4.0854,-4.0898,-4.0893,-4.0888,-4.0853,-4.0867,-4.0846,-4.0809,-4.0798,-4.0798,-4.0798,-4.0745,-4.072,-4.0668,-4.0654,-4.0615,-3.9988,-3.9444,-3.9218,-3.8173,-3.6999,-3.5964,-3.5705,-3.5608,-3.5616,-3.5584,-3.5583,-3.5635,-3.5658,-3.5718,-3.5773,-3.5799,-3.5807,-3.5788,-3.5788,-3.5877,-3.6063,-3.6355,-3.6559,-3.7508,-3.8702,-3.9605,-4.0264,-4.075,-4.0781,-4.081,-4.0816,-4.0742,-4.067,-4.0545,-4.0372,-4.0233,-4.009,-3.9924,-3.9837,-3.9804,-3.9735,-3.9649,-3.9521,-3.9483,-3.9322,-3.912,-3.8921,-3.8716,-3.843,-3.8118,-3.7933,-3.7381,-3.7163,-3.6845,-3.6576,-3.6374,-3.6205,-3.558,-3.4819,-3.4126,-3.3571,-3.2987,-3.2735,-3.2092,-3.1827,-3.1644,-3.156,-3.1408,-3.1302,-3.1216]},{"header":{"parameterUnit":"m.s-1","parameterCategory":1,"la1":31.0,"la2":29.5877,"lo1":-88.7671,"lo2":-86.6584,"dy":0.0162,"dx":0.0185,"nx":115,"ny":88,"refTime":"2024-04-23T00:00:00:Z","depth":0,"parameterNumber":3,"parameterNumberName":"V-component_of_WINDS"},"data":[0.0,0.0,0.0,0.0,0.0,0.0,0.0,0.0,0.0,0.0,0.0,0.0,0.0,0.0,0.0,0.0,0.0,0.0,0.0,0.0,0.0,0.0,0.0,0.0,0.0,0.0,0.0,0.0,0.0,0.0,0.0,0.0,0.0,0.0,0.0,0.0,0.0,0.0,0.0,0.0,0.0,0.0,0.0,0.0,0.0,0.0,0.0,0.0,0.0,0.0,0.0,0.0,0.0,0.0,0.0,0.0,0.0,0.0,0.0,0.0,0.0,0.0,0.0,0.0,0.0,0.0,0.0,0.0,0.0,0.0,0.0,0.0,0.0,0.0,0.0,0.0,0.0,0.0,0.0,0.0,0.0,0.0,0.0,0.0,0.0,0.0,0.0,0.0,0.0,0.0,0.0,0.0,0.0,0.0,0.0,0.0,0.0,0.0,0.0,0.0,0.0,0.0,0.0,0.0,0.0,0.0,0.0,0.0,0.0,0.0,0.0,0.0,0.0,0.0,0.0,0.0,0.0,0.0,0.0,0.0,0.0,0.0,0.0,0.0,0.0,0.0,0.0,0.0,0.0,0.0,0.0,0.0,0.0,0.0,0.0,0.0,0.0,0.0,0.0,0.0,0.0,0.0,0.0,0.0,0.0,0.0,0.0,0.0,0.0,0.0,0.0,0.0,0.0,0.0,0.0,0.0,0.0,0.0,0.0,0.0,0.0,0.0,0.0,0.0,0.0,0.0,0.0,0.0,0.0,0.0,0.0,0.0,0.0,0.0,0.0,0.0,0.0,0.0,0.0,0.0,0.0,0.0,0.0,0.0,0.0,0.0,0.0,0.0,0.0,0.0,0.0,0.0,0.0,0.0,0.0,0.0,0.0,0.0,0.0,0.0,0.0,0.0,0.0,0.0,0.0,0.0,0.0,0.0,0.0,0.0,0.0,0.0,0.0,0.0,0.0,0.0,0.0,0.0,0.0,0.0,0.0,0.0,0.0,0.0,0.0,0.0,0.0,0.0,0.0,0.0,0.0,0.0,0.0,0.0,0.0,0.0,0.0,0.0,0.0,0.0,0.0,0.0,0.0,0.0,0.0,0.0,0.0,0.0,0.0,0.0,0.0,0.0,0.0,0.0,0.0,0.0,0.0,0.0,0.0,0.0,0.0,0.0,0.0,0.0,0.0,0.0,0.0,0.0,0.0,0.0,0.0,0.0,0.0,0.0,0.0,0.0,0.0,0.0,0.0,0.0,0.0,0.0,0.0,0.0,0.0,0.0,0.0,0.0,0.0,0.0,0.0,0.0,0.0,0.0,0.0,0.0,0.0,0.0,0.0,0.0,0.0,0.0,0.0,0.0,0.0,0.0,0.0,0.0,0.0,0.0,0.0,0.0,0.0,0.0,0.0,0.0,0.0,0.0,0.0,0.0,0.0,0.0,0.0,0.0,0.0,0.0,0.0,0.0,0.0,0.0,0.0,0.0,0.0,0.0,0.0,0.0,0.0,0.0,0.0,0.0,0.0,0.0,0.0,0.0,0.0,0.0,0.0,0.0,0.0,0.0,0.0,0.0,0.0,0.0,0.0,0.0,0.0,0.0,0.0,0.0,0.0,0.0,0.0,0.0,0.0,0.0,0.0,0.0,0.0,0.0,0.0,0.0,0.0,0.0,0.0,0.0,0.0,0.0,0.0,0.0,0.0,0.0,0.0,0.0,0.0,0.0,0.0,0.0,0.0,0.0,0.0,0.0,0.0,0.0,0.0,0.0,0.0,0.0,0.0,0.0,0.0,0.0,0.0,0.0,0.0,0.0,0.0,0.0,0.0,0.0,0.0,0.0,0.0,0.0,0.0,0.0,0.0,0.0,0.0,0.0,0.0,0.0,0.0,0.0,0.0,0.0,0.0,0.0,0.0,0.0,0.0,0.0,0.0,0.0,0.0,0.0,0.0,0.0,0.0,0.0,0.0,0.0,0.0,0.0,0.0,0.0,0.0,0.0,0.0,0.0,0.0,0.0,0.0,0.0,0.0,0.0,0.0,0.0,0.0,0.0,0.0,0.0,0.0,0.0,0.0,0.0,0.0,0.0,0.0,0.0,0.0,0.0,0.0,0.0,0.0,0.0,0.0,0.0,0.0,0.0,0.0,0.0,0.0,0.0,0.0,0.0,0.0,0.0,0.0,0.0,0.0,0.0,0.0,0.0,0.0,0.0,0.0,0.0,0.0,0.0,0.0,0.0,0.0,0.0,0.0,0.0,0.0,0.0,0.0,0.0,0.0,0.0,0.0,0.0,0.0,0.0,0.0,0.0,0.0,0.0,0.0,0.0,0.0,0.0,0.0,0.0,0.0,0.0,0.0,0.0,0.0,0.0,0.0,0.0,0.0,0.0,0.0,0.0,0.0,0.0,0.0,0.0,0.0,0.0,0.0,0.0,0.0,0.0,0.0,0.0,0.0,0.0,0.0,0.0,0.0,0.0,0.0,0.0,0.0,0.0,0.0,0.0,0.0,0.0,0.0,0.0,0.0,0.0,0.0,0.0,0.0,0.0,0.0,0.0,0.0,0.0,0.0,0.0,0.0,0.0,0.0,0.0,0.0,0.0,0.0,0.0,0.0,0.0,0.0,0.0,0.0,0.0,0.0,0.0,0.0,0.0,0.0,0.0,0.0,0.0,0.0,0.0,0.0,0.0,0.0,0.0,0.0,0.0,0.0,0.0,0.0,0.0,0.0,0.0,0.0,0.0,0.0,0.0,0.0,0.0,0.0,0.0,0.0,0.0,0.0,0.0,0.0,0.0,0.0,0.0,0.0,0.0,0.0,0.0,0.0,0.0,0.0,0.0,0.0,0.0,0.0,0.0,0.0,0.0,0.0,0.0,0.0,0.0,0.0,0.0,0.0,0.0,0.0,0.0,0.0,0.0,0.0,0.0,0.0,0.0,0.0,0.0,0.0,0.0,0.0,0.0,0.0,0.0,0.0,0.0,0.0,0.0,0.0,0.0,0.0,0.0,0.0,0.0,0.0,0.0,0.0,0.0,0.0,0.0,0.0,0.0,0.0,0.0,0.0,0.0,0.0,0.0,0.0,0.0,0.0,0.0,0.0,0.0,0.0,0.0,0.0,0.0,0.0,0.0,0.0,0.0,0.0,0.0,0.0,0.0,0.0,0.0,0.0,0.0,0.0,0.0,0.0,0.0,0.0,0.0,0.0,0.0,0.0,0.0,0.0,0.0,0.0,0.0,0.0,0.0,0.0,0.0,0.0,0.0,0.0,0.0,0.0,0.0,0.0,0.0,0.0,0.0,0.0,0.0,0.0,0.0,0.0,0.0,0.0,0.0,0.0,0.0,0.0,0.0,0.0,0.0,0.0,0.0,0.0,0.0,0.0,0.0,0.0,0.0,0.0,0.0,0.0,0.0,0.0,0.0,0.0,0.0,0.0,0.0,0.0,0.0,0.0,0.0,0.0,0.0,0.0,0.0,0.0,0.0,0.0,0.0,0.0,0.0,0.0,0.0,0.0,0.0,0.0,0.0,0.0,0.0,0.0,0.0,0.0,0.0,0.0,0.0,0.0,0.0,0.0,0.0,0.0,0.0,0.0,0.0,0.0,0.0,0.0,0.0,0.0,0.0,0.0,0.0,0.0,0.0,0.0,0.0,0.0,0.0,0.0,0.0,0.0,0.0,0.0,0.0,0.0,0.0,0.0,0.0,0.0,0.0,0.0,0.0,0.0,0.0,0.0,0.0,0.0,0.0,0.0,0.0,0.0,0.0,0.0,0.0,0.0,0.0,0.0,0.0,0.0,0.0,0.0,0.0,0.0,0.0,0.0,0.0,0.0,0.0,0.0,0.0,0.0,0.0,0.0,0.0,0.0,0.0,0.0,0.0,0.0,0.0,0.0,0.0,0.0,0.0,0.0,0.0,0.0,0.0,0.0,0.0,0.0,0.0,0.0,0.0,0.0,0.0,0.0,0.0,0.0,0.0,0.0,0.0,0.0,0.0,0.0,0.0,0.0,0.0,0.0,0.0,0.0,0.0,0.0,0.0,0.0,0.0,0.0,0.0,0.0,0.0,0.0,0.0,0.0,0.0,0.0,0.0,0.0,0.0,0.0,0.0,0.0,0.0,0.0,0.0,0.0,0.0,0.0,0.0,0.0,0.0,0.0,0.0,0.0,0.0,0.0,0.0,0.0,0.0,0.0,0.0,0.0,0.0,0.0,0.0,0.0,0.0,0.0,0.0,0.0,0.0,0.0,0.0,0.0,0.0,0.0,0.0,0.0,0.0,0.0,0.0,0.3888,0.0,0.0,0.0,0.0,0.0,0.0,0.0,0.0,0.0,0.0,0.0,0.0,0.0,0.0,0.0,0.0,0.0,0.0,0.0,0.0,0.0,0.0,0.0,0.0,0.0,0.0,0.0,0.0,0.0,0.0,0.0,0.0,0.0,0.0,0.0,0.0,0.0,0.0,0.0,0.0,0.0,0.0,0.0,0.0,0.0,0.0,0.0,0.0,0.0,0.0,0.0,0.0,0.0,0.0,0.0,0.0,0.0,0.0,0.0,0.0,0.0,0.0,0.0,0.0,0.0,0.0,0.0,0.0,0.0,0.0,0.0,0.0,0.0,0.0,0.0,0.0,0.0,0.0,0.0,0.0,0.0,0.0,0.0,0.0,0.0,0.0,0.0,0.0,0.0,0.0,0.0,0.0,0.0,0.0,0.0,0.0,0.0,0.0,0.0,0.0,0.0,0.0,0.0,0.0,0.0,0.0,0.0,0.0,0.0,0.0,0.3835,0.3858,0.4635,0.4658,0.3891,0.0,0.0,0.0,0.0,0.0,0.0,0.0,0.0,0.0,0.0,0.0,0.0,0.0,0.0,0.0,0.0,0.0,0.0,0.0,0.0,0.0,0.0,0.0,0.0,0.0,0.0,0.0,0.0,0.0,0.0,0.0,0.0,0.0,0.0,0.0,0.0,0.0,0.0,0.0,0.0,0.0,0.0,0.0,0.0,0.0,0.0,0.0,0.0,0.0,0.0,0.0,0.0,0.0,0.0,0.0,0.0,0.0,0.0,0.0,0.0,0.0,0.0,0.0,0.0,0.0,0.0,0.0,0.0,0.0,0.0,0.0,0.0,0.0,0.0,0.0,0.0,0.0,0.0,0.0,0.0,0.0,0.0,0.0,0.0,0.0,0.0,0.0,0.0,0.0,0.0,0.0,0.0,0.0,0.0,0.0,0.0,0.0,0.0,0.0,0.0,0.0,0.0,0.0,0.0,0.0,0.0,0.0,0.0,0.0,0.0,0.0,0.0,0.5106,0.5197,0.4723,0.0,0.0,0.0,0.0,0.0,0.0,0.0,0.0,0.0,0.0,0.0,0.0,0.0,0.0,0.0,0.0,0.0,0.0,0.0,0.0,0.0,0.0,0.0,0.0,0.0,0.0,0.0,0.0,0.0,0.0,0.0,0.0,0.0,0.0,0.0,0.0,0.0,0.0,0.0,0.0,0.0,0.0,0.0,0.0,0.0,0.0,0.0,0.0,0.0,0.0,0.0,0.0,0.0,0.0,0.0,0.0,0.0,0.0,0.0,0.0,0.0,0.0,0.0,0.0,0.0,0.0,0.0,0.0,0.0,0.0,0.0,0.0,0.0,0.0,0.0,0.0,0.0,0.0,0.0,0.0,0.0,0.0,0.0,0.0,0.0,0.0,0.0,0.0,0.0,0.0,0.0,0.0,0.0,0.0,0.0,0.0,0.0,0.0,0.0,0.0,0.0,0.0,0.0,0.0,0.0,0.0,0.0,0.0,0.0,0.0,0.4621,0.6104,0.6192,0.0,0.6954,0.0,0.0,0.0,0.0,0.0,0.0,0.0,0.0,0.0,0.0,0.0,0.0,0.0,0.0,0.0,0.0,0.0,0.0,0.0,0.0,0.0,0.0,0.0,0.0,0.0,0.0,0.0,0.0,0.0,0.0,0.0,0.0,0.0,0.0,0.0,0.0,0.0,0.0,0.0,0.0,0.0,0.0,0.0,0.0,0.0,0.0,0.0,0.0,0.0,0.0,0.0,0.0,0.0,0.0,0.0,0.0,0.0,0.0,0.0,0.0,0.0,0.0,0.0,0.0,0.0,0.0,0.0,0.0,0.0,0.0,0.0,0.0,0.0,0.0,0.0,0.0,0.0,0.0,0.0,0.0,0.0,0.0,0.0,0.0,0.0,0.0,0.0,0.0,0.0,0.0,0.0,0.0,0.0,0.0,0.0,0.0,0.0,0.0,0.0,0.0,0.0,0.0,0.0,0.0,0.0,0.0,0.0,0.0,0.0,0.0,0.58,0.7031,0.6643,0.6308,0.0,0.0,0.0,0.0,0.0,0.0,0.0,0.0,0.0,0.0,0.0,0.0,0.0,0.0,0.0,0.0,0.0,0.0,0.0,0.0,0.0,0.0,0.0,0.0,0.0,0.0,0.0,0.0,0.0,0.0,0.0,0.0,0.0,0.0,0.0,0.0,0.0,0.0,0.0,0.0,0.0,0.0,0.0,0.0,0.0,0.0,0.0,0.0,0.0,0.0,0.0,0.0,0.0,0.0,0.0,0.0,0.0,0.0,0.0,0.0,0.0,0.0,0.0,0.0,0.0,0.0,0.0,0.0,0.0,0.0,0.0,0.0,0.0,0.0,0.0,0.0,0.0,0.0,0.0,0.0,0.0,0.0,0.0,0.0,0.0,0.0,0.0,0.0,0.0,0.0,0.0,0.0,0.0,0.0,0.0,0.0,0.0,0.0,0.0,0.0,0.0,0.0,0.0,0.0,0.0,0.0,0.0,0.0,0.0,0.0,0.5313,0.6842,0.7703,0.7069,0.6419,0.589,0.0,0.0,0.0,0.0,0.0,0.0,0.0,0.0,0.0,0.0,0.0,0.0,0.0,0.0,0.0,0.0,0.0,0.0,0.0,0.0,0.0,0.0,0.0,0.0,0.0,0.0,0.0,0.0,0.0,0.0,0.0,0.0,0.0,0.0,0.0,0.0,0.0,0.0,0.0,0.0,0.0,0.0,0.0,0.0,0.0,0.0,0.0,0.0,0.0,0.0,0.0,0.0,0.0,0.0,0.0,0.0,0.0,0.0,0.0,0.0,0.0,0.0,0.0,0.0,0.0,0.0,0.0,0.0,0.0,0.0,0.0,0.0,0.0,0.0,0.0,0.0,0.0,0.0,0.0,0.0,0.0,0.0,0.0,0.0,0.0,0.0,0.0,0.0,0.0,0.0,0.0,0.0,0.0,0.0,0.0,0.0,0.0,0.0,0.0,0.0,0.0,0.0,0.0,0.0,0.0,0.0,0.0,0.0,0.6027,0.6849,0.7605,0.8481,0.7587,0.7211,0.0,0.0,0.0,0.0,0.0,0.0,0.0,0.0,0.0,0.0,0.0,0.0,0.0,0.0,0.0,0.0,0.0,0.0,0.0,0.0,0.0,0.0,0.0,0.0,0.0,0.0,0.0,0.0,0.0,0.0,0.0,0.0,0.0,0.0,0.0,0.0,0.0,0.0,0.0,0.0,0.0,0.0,0.0,0.0,0.0,0.0,0.0,0.0,0.0,0.0,0.0,0.0,0.0,0.0,0.0,0.0,0.0,0.0,0.0,0.0,0.0,0.0,0.0,0.0,0.0,0.0,0.0,0.0,0.0,0.0,0.0,0.0,0.0,0.0,0.0,0.0,0.0,0.0,0.0,0.0,0.0,0.0,0.0,0.0,0.0,0.0,0.0,0.0,0.0,0.0,0.0,0.0,0.0,0.0,0.0,0.0,0.0,0.0,0.0,0.0,0.0,0.0,0.0,0.0,0.0,0.0,0.0,0.0,0.0,0.2909,0.6885,0.8933,0.885,0.8218,0.7903,0.0,0.0,0.0,0.0,0.0,0.0,0.0,0.0,0.0,0.0,0.0,0.0,0.0,0.0,0.0,0.0,0.0,0.0,0.0,0.0,0.0,0.0,0.0,0.0,0.0,0.0,0.0,0.0,0.0,0.0,0.0,0.0,0.0,0.0,0.0,0.0,0.0,0.0,0.0,0.0,0.0,0.0,0.0,0.0,0.0,0.0,0.0,0.0,0.0,0.0,0.0,0.0,0.0,0.0,0.0,0.0,0.0,0.0,0.0,0.0,0.0,0.0,0.0,0.0,0.0,0.0,0.0,0.0,0.0,0.0,0.0,0.0,0.0,0.0,0.0,0.0,0.0,0.0,0.0,0.0,0.0,0.0,0.0,0.0,0.0,0.0,0.0,0.0,0.0,0.0,0.0,0.0,0.0,0.0,0.0,0.0,0.0,0.0,0.0,0.0,0.0,0.0,0.0,0.0,0.0,0.0,0.0,0.0,0.0,0.0524,0.0,0.7654,0.7211,0.7864,0.8213,0.0,0.0,0.0,0.0,0.0,0.0,0.0,0.0,0.0,0.0,0.0,0.0,0.0,0.0,0.0,0.0,0.0,0.0,0.0,0.0,0.0,0.0,0.0,0.0,0.0,0.0,0.0,0.0,0.0,0.0,0.0,0.0,0.0,0.0,0.0,0.0,0.0,0.0,0.0,0.0,0.0,0.0,0.0,0.0,0.0,0.0,0.0,0.0,0.0,0.0,0.0,0.0,0.0,0.0,0.0,0.0,0.0,0.0,0.0,0.0,0.0,0.0,0.0,0.0,0.0,0.0,0.0,0.0,0.0,0.0,0.0,0.0,0.0,0.0,0.0,0.0,0.0,0.0,0.0,0.0,0.0,0.0,0.0,0.0,0.0,0.0,0.0,0.0,0.0,0.0,0.0,0.0,0.0,0.0,0.0,0.0,0.0,0.0,0.0,0.0,0.0,0.0,0.0,0.0,0.0,0.0,0.0,0.0,-0.3052,-0.0527,0.2034,0.3419,0.3402,0.631,0.7971,0.0,0.0,0.0,0.0,0.0,0.0,0.0,0.0,0.0,0.0,0.0,0.0,0.0,0.0,0.0,0.0,0.0,0.0,0.0,0.0,0.0,0.0,0.0,0.0,0.0,0.0,0.0,0.0,0.0,0.0,0.0,0.0,0.0,0.0,0.0,0.0,0.0,0.0,0.0,0.0,0.0,0.0,0.0,0.0,0.0,0.0,0.0,0.0,0.0,0.0,0.0,0.0,0.0,0.0,0.0,0.0,0.0,0.0,0.0,0.0,0.0,0.0,0.0,0.0,0.0,0.0,0.0,0.0,0.0,0.0,0.0,0.0,0.0,0.0,0.0,0.0,0.0,0.0,0.0,0.0,0.0,0.0,0.0,0.0,0.0,0.0,0.0,0.0,0.0,0.0,0.0,0.0,0.0,0.0,0.0,0.0,0.0,0.0,0.0,0.0,0.0,0.0,0.0,0.0,0.0,0.0,0.0,0.0,0.0,-0.4223,-0.284,-0.038,0.3167,0.3519,0.5552,0.0,0.0,0.0,0.0,0.0,0.0,0.0,0.0,0.0,0.0,0.0,0.0,0.0,0.0,0.0,0.0,0.0,0.0,0.0,0.0,0.0,0.0,0.0,0.0,0.0,0.0,0.0,0.0,0.0,0.0,0.0,0.0,0.0,0.0,0.0,0.0,0.0,0.0,0.0,0.0,0.0,0.0,0.0,0.0,0.0,0.0,0.0,0.0,0.0,0.0,0.0,0.0,0.0,0.0,0.0,0.0,0.0,0.0,0.0,0.0,0.0,0.0,0.0,0.0,0.0,0.0,0.0,0.0,0.0,0.0,0.0,0.0,0.0,0.0,0.0,0.0,0.0,0.0,0.0,0.0,0.0,0.0,0.0,0.0,0.0,0.0,0.0,0.0,0.0,0.0,0.0,0.0,0.0,0.0,0.0,0.0,0.0,0.0,0.0,0.0,0.0,0.0,0.0,0.0,0.0,0.0,0.0,0.0,0.0,-1.023,-0.8278,-0.4664,0.0763,0.1158,0.4187,1.0131,0.0,0.0,0.0,0.0,0.0,0.0,0.0,0.0,0.0,0.0,0.0,0.0,0.0,0.0,0.0,0.0,0.0,0.0,0.0,0.0,0.0,0.0,0.0,0.0,0.0,0.0,0.0,0.0,0.0,0.0,0.0,0.0,0.0,0.0,0.0,0.0,0.0,0.0,0.0,0.0,0.0,0.0,0.0,0.0,0.0,0.0,0.0,0.0,0.0,0.0,0.0,0.0,0.0,0.0,0.0,0.0,0.0,0.0,0.0,0.0,0.0,0.0,0.0,0.0,0.0,0.0,0.0,0.0,0.0,0.0,0.0,0.0,0.0,0.0,0.0,0.0,0.0,0.0,0.0,0.0,0.0,0.0,0.0,0.0,0.0,0.0,0.0,0.0,0.0,0.0,0.0,0.0,0.0,0.0,0.0,0.0,0.0,0.0,0.0,0.0,0.0,0.0,0.0,0.0,0.0,0.0,0.0,0.0,-1.7572,-1.4031,-0.9471,-0.3918,-0.1228,0.3297,0.0,0.0,0.0,0.0,0.0,0.0,0.0,0.0,0.0,0.0,0.0,0.0,0.0,0.0,0.0,0.0,0.0,0.0,0.0,0.0,0.0,0.0,0.0,0.0,0.0,0.0,0.0,0.0,0.0,0.0,0.0,0.0,0.0,0.0,0.0,0.0,0.0,0.0,0.0,0.0,0.0,0.0,0.0,0.0,0.0,0.0,0.0,0.0,0.0,0.0,0.0,0.0,0.0,0.0,0.0,0.0,0.0,0.0,0.0,0.0,0.0,0.0,0.0,0.0,0.0,0.0,0.0,0.0,0.0,0.0,0.0,0.0,0.0,0.0,0.0,0.0,0.0,0.0,0.0,0.0,0.0,0.0,0.0,0.0,0.0,0.0,0.0,0.0,0.0,0.0,0.0,0.0,0.0,0.0,0.0,0.0,0.0,0.0,0.0,0.0,0.0,0.0,0.0,0.0,0.0,0.0,0.0,0.0,0.0,-1.76,-1.8417,-1.5704,-0.9326,-0.7441,-0.2609,0.0,0.0,0.0,0.0,0.0,0.0,0.0,0.0,0.0,0.0,0.0,0.0,0.0,0.0,0.0,0.0,0.0,0.0,0.0,0.0,0.0,0.0,0.0,0.0,0.0,0.0,0.0,0.0,0.0,0.0,0.0,0.0,0.0,0.0,0.0,0.0,0.0,0.0,0.0,0.0,0.0,0.0,0.0,0.0,0.0,0.0,0.0,0.0,0.0,0.0,0.0,0.0,0.0,0.0,0.0,0.0,0.0,0.0,0.0,0.0,0.0,0.0,0.0,0.0,0.0,0.0,0.0,0.0,0.0,0.0,0.0,0.0,0.0,0.0,0.0,0.0,0.0,0.0,0.0,0.0,0.0,0.0,0.0,0.0,0.0,0.0,0.0,0.0,0.0,0.0,0.0,0.0,0.0,0.0,0.0,0.0,0.0,0.0,0.0,0.0,0.0,0.0,0.0,0.0,0.0,0.0,0.0,0.0,-1.6338,-1.9231,-2.0735,-1.9064,-1.4062,-1.1503,-0.5601,0.0,0.0,0.0,0.0,0.0,0.0,0.0,0.0,0.0,0.0,0.0,0.0,0.0,0.0,0.0,0.0,0.0,0.0,0.0,0.0,0.0,0.0,0.0,0.0,0.0,0.0,0.0,0.0,0.0,0.0,0.0,0.0,0.0,0.0,0.0,0.0,0.0,0.0,0.0,0.0,0.0,0.0,0.0,0.0,0.0,0.0,0.0,0.0,0.0,0.0,0.0,0.0,0.0,0.0,0.0,0.0,0.0,0.0,0.0,0.0,0.0,0.0,0.0,0.0,0.0,0.0,0.0,0.0,0.0,0.0,0.0,0.0,0.0,0.0,0.0,0.0,0.0,0.0,0.0,0.0,0.0,0.0,0.0,0.0,0.0,0.0,0.0,0.0,0.0,0.0,0.0,0.0,0.0,0.0,0.0,0.0,0.0,0.0,0.0,0.0,0.0,0.0,0.0,0.0,0.0,0.0,0.0,0.0,-1.7161,-2.1248,-2.1501,-2.0388,-1.7931,-1.3843,-0.6966,0.0,0.0,0.0,0.0,0.0,0.0,0.0,0.0,0.0,0.0,0.0,0.0,0.0,0.0,0.0,0.0,0.0,0.0,0.0,0.0,0.0,0.0,0.0,0.0,0.0,0.0,0.0,0.0,0.0,0.0,0.0,0.0,0.0,0.0,0.0,0.0,0.0,0.0,0.0,0.0,0.0,0.0,0.0,0.0,0.0,0.0,0.0,0.0,0.0,0.0,0.0,0.0,0.0,0.0,0.0,0.0,0.0,0.0,0.0,0.0,0.0,0.0,0.0,0.0,0.0,0.0,0.0,0.0,0.0,0.0,0.0,0.0,0.0,0.0,0.0,0.0,0.0,0.0,0.0,0.0,0.0,0.0,0.0,0.0,0.0,0.0,0.0,0.0,0.0,0.0,0.0,0.0,0.0,0.0,0.0,0.0,0.0,0.0,0.0,0.0,0.0,0.0,0.0,0.0,0.0,0.0,0.0,0.0,-1.7036,-2.0305,-2.1124,-2.0418,-1.8092,-1.4619,-0.9492,0.0,0.0,0.0,0.0,0.0,0.0,0.0,0.0,0.0,0.0,0.0,0.0,0.0,0.0,0.0,0.0,0.0,0.0,0.0,0.0,0.0,0.0,0.0,0.0,0.0,0.0,0.0,0.0,0.0,0.0,0.0,0.0,0.0,0.0,0.0,0.0,0.0,0.0,0.0,0.0,0.0,0.0,0.0,0.0,0.0,0.0,0.0,0.0,0.8016,0.0,0.0,0.0,0.0,0.0,0.0,0.0,0.0,0.0,0.0,0.0,0.0,0.0,0.0,0.0,0.0,0.0,0.0,0.0,0.0,0.0,0.0,0.0,0.0,0.0,0.0,0.0,0.0,0.0,0.0,0.0,0.0,0.0,0.0,0.0,0.0,0.0,0.0,0.0,0.0,0.0,0.0,0.0,0.0,0.0,0.0,0.0,0.0,0.0,0.0,0.0,0.0,0.0,0.0,0.0,0.0,0.0,0.0,0.0,-1.8022,-2.0517,-2.0766,-1.9697,-1.728,-1.4291,-1.015,0.0,0.0,0.0,0.0,0.0,0.0,0.0,0.0,0.0,0.0,0.0,0.0,0.0,0.0,0.0,0.0,0.0,0.0,0.0,0.0,0.0,0.0,0.0,0.0,0.0,0.0,0.0,0.0,0.0,0.0,0.0,0.0,0.0,0.0,0.0,0.0,0.0,0.0,0.0,0.0,0.0,0.0,0.0,0.0,0.0,0.0,0.0,0.0,0.0,0.0,0.0,0.0,0.0,0.0,0.0,0.0,0.0,0.0,0.0,0.0,0.0,0.0,0.0,0.0,0.0,0.0,0.0,0.0,0.0,0.0,0.0,0.0,0.0,0.0,0.0,0.0,0.0,0.0,0.0,0.0,0.0,0.0,0.0,0.0,0.0,0.0,0.0,0.0,0.0,0.0,0.0,0.0,0.0,0.0,0.0,0.0,0.0,0.0,0.0,0.0,0.0,0.0,0.0,0.0,0.0,0.0,0.0,-1.6572,-1.8827,-2.0935,-2.04,-1.8861,-1.639,-1.3645,-1.0105,-0.5671,0.0,0.0,0.0,0.0,0.0,0.0,0.0,0.0,0.0,0.0,0.0,0.0,0.0,0.0,0.0,0.0,0.0,0.0,0.0,0.0,0.0,0.0,0.0,0.0,0.0,0.0,0.0,0.0,0.0,0.0,0.0,0.0,0.0,0.0,0.0,0.0,0.0,0.0,0.6344,0.6868,0.0,0.0,0.0,0.0,0.0,0.0,0.0,0.0,0.7976,0.0,0.0,0.0,0.0,0.0,0.0,0.0,0.0,0.0,0.0,0.0,0.0,0.0,0.0,0.0,0.0,0.0,0.0,0.0,0.0,0.0,0.0,0.0,0.0,0.0,0.0,0.0,0.0,0.0,0.0,0.0,0.0,0.0,0.0,0.0,0.0,0.0,0.0,0.0,0.0,0.0,0.0,0.0,0.0,0.0,0.0,0.0,0.0,0.0,0.0,0.0,0.0,0.0,0.0,0.0,0.0,-1.3941,-1.505,-1.7208,-2.0424,-2.0034,-1.8768,-1.6669,-1.3755,-1.0532,-0.6981,0.0,0.0,0.0,0.0,0.0,0.0,0.0,0.0,0.0,0.0,0.0,0.0,0.0,0.0,0.0,0.0,0.0,0.0,0.0,0.0,0.0,0.0,0.0,0.0,0.0,0.0,0.0,0.0,0.0,0.0,0.0,0.0,0.0,0.0,0.0,0.0,0.0,0.0,0.0,0.885,1.0097,0.0,0.0,0.0,0.0,0.0,0.0,0.0,0.0,0.7819,0.0,0.0,0.0,0.0,0.0,0.0,0.0,0.0,0.0,0.0,0.0,0.0,0.0,0.0,0.0,0.0,0.0,0.0,0.0,0.0,0.0,0.0,0.0,0.0,0.0,0.0,0.0,0.0,0.0,0.0,0.0,0.0,0.0,0.0,0.0,0.0,0.0,0.0,0.0,0.0,0.0,0.0,0.0,0.0,0.0,0.0,0.0,0.0,0.0,0.0,0.0,0.0,0.0,0.0,0.0,-1.424,-1.6571,-1.8637,-2.0399,-1.9648,-1.832,-1.6532,-1.3752,-1.0656,0.0,0.0,0.0,0.0,0.0,0.0,0.0,0.0,0.0,0.0,0.0,0.0,0.0,0.0,0.0,0.0,0.0,0.0,0.0,0.0,0.0,0.0,0.0,0.0,0.0,0.0,0.0,0.0,0.0,0.0,0.0,0.0,0.0,0.0,0.0,0.0,0.0,0.0,0.0,0.0,0.6512,0.7562,0.8183,0.0,0.0,0.0,0.0,0.0,0.0,0.7505,0.7547,0.0,0.0,0.0,0.0,0.0,0.0,0.0,0.0,0.0,0.0,0.0,0.0,0.0,0.0,0.0,0.0,0.0,0.0,0.0,0.0,0.0,0.0,0.0,0.0,0.0,0.0,0.0,0.0,0.0,0.0,0.0,0.0,0.0,0.0,0.0,0.0,0.0,0.0,0.0,0.0,0.0,0.0,0.0,0.0,0.0,0.0,0.0,0.0,0.0,0.0,0.0,0.0,0.0,0.0,0.0,-1.4562,-1.7832,-1.985,-2.0355,-1.9256,-1.7829,-1.6213,-1.3784,-1.0729,0.0,0.0,0.0,0.0,0.0,0.0,0.0,0.0,0.0,0.0,0.0,0.0,0.0,0.0,0.0,0.0,0.0,0.0,0.0,0.0,0.0,0.0,0.0,0.0,0.0,0.0,0.0,0.0,0.0,0.0,0.0,0.0,0.0,0.0,0.0,0.0,0.0,0.0,0.0,0.0,0.0,0.5049,0.6705,0.6528,0.0,0.0,0.0,0.0,0.6798,0.7408,0.0,0.0,0.0,0.0,0.0,0.0,0.0,0.0,0.0,0.0,0.0,0.0,0.0,0.0,0.0,0.0,0.0,0.0,0.0,0.0,0.0,0.0,0.0,0.0,0.0,0.0,0.0,0.0,0.0,0.0,0.0,0.0,0.0,0.0,0.0,0.0,0.0,0.0,0.0,0.0,0.0,0.0,0.0,0.0,0.0,0.0,0.0,0.0,0.0,0.0,0.0,0.0,0.0,0.0,0.0,0.0,-1.4056,-1.6244,-1.819,-1.9737,-1.8874,-1.7556,-1.5879,-1.383,-1.0906,0.0,0.0,0.0,0.0,0.0,0.0,0.0,0.0,0.0,0.0,0.0,0.0,0.0,0.0,0.0,0.0,0.0,0.0,0.0,0.0,0.0,0.0,0.0,0.0,0.0,0.0,0.0,0.0,0.0,0.0,0.0,0.0,0.0,0.0,0.0,0.0,0.0,0.0,0.0,0.0,0.0,0.6233,0.5483,0.5098,0.4778,0.0,0.0,0.6629,0.7748,0.8583,0.0,0.0,0.0,0.0,0.0,0.0,0.0,0.0,0.0,0.0,0.0,0.0,0.0,0.0,0.0,0.0,0.0,0.0,0.0,0.0,0.0,0.0,0.0,0.0,0.0,0.0,0.0,0.0,0.0,0.0,0.0,0.0,0.0,0.0,0.0,0.0,0.0,0.0,0.0,0.0,0.0,0.0,0.0,0.0,0.0,0.0,0.0,0.0,0.0,0.0,0.0,0.0,0.0,0.0,0.0,-1.2603,-1.4189,-1.6664,-1.845,-1.9323,-1.834,-1.7152,-1.5901,-1.3949,-1.113,0.0,0.0,0.0,0.0,0.0,0.0,0.0,0.0,0.0,0.0,0.0,0.0,0.0,0.0,0.0,0.0,0.0,0.0,0.0,0.0,0.0,0.0,0.0,0.0,0.0,0.0,0.0,0.0,0.0,0.0,0.0,0.0,0.0,0.0,0.0,0.0,0.0,0.0,0.0,0.0,0.0,0.0,0.3681,0.3679,0.0,0.0,0.0,0.589,0.6263,0.0,0.0,0.0,0.0,0.0,0.0,0.0,0.0,0.0,0.0,0.0,0.0,0.0,0.0,0.0,0.0,0.0,0.0,0.0,0.0,0.0,0.0,0.0,0.0,0.0,0.0,0.0,0.0,0.0,0.0,0.0,0.0,0.0,0.0,0.0,0.0,0.0,0.0,0.0,0.0,0.0,0.0,0.0,0.0,0.0,0.0,0.0,0.0,0.0,0.0,0.0,0.0,0.0,0.0,0.0,0.0,0.0,-1.4091,-1.6995,-1.8595,-1.8811,-1.7765,-1.6747,-1.5748,-1.4019,0.0,0.0,0.0,0.0,0.0,0.0,0.0,0.0,0.0,0.0,0.0,0.0,0.0,0.0,0.0,0.0,0.0,0.0,0.0,0.0,0.0,0.0,0.0,0.0,0.0,0.0,0.0,0.4851,0.0,0.0,0.0,0.0,0.0,0.0,0.0,0.0,0.0,0.0,0.0,0.0,0.0,0.0,0.0283,0.176,0.2127,0.2538,0.0,0.0,0.478,0.491,0.637,0.751,0.0,0.0,0.0,0.0,0.0,0.0,0.0,0.0,0.0,0.0,0.0,0.0,0.0,0.0,0.0,0.0,0.0,0.0,0.0,0.0,0.0,0.0,0.0,0.0,0.0,0.0,0.0,0.0,0.0,0.0,0.0,0.0,0.0,0.0,0.0,0.0,0.0,0.0,0.0,0.0,0.0,0.0,0.0,0.0,0.0,0.0,0.0,0.0,0.0,0.0,0.0,0.0,0.0,0.0,0.0,-1.3518,-1.6362,-1.7955,-1.8128,-1.7179,-1.6218,-1.5274,-1.3988,-1.1611,0.0,0.0,0.0,0.0,0.0,0.0,0.0,0.0,0.0,0.0,0.0,0.0,0.0,0.0,0.0,0.0,0.0,0.0,0.0,0.0,0.0,0.0,0.0,0.0,0.0,0.0,0.0,0.0,0.0,0.0,0.0,0.0,0.0,0.0,0.0,0.0,0.0,0.0,0.0,0.0,0.0,-0.0976,-0.0105,0.0436,0.1085,0.0,0.0,0.3281,0.453,0.5817,0.6939,0.7734,0.0,0.0,0.0,0.0,0.0,0.0,0.0,0.0,0.0,0.0,0.0,0.0,0.0,0.0,0.0,0.0,0.0,0.0,0.0,0.0,0.0,0.0,0.0,0.0,0.0,0.0,0.0,0.0,0.0,0.0,0.0,0.0,0.0,0.0,0.0,0.0,0.0,0.0,0.0,0.0,0.0,0.0,0.0,0.0,0.0,0.0,0.0,0.0,0.0,0.0,0.0,0.0,0.0,-1.2726,-1.3433,-1.6208,-1.7603,-1.7401,-1.6578,-1.5768,-1.4913,-1.393,-1.2153,0.0,0.0,0.0,0.0,0.0,0.0,0.0,0.0,0.0,0.0,0.0,0.0,0.0,0.0,0.0,0.0,0.0,0.0,0.0,0.0,0.0,0.0,0.0,0.0,0.0,0.0,0.0,0.0,0.0217,-0.0091,-0.1063,0.0,0.0,0.0,0.0,0.0,0.0,0.0,0.0,0.0,0.0,-0.2209,-0.1037,-0.0342,0.0,0.0,0.1943,0.2688,0.3753,0.465,0.5551,0.6453,0.6873,0.0,0.0,0.0,0.0,0.0,0.0,0.0,0.0,0.0,0.0,0.0,0.0,0.0,0.0,0.0,0.0,0.0,0.0,0.0,0.0,0.0,0.0,0.0,0.0,0.0,0.0,0.0,0.0,0.0,0.0,0.0,0.0,0.0,0.0,0.0,0.0,0.0,0.0,0.0,0.0,0.0,0.0,0.0,0.0,0.0,0.0,0.0,0.0,0.0,0.0,0.0,0.0,-1.2661,-1.3117,-1.5809,-1.7033,-1.668,-1.5989,-1.5294,-1.4567,-1.3872,-1.2555,0.0,0.0,0.0,0.0,0.0,0.0,0.0,0.0,0.0,0.0,0.0,0.0,0.0,0.0,0.0,0.0,0.0,0.0,0.0,0.0,0.0,0.0,0.0,0.0,0.0,0.0,0.0,0.0,-0.1855,-0.1832,-0.291,0.0,0.0,0.0,0.0,0.0,0.0,0.0,0.0,0.0,0.0,-0.3389,-0.1966,-0.1116,-0.0272,0.0649,0.1397,0.2119,0.2812,0.342,0.4083,0.4843,0.0,0.0,0.0,0.0,0.0,0.0,0.0,0.0,0.0,0.0,0.0,0.0,0.0,0.0,0.0,0.0,0.0,0.0,0.0,0.0,0.0,0.0,0.0,0.0,0.0,0.0,0.0,0.0,0.0,0.0,-0.564,0.0,0.0,0.0,0.0,0.0,0.0,0.0,0.0,0.0,0.0,0.0,0.0,0.0,0.0,0.0,0.0,0.0,0.0,0.0,0.0,0.0,0.0,-1.2028,-1.2457,-1.5007,-1.6204,-1.5921,-1.5352,-1.4773,-1.4228,-1.3731,-1.273,-1.1081,0.0,0.0,0.0,0.0,0.0,0.0,0.0,0.0,0.0,0.0,0.0,0.0,0.0,0.0,0.0,0.0,0.0,0.0,0.0,0.0,0.0,0.0,0.0,0.0,0.0,0.0,-0.7146,-0.6402,-0.5289,0.0,0.0,0.0,0.0,0.0,0.0,0.0,0.0,0.0,0.0,-0.5657,-0.4538,-0.3058,-0.1958,-0.098,-0.0035,0.0808,0.1422,0.1788,0.2257,0.2637,0.0,0.0,0.0,0.0,0.0,0.0,0.0,0.0,0.0,0.0,0.0,0.0,0.0,0.0,0.0,0.0,0.0,0.0,0.0,0.0,0.0,0.0,0.0,0.0,0.0,0.0,0.0,-0.7434,-0.7281,0.0,0.0,0.0,0.0,0.0,0.0,0.0,0.0,0.0,0.0,0.0,-1.7111,-1.6606,0.0,0.0,0.0,0.0,0.0,0.0,0.0,0.0,0.0,0.0,0.0,0.0,-1.2121,-1.2245,-1.4938,-1.6154,-1.565,-1.5055,-1.448,-1.3959,-1.3428,-1.2346,-1.0601,0.0,0.0,0.0,0.0,0.0,0.0,0.0,0.0,0.0,0.0,0.0,0.0,0.0,0.0,0.0,0.0,0.0,0.0,0.0,0.0,0.0,0.0,0.0,0.0,0.0,-0.8243,0.0,0.0,0.0,0.0,0.0,0.0,0.0,0.0,0.0,0.0,0.0,-0.7874,-0.7412,-0.6652,-0.564,-0.4104,-0.3066,-0.1997,0.0,0.0,0.0,0.0,0.0,0.0,0.0,0.0,0.0,0.0,0.0,0.0,0.0,0.0,0.3387,0.4196,0.4302,0.4188,0.4008,0.0,0.0,0.0,0.0,0.0,0.0,0.0,0.0,0.0,0.0,0.0,0.0,0.0,0.0,-0.8909,0.0,-0.8645,0.0,0.0,0.0,0.0,0.0,0.0,0.0,0.0,-1.5358,-1.664,-1.7841,-1.7537,-1.7125,0.0,-1.6477,-1.5479,0.0,0.0,0.0,0.0,0.0,0.0,0.0,0.0,-1.2711,-1.2546,-1.4888,-1.5813,-1.5115,-1.4773,-1.4322,-1.3733,-1.3324,-1.2474,-1.1145,-1.039,-0.9255,0.0,0.0,0.0,0.0,0.0,0.0,0.0,0.0,0.0,0.0,0.0,0.0,0.0,0.0,0.0,0.0,0.0,0.0,0.0,0.0,0.0,0.0,0.0,-0.9244,0.0,0.0,0.0,0.0,0.0,0.0,0.0,0.0,0.0,-0.918,-0.8967,-0.8617,-0.788,-0.7212,-0.6216,-0.469,0.0,0.0,0.0,0.0,0.0,0.0,0.0,0.1662,0.1973,0.215,0.2319,0.2626,0.2752,0.289,0.3048,0.0,0.0,0.4294,0.4483,0.4474,0.4424,0.4324,0.4124,0.3808,0.3266,0.2789,0.0,0.0,0.0,0.0,0.0,0.0,0.0,0.0,-1.1251,-1.108,0.0,-0.9814,0.0,0.0,0.0,0.0,0.0,-1.1709,0.0,0.0,-1.6905,-1.784,-1.7767,-1.7843,-1.7595,-1.6962,-1.6705,-1.6529,-1.628,-1.445,0.0,0.0,0.0,0.0,0.0,0.0,-1.3649,-1.3259,-1.4864,-1.5282,-1.4391,-1.4495,-1.426,-1.3618,-1.3395,-1.3075,-1.259,-1.1218,-1.0398,-1.0254,-0.7567,0.0,0.0,0.0,0.0,0.0,0.0,0.0,0.0,0.0,0.0,0.0,0.0,0.0,0.0,0.0,0.0,0.0,0.0,0.0,0.0,-0.9615,0.0,0.0,0.0,0.0,0.0,0.0,0.0,0.0,0.0,0.0,-0.9937,-0.9798,-0.9269,-0.7968,0.0,0.0,0.0,0.0,-0.253,-0.14,-0.0416,0.0416,0.1058,0.1148,0.1276,0.164,0.0,0.0,0.2394,0.2604,0.2753,0.2954,0.315,0.3355,0.3591,0.3671,0.3754,0.4008,0.4118,0.4038,0.3837,0.3359,0.2934,-1.2892,0.0,0.0,0.0,0.0,-1.1473,-1.1524,-1.142,-1.1745,-1.1754,-1.157,-1.1337,0.0,0.0,0.0,0.0,0.0,0.0,-1.3146,-1.4862,-1.5452,-1.6282,-1.7298,-1.686,-1.6341,-1.5799,-1.5638,-1.5477,-1.5271,-1.4705,-1.4042,-1.3223,0.0,0.0,0.0,0.0,-1.3398,-1.3402,-1.4498,-1.4975,-1.4747,-1.4386,-1.3947,-1.326,-1.3276,-1.3204,-1.2973,-1.1946,-1.1104,-1.0448,-0.9101,0.0,0.0,0.0,0.0,0.0,0.0,0.0,0.0,0.0,0.0,0.0,0.0,0.0,0.0,0.0,0.0,0.0,0.0,0.0,-1.0634,-1.0428,-1.026,0.0,0.0,0.0,0.0,0.0,0.0,0.0,0.0,0.0,-1.0351,-0.9645,-0.8921,0.0,0.0,-0.667,-0.541,-0.4244,-0.3078,-0.1895,-0.0718,0.0,0.0,0.1227,0.1639,0.1719,0.1932,0.2169,0.2255,0.2335,0.2444,0.273,0.2837,0.3012,0.3442,0.367,0.3824,0.3847,0.4003,0.408,0.3764,0.3375,0.3034,-1.4034,-1.2338,-1.2369,-1.2301,-1.2273,-1.2733,-1.2933,-1.2982,-1.3465,-1.3604,-1.3385,-1.2856,-1.2539,-1.241,-1.1882,0.0,0.0,0.0,-1.3939,-1.5413,-1.5596,-1.6058,-1.6728,-1.6356,-1.5942,-1.5474,-1.5187,-1.4917,-1.4697,-1.4672,-1.4462,-1.4144,0.0,0.0,-1.2493,-1.3442,-1.3871,-1.3806,-1.4555,-1.4861,-1.4583,-1.4178,-1.3842,-1.3513,-1.3431,-1.3272,-1.31,-1.2515,-1.1881,-1.1233,-1.0159,-0.9132,0.0,0.0,0.0,0.0,0.0,0.0,0.0,0.0,0.0,0.0,0.0,-0.8628,0.0,0.0,0.0,0.0,-0.9624,-1.03,-1.0657,-1.0492,0.0,0.0,0.0,0.0,0.0,0.0,0.0,-1.1462,-1.1068,-1.0603,-1.009,-0.917,-0.8394,-0.8008,-0.7239,-0.6281,-0.5099,0.0,-0.3,-0.1846,-0.0768,0.0076,0.064,0.1217,0.1683,0.1996,0.2251,0.2433,0.2464,0.2451,0.2503,0.2733,0.2822,0.2956,0.3431,0.3689,0.3856,0.3829,0.3988,0.4035,0.3797,0.3518,0.3243,-1.4928,-1.4401,-1.3772,-1.3687,-1.3969,-1.4216,-1.4803,-1.5574,-1.5794,-1.5951,-1.5929,-1.4304,-1.3681,-1.377,-1.2563,0.0,-1.4046,-1.4645,-1.5399,-1.6294,-1.6721,-1.6698,-1.6285,-1.6243,-1.6035,-1.5682,-1.5133,-1.4768,-1.4561,-1.4461,-1.4425,-1.4581,-1.4799,-1.4718,-1.4397,-1.4799,-1.4796,-1.433,-1.482,-1.4757,-1.4095,-1.3905,-1.3882,-1.4039,-1.3708,-1.3373,-1.3107,-1.2875,-1.2608,-1.2274,-1.0935,-1.0192,-1.024,0.0,0.0,0.0,0.0,0.0,0.0,0.0,0.0,0.0,0.0,0.0,0.0,0.0,0.0,0.0,-1.001,0.0,-0.9923,-1.0105,0.0,0.0,0.0,-1.1255,-1.126,-1.1542,-1.1488,-1.0936,0.0,0.0,-0.9306,-0.8462,-0.7762,-0.735,-0.649,-0.5413,-0.4247,-0.3342,-0.2393,-0.1412,-0.0667,0.0,0.0782,0.1175,0.172,0.237,0.2565,0.2677,0.2825,0.2737,0.2749,0.296,0.2989,0.3125,0.3464,0.3687,0.3859,0.4015,0.4051,0.4023,0.3925,0.3761,0.3532,-1.5349,-1.496,-1.4503,-1.4371,-1.4474,-1.5077,-1.5302,-1.5254,-1.5755,-1.5818,-1.5542,-1.5213,-1.5093,-1.5136,-1.482,-1.4806,-1.5076,-1.5679,-1.5979,-1.609,-1.6253,-1.6235,-1.6148,-1.5702,-1.524,-1.4892,-1.474,-1.4525,-1.4238,-1.4209,-1.4165,-1.423,-1.4281,-1.4457,-1.4755,-1.4616,-1.4514,-1.4371,-1.4214,-1.4034,-1.3886,-1.3978,-1.3892,-1.3638,-1.3569,-1.3378,-1.3107,-1.2666,-1.2402,-1.2272,-1.1712,-1.1331,-1.1178,-0.9921,0.0,0.0,0.0,0.0,0.0,0.0,0.0,0.0,0.0,-0.8917,-0.9936,0.0,-1.0124,0.0,-0.9877,-0.9921,-1.0224,-1.0361,0.0,0.0,-1.057,-1.0832,-1.0984,-1.1003,-1.0927,-1.0633,-1.0142,-0.9501,-0.869,-0.77,-0.6723,-0.5951,-0.5556,-0.5015,-0.3985,-0.2962,-0.1961,-0.0942,-0.0236,0.0314,0.0864,0.1491,0.2183,0.2755,0.28,0.2762,0.2819,0.2704,0.2682,0.2954,0.2989,0.319,0.3625,0.3861,0.4059,0.4359,0.4331,0.4225,0.4193,0.4021,0.3758,-1.5464,-1.5259,-1.49,-1.4488,-1.4164,-1.5087,-1.536,-1.5172,-1.5617,-1.566,-1.545,-1.5333,-1.528,-1.5301,-1.5307,-1.5254,-1.5241,-1.582,-1.6023,-1.5903,-1.5747,-1.578,-1.5929,-1.5213,-1.474,-1.4605,-1.4361,-1.4145,-1.3956,-1.3891,-1.3891,-1.3956,-1.3891,-1.4036,-1.4405,-1.4325,-1.4209,-1.4,-1.3863,-1.3863,-1.3928,-1.3884,-1.3829,-1.3755,-1.3364,-1.3098,-1.2953,-1.2583,-1.2354,-1.2281,-1.2242,-1.2225,-1.2148,-1.1287,-1.0661,0.0,0.0,0.0,0.0,0.0,0.0,0.0,0.0,0.0,0.0,0.0,-0.947,0.0,-0.9303,-0.9268,-0.9448,-0.9628,-0.9679,-0.9548,-0.9799,-1.0031,-1.0169,-1.0095,-0.9877,-0.9586,-0.9038,-0.839,-0.7692,-0.6668,-0.5719,-0.4928,-0.4381,-0.3855,-0.3167,-0.2348,-0.1412,-0.0353,0.0353,0.0981,0.1649,0.2158,0.2616,0.3083,0.3016,0.2918,0.3052,0.2933,0.2816,0.3046,0.3092,0.3226,0.3725,0.3894,0.4095,0.4361,0.4464,0.4428,0.4428,0.4175,0.3861,-1.5389,-1.5373,-1.4979,-1.4361,-1.3715,-1.4695,-1.5002,-1.4796,-1.4985,-1.513,-1.5275,-1.5032,-1.4951,-1.4944,-1.496,-1.494,-1.4982,-1.5486,-1.5709,-1.5664,-1.5284,-1.5284,-1.5593,-1.4756,-1.4413,-1.4532,-1.4023,-1.3812,-1.3821,-1.363,-1.3564,-1.3754,-1.3564,-1.3608,-1.3754,-1.3928,-1.3848,-1.3492,-1.3681,-1.3826,-1.3985,-1.3637,-1.363,-1.3941,-1.3178,-1.2774,-1.2776,-1.266,-1.2439,-1.219,-1.2564,-1.2841,-1.2948,-1.2279,-1.1876,0.0,-1.0956,0.0,0.0,0.0,0.0,0.0,0.0,0.0,0.0,-0.8992,-0.883,-0.8629,-0.8523,-0.8369,-0.8182,-0.8441,-0.8586,-0.8521,-0.8788,-0.9005,-0.9044,-0.8865,-0.861,-0.8242,-0.7637,-0.7021,-0.6407,-0.5548,-0.4741,-0.3949,-0.3155,-0.2418,-0.1934,-0.1452,-0.0745,0.0275,0.098,0.1725,0.255,0.2785,0.2976,0.3381,0.3304,0.3158,0.3501,0.3305,0.3161,0.3282,0.3303,0.3426,0.3758,0.3959,0.4128,0.4331,0.4528,0.4625,0.4528,0.4323,0.4017,-1.5227,-1.5327,-1.4752,-1.4462,-1.4423,-1.4621,-1.3898,-1.2544,-1.268,-1.3251,-1.4185,-1.4839,-1.5134,-1.5146,-1.5134,-1.5132,-1.5141,-1.5242,-1.5204,-1.5051,-1.482,-1.4713,-1.4649,-1.431,-1.4246,-1.4313,-1.3998,-1.3859,-1.3962,-1.366,-1.3528,-1.3572,-1.3528,-1.3528,-1.3572,0.0,0.0,0.0,-1.3535,-1.3492,-1.3382,-1.3309,-1.3302,-1.3375,-1.3208,0.0,-1.2719,-1.2844,-1.2604,-1.1944,-1.2454,0.0,0.0,0.0,0.0,0.0,0.0,0.0,0.0,0.0,0.0,0.0,-0.887,-0.8801,-0.8299,-0.8353,-0.8201,-0.7746,-0.7995,-0.7968,-0.748,-0.7593,-0.7681,-0.7529,-0.7681,-0.7804,-0.7846,-0.7667,-0.7422,-0.7136,-0.6434,-0.571,-0.5044,-0.4335,-0.3504,-0.2578,-0.1925,-0.1246,-0.0315,-0.0235,0.0078,0.0982,0.1648,0.2273,0.2943,0.3061,0.3274,0.3639,0.3738,0.3722,0.3885,0.379,0.3655,0.3723,0.3714,0.3727,0.3928,0.4228,0.4461,0.4528,0.4791,0.4858,0.4464,0.4428,0.4355,-1.4911,0.0,-1.4543,-1.4159,0.0,-1.3812,-1.297,-1.1682,-1.2834,-1.3715,-1.4364,-1.4738,-1.4883,-1.4851,-1.4257,-1.3922,-1.3839,-1.3464,-1.3496,-1.3802,-1.3769,-1.3983,-1.4397,-1.4277,-1.4238,-1.4283,-1.417,-1.4095,-1.4012,-1.3814,-1.366,-1.3492,-1.3492,-1.3492,-1.3492,-1.3382,-1.3346,-1.3346,-1.3346,-1.32,-1.2936,-1.29,-1.2936,-1.3039,0.0,0.0,0.0,0.0,0.0,0.0,0.0,0.0,0.0,0.0,0.0,-1.3419,-1.3428,-1.3042,-1.2166,-1.1711,-1.1061,-1.0079,-0.9553,-0.8881,-0.7983,-0.7903,-0.7643,-0.7044,-0.7118,-0.7007,-0.6588,-0.6661,-0.6619,-0.6468,-0.6815,-0.6965,-0.6468,-0.622,-0.5995,-0.5644,-0.5091,-0.45,-0.3903,-0.3308,-0.2582,-0.1729,-0.1069,-0.0318,0.0669,0.0667,0.0825,0.1884,0.2589,0.3136,0.3491,0.3569,0.3659,0.3964,0.3896,0.3869,0.3953,0.3881,0.3827,0.3846,0.3893,0.3961,0.4131,0.4331,0.4498,0.4694,0.4927,0.4954,0.4558,0.4548,0.454,-1.4492,-1.4306,-1.4388,-1.3947,-1.3157,-1.3336,-1.2821,-1.2011,0.0,0.0,0.0,-1.455,-1.4569,-1.447,-1.3424,-1.2887,-1.2709,-1.2083,-1.2199,-1.2894,-1.3002,-1.3526,-1.4309,-1.4268,-1.432,-1.4394,-1.4486,-1.4372,-1.4108,-1.4011,-1.3814,-1.3521,-1.3492,-1.3499,-1.3419,-1.3273,-1.3156,-1.309,-1.3127,-1.2973,-1.2636,-1.2599,-1.2666,-1.282,-1.2612,-1.2586,-1.2742,-1.2771,-1.2671,-1.2487,-1.3064,-1.3273,-1.3003,-1.3649,-1.3973,-1.3799,-1.412,-1.4062,-1.3486,-1.3232,-1.2713,-1.1856,-1.0771,-0.9519,-0.8093,-0.771,-0.7288,-0.6641,-0.6282,-0.5973,-0.5667,-0.5622,-0.5503,-0.5312,-0.5774,-0.577,-0.5076,-0.4727,-0.4504,-0.4151,-0.3765,-0.3292,-0.2863,-0.2276,-0.1686,-0.1019,-0.0196,0.0706,0.1646,0.1647,0.1726,0.2746,0.3372,0.3841,0.4077,0.4157,0.424,0.4282,0.4145,0.4036,0.4053,0.4005,0.3996,0.4079,0.4079,0.4197,0.4364,0.4464,0.4531,0.4764,0.4994,0.5087,0.4845,0.4753,0.4719,-1.4177,-1.4321,-1.4485,-1.4417,-1.4237,-1.4722,-1.4588,-1.408,-1.3318,-1.3127,-1.3471,-1.4132,-1.4425,-1.4425,-1.4047,-1.3915,-1.3879,-1.3752,-1.3696,0.0,-1.3669,-1.3813,-1.4059,-1.4073,-1.4313,-1.4765,-1.4614,-1.4482,-1.4416,-1.4159,-1.3814,-1.3528,-1.3492,-1.3426,-1.3273,-1.32,-1.3046,-1.2709,-1.2856,-1.2826,-1.2599,-1.2599,-1.2599,-1.2636,-1.2741,-1.2757,-1.2654,-1.2939,-1.2819,-1.2204,-1.284,-1.3086,-1.2791,-1.3459,-1.4017,-1.4427,-1.4675,-1.4722,-1.4507,-1.4796,-1.4609,-1.3762,-1.2839,-1.1241,-0.8827,-0.808,-0.7437,-0.6676,-0.6093,-0.5392,-0.4732,-0.4504,-0.4348,-0.4112,-0.3954,-0.3795,-0.3717,-0.337,-0.3137,-0.3059,-0.2508,-0.2118,-0.1845,-0.1296,-0.0628,0.0196,0.0902,0.1882,0.2938,0.3095,0.3056,0.3487,0.3724,0.3958,0.427,0.4504,0.4608,0.4603,0.4644,0.4654,0.4798,0.4621,0.46,0.4786,0.4695,0.4703,0.4731,0.4894,0.4924,0.4927,0.516,0.5359,0.5382,0.5301,0.5091,-1.4219,-1.417,-1.4508,-1.4607,-1.4599,-1.5093,-1.5028,-1.4581,-1.415,-1.3996,-1.4075,-1.4348,-1.4405,-1.4301,-1.3484,-1.314,-1.3167,-1.2742,-1.2704,-1.3057,-1.3475,-1.3711,-1.3778,-1.4153,-1.4477,-1.4677,-1.4721,-1.464,-1.4504,-1.435,-1.3989,-1.3528,-1.3492,-1.3346,-1.3053,-1.3046,-1.2826,-1.2452,-1.2636,-1.2526,-1.2114,-1.2224,-1.2261,-1.2268,-1.2489,-1.2643,-1.2746,-1.2936,-1.2903,-1.2545,-1.3021,-1.3193,-1.3059,-1.3446,-1.3933,-1.4508,-1.4772,-1.4917,-1.4957,-1.5188,-1.5107,-1.4638,-1.4055,-1.3039,-1.1501,-0.981,-0.8426,-0.7365,-0.6546,-0.5774,-0.4965,-0.4387,-0.396,-0.3643,-0.3175,-0.2862,-0.2744,-0.2433,-0.2199,-0.2159,-0.1884,-0.161,-0.1257,-0.0746,-0.0196,0.055,0.1765,0.3134,0.4034,0.4229,0.4226,0.419,0.4307,0.4462,0.4582,0.4932,0.5063,0.4964,0.4961,0.5042,0.5078,0.4899,0.4875,0.5021,0.4995,0.5033,0.5193,0.5226,0.5292,0.5425,0.5528,0.5657,0.5632,0.5398,0.5154,-1.428,-1.4075,-1.463,-1.4836,-1.4808,-1.5157,-1.5004,-1.4531,-1.4758,-1.4804,-1.4721,-1.4524,-1.438,-1.42,-1.3179,-1.2762,-1.2767,-1.2224,-1.2308,-1.2889,-1.3513,-1.3822,-1.3865,-1.4464,-1.4729,-1.4739,-1.494,-1.4849,-1.4604,-1.4575,-1.4253,-1.3667,-1.3609,-1.3418,-1.3079,-1.3035,-1.2847,-1.2604,-1.2624,-1.2334,-1.1781,-1.1929,-1.1966,-1.1929,-1.2187,-1.2415,-1.2673,-1.279,-1.2854,-1.2887,-1.3009,-1.3134,-1.3189,-1.3323,-1.3663,-1.4193,-1.4522,-1.4912,-1.5408,-1.5466,-1.5521,-1.5576,-1.5168,-1.4665,-1.3908,-1.2037,-1.0042,-0.8596,-0.7522,-0.658,-0.5699,-0.4851,-0.4151,-0.3561,-0.2899,-0.24,-0.2092,-0.1734,-0.1497,-0.1384,-0.1341,-0.1139,-0.0746,-0.0354,0.0275,0.1295,0.2743,0.3995,0.4618,0.5124,0.5126,0.501,0.4968,0.4965,0.4896,0.5323,0.5514,0.533,0.5371,0.5367,0.5303,0.5114,0.5028,0.5216,0.5259,0.5388,0.5653,0.5653,0.5723,0.5921,0.5987,0.5921,0.5774,0.5632,0.5427,-1.4123,-1.4223,-1.4909,-1.5149,-1.5064,-1.5041,-1.4751,-1.429,-1.4403,-1.4493,-1.4594,-1.4302,-1.4251,-1.4321,-1.4019,-1.4038,-1.4238,-1.4223,-1.4194,-1.4245,-1.4386,-1.457,-1.4688,-1.4812,-1.505,-1.5236,-1.5294,-1.5126,-1.4842,-1.4827,-1.456,-1.4004,-1.3976,-1.3825,-1.3629,-1.3395,-1.3286,-1.336,-1.3,-1.2534,-1.2022,-1.2003,-1.1935,-1.1744,-1.2077,-1.2231,-1.2157,-1.2452,-1.2692,-1.2766,-1.2546,-1.2553,-1.2799,-1.276,-1.2986,-1.355,-1.379,-1.4558,-1.5975,-1.6198,-1.6417,-1.7073,-1.6482,-1.583,-1.5152,-1.4188,-1.2595,-1.0567,-0.9024,-0.7783,-0.6538,-0.5729,-0.4919,-0.4025,-0.3137,-0.2293,-0.1807,-0.1273,-0.0911,-0.0688,-0.0597,-0.0354,-0.0118,0.0275,0.1138,0.2468,0.3405,0.446,0.5395,0.5631,0.5789,0.5867,0.555,0.524,0.544,0.5709,0.5851,0.5822,0.5909,0.5872,0.5724,0.5619,0.5562,0.5647,0.5719,0.5885,0.605,0.6115,0.6181,0.6288,0.6284,0.6178,0.6148,0.6191,0.6149,-1.4309,-1.4234,-1.5054,-1.5205,-1.5018,-1.5167,-1.4863,-1.4266,-1.4351,-1.4365,-1.4289,-1.4186,-1.4238,-1.4504,-1.4417,-1.4504,-1.4743,-1.4902,-1.4902,-1.4765,-1.494,-1.4904,-1.4692,-1.4699,-1.4858,-1.509,-1.4974,-1.4909,-1.4893,-1.4757,-1.4523,-1.4296,-1.4152,-1.3944,-1.3751,-1.355,-1.3379,-1.3312,-1.3119,-1.2725,-1.2176,-1.1945,-1.1744,-1.1558,-1.1669,-1.1855,-1.2003,-1.215,-1.2321,-1.2485,-1.2569,-1.265,-1.2777,-1.2739,-1.2941,-1.3346,-1.3623,-1.4446,-1.5881,-1.5664,-1.5854,-1.674,-1.6188,-1.5776,-1.5746,-1.4867,-1.3794,-1.27,-1.1093,-0.9653,-0.8613,-0.7554,-0.644,-0.5336,-0.4305,-0.3289,-0.2267,-0.1732,-0.1168,-0.0608,-0.0279,0.0,0.0354,0.0825,0.1766,0.3017,0.3876,0.4693,0.5705,0.6057,0.6331,0.6521,0.6247,0.5941,0.5867,0.5983,0.6099,0.6153,0.6204,0.6175,0.6105,0.6012,0.6005,0.6165,0.6215,0.6321,0.6581,0.6613,0.6646,0.6683,0.6683,0.6609,0.6613,0.6581,0.66,-1.4481,-1.4448,-1.5117,-1.5158,-1.4856,-1.5187,-1.4889,-1.4267,-1.4275,-1.4237,-1.413,-1.4088,-1.4296,-1.4638,-1.4772,-1.4902,-1.5072,-1.5301,-1.5275,-1.5061,-1.5238,-1.51,-1.47,-1.4712,-1.4828,-1.4909,-1.4883,-1.4924,-1.5009,-1.486,-1.4692,-1.4611,-1.4345,-1.4187,-1.4029,-1.3744,-1.3593,-1.3554,-1.342,-1.2982,-1.2413,-1.2018,-1.164,-1.1279,-1.1335,-1.1558,-1.1818,-1.1969,-1.2127,-1.2364,-1.2532,-1.2638,-1.2631,-1.2603,-1.2772,-1.3213,-1.3606,-1.4351,-1.5475,-1.5281,-1.5436,-1.6149,-1.5729,-1.5502,-1.5648,-1.5043,-1.446,-1.4166,-1.2968,-1.1733,-1.0653,-0.9513,-0.8315,-0.7142,-0.5874,-0.4527,-0.3112,-0.2261,-0.141,-0.0527,-0.012,0.0275,0.0825,0.1453,0.2276,0.3331,0.407,0.4849,0.5744,0.6328,0.6679,0.6945,0.683,0.6637,0.6289,0.6328,0.6444,0.6503,0.6554,0.6667,0.6548,0.6466,0.6441,0.6617,0.6589,0.6696,0.6975,0.7068,0.7073,0.7106,0.7106,0.7106,0.704,0.697,0.6972,-1.4538,-1.4733,-1.5193,-1.5117,-1.4646,-1.4995,-1.467,-1.3981,-1.4087,-1.4082,-1.4088,-1.413,-1.4321,-1.474,-1.5135,-1.5379,-1.5394,-1.5572,-1.5523,-1.5338,-1.52,-1.5117,-1.5095,-1.5103,-1.5061,-1.5025,-1.5191,-1.5289,-1.5338,-1.5365,-1.5226,-1.49,-1.4636,-1.4548,-1.4467,-1.4069,-1.4042,-1.4164,-1.3782,-1.3274,-1.2732,-1.2327,-1.1702,-1.0988,-1.1192,-1.1434,-1.1496,-1.1866,-1.2203,-1.2484,-1.2299,-1.219,-1.2216,-1.2154,-1.2346,-1.2996,-1.3599,-1.4231,-1.4856,-1.5215,-1.5606,-1.5942,-1.5556,-1.529,-1.5313,-1.4862,-1.455,-1.4554,-1.4193,-1.3485,-1.2449,-1.1265,-1.0224,-0.9165,-0.7498,-0.5767,-0.3911,-0.28,-0.1513,-0.0524,0.008,0.0747,0.1454,0.208,0.2823,0.3643,0.4309,0.5046,0.5973,0.644,0.6753,0.7065,0.718,0.7103,0.6903,0.6865,0.6874,0.6885,0.704,0.7291,0.7163,0.7062,0.7036,0.7018,0.694,0.7067,0.7339,0.7493,0.7526,0.7563,0.7596,0.7563,0.7466,0.7461,0.7376,-1.4615,-1.495,-1.5257,-1.5191,-1.4939,-1.4866,-1.4518,-1.4025,-1.3902,-1.3828,-1.3906,-1.4159,-1.4447,-1.4734,-1.5193,-1.5409,-1.5423,-1.5616,-1.5533,-1.5208,-1.4957,-1.4783,-1.4657,-1.4496,-1.4629,-1.4831,-1.495,-1.5131,-1.5389,-1.5298,-1.5164,-1.4988,-1.4662,-1.4483,-1.4407,-1.4171,-1.4114,-1.4139,-1.3717,-1.3211,-1.2715,-1.2304,-1.167,-1.0942,-1.112,-1.1455,-1.1897,-1.1919,-1.2079,-1.2491,-1.2247,-1.2113,-1.2126,-1.206,-1.232,-1.2951,-1.3098,-1.3501,-1.4323,-1.4348,-1.4572,-1.5219,-1.4833,-1.469,-1.4854,-1.4719,-1.4517,-1.4411,-1.4351,-1.4028,-1.3624,-1.275,-1.1897,-1.1087,-0.9483,-0.7569,-0.5856,-0.4177,-0.2572,-0.0973,0.0398,0.1609,0.2158,0.2668,0.329,0.4192,0.4696,0.5354,0.617,0.6637,0.6945,0.7292,0.7488,0.7569,0.7488,0.7369,0.7287,0.7237,0.7359,0.7542,0.7534,0.7417,0.735,0.7411,0.7346,0.7358,0.7591,0.7754,0.7819,0.7889,0.7954,0.7927,0.7824,0.7852,0.7619,-1.4692,-1.4999,-1.5215,-1.5173,-1.495,-1.4699,-1.4447,-1.4159,-1.3955,-1.3864,-1.3984,-1.4272,-1.4475,-1.465,-1.5019,-1.5159,-1.5124,-1.5374,-1.5291,-1.4866,-1.4615,-1.4405,-1.4188,-1.4117,-1.4292,-1.4615,-1.4824,-1.5082,-1.5257,-1.5173,-1.5041,-1.495,-1.4531,-1.4279,-1.4279,-1.4075,-1.3955,-1.3822,-1.3561,-1.317,-1.2631,-1.2146,-1.1649,-1.1118,-1.0959,-1.122,-1.1834,-1.1869,-1.193,-1.2123,-1.2066,-1.197,-1.1783,-1.174,-1.2058,-1.2679,-1.2716,-1.3044,-1.3863,-1.3858,-1.403,-1.4598,-1.4319,-1.4223,-1.4499,-1.4374,-1.4179,-1.4082,-1.4037,-1.4044,-1.394,-1.3364,-1.2764,-1.2256,-1.0839,-0.898,-0.7067,-0.5232,-0.3146,-0.0844,0.0871,0.2041,0.2785,0.3214,0.3878,0.4776,0.5124,0.5702,0.6479,0.6942,0.7211,0.7526,0.7834,0.7872,0.7846,0.7799,0.7664,0.7622,0.7646,0.7811,0.7847,0.7703,0.7663,0.7739,0.7743,0.773,0.7792,0.7949,0.8079,0.8182,0.8247,0.822,0.8214,0.8214,0.7968,-1.4692,-1.4734,-1.4957,-1.4957,-1.4692,-1.4524,-1.4398,-1.4363,-1.4159,-1.4159,-1.4314,-1.4398,-1.4398,-1.444,-1.465,-1.4608,-1.4573,-1.4824,-1.4783,-1.4405,-1.4201,-1.3948,-1.3737,-1.3955,-1.4159,-1.444,-1.5041,-1.5264,-1.5082,-1.5048,-1.4915,-1.4657,-1.4292,-1.4082,-1.4088,-1.3828,-1.3603,-1.3434,-1.3307,-1.3003,-1.2443,-1.1884,-1.1462,-1.1169,-1.0648,-1.0611,-1.1152,-1.1624,-1.1764,-1.1577,-1.1724,-1.1609,-1.1226,-1.1155,-1.1446,-1.2113,-1.2553,-1.2988,-1.348,-1.3818,-1.399,-1.4173,-1.409,-1.4007,-1.3984,-1.3785,-1.3616,-1.355,-1.3514,-1.3506,-1.3515,-1.3091,-1.2726,-1.2484,-1.1281,-0.9538,-0.7577,-0.5682,-0.3405,-0.0474,0.1216,0.2194,0.2976,0.3682,0.4423,0.5124,0.5667,0.6131,0.6822,0.7246,0.7522,0.7795,0.8021,0.8134,0.8185,0.8202,0.81,0.8026,0.8028,0.8106,0.8002,0.7873,0.7797,0.7819,0.7822,0.7811,0.8084,0.8247,0.8409,0.8511,0.8544,0.8571,0.8635,0.8624,0.8311,-1.4482,-1.4524,-1.4734,-1.4699,-1.4475,-1.4433,-1.4398,-1.4363,-1.4166,-1.4201,-1.4356,-1.4398,-1.4398,-1.4398,-1.4475,-1.4398,-1.4208,-1.4159,-1.4026,-1.3899,-1.373,-1.3568,-1.3525,-1.3568,-1.3899,-1.4356,-1.4741,-1.4908,-1.4824,-1.4699,-1.4566,-1.444,-1.4026,-1.3864,-1.3828,-1.3483,-1.3222,-1.3137,-1.2705,-1.2229,-1.1912,-1.1304,-1.0889,-1.0595,-1.0269,-1.0197,-1.0395,-1.0787,-1.1061,-1.114,-1.1197,-1.1099,-1.097,-1.1037,-1.126,-1.1633,-1.2021,-1.249,-1.2959,-1.3199,-1.3457,-1.3701,-1.3836,-1.3785,-1.3719,-1.3675,-1.3535,-1.3309,-1.3046,-1.2802,-1.2503,-1.2136,-1.2137,-1.2765,-1.1585,-0.997,-0.7922,-0.5167,-0.2444,-0.0314,0.1137,0.2234,0.321,0.4073,0.4929,0.5628,0.6209,0.6784,0.7211,0.7557,0.7753,0.7987,0.8199,0.8461,0.8491,0.8553,0.8548,0.8435,0.8425,0.8354,0.8217,0.8085,0.7998,0.7914,0.791,0.805,0.8322,0.8511,0.8641,0.8765,0.8797,0.892,0.9081,0.8966,0.8663,-1.4398,-1.444,-1.4524,-1.4531,-1.4398,-1.4314,-1.4314,-1.4356,-1.4075,-1.4082,-1.4237,-1.4195,-1.4146,-1.4153,-1.4237,-1.4159,-1.3913,-1.3695,-1.361,-1.3568,-1.3392,-1.3307,-1.3355,-1.3568,-1.3899,-1.4356,-1.4608,-1.465,-1.4566,-1.4475,-1.4356,-1.4237,-1.3815,-1.3568,-1.3434,-1.3052,-1.2796,-1.2625,-1.2149,-1.1794,-1.1466,-1.0979,-1.0531,-1.0206,-0.9896,-0.9751,-0.9747,-0.9993,-1.0332,-1.0645,-1.0689,-1.0678,-1.0749,-1.0845,-1.0962,-1.1223,-1.1571,-1.2019,-1.2532,-1.2766,-1.297,-1.3377,-1.3609,-1.3608,-1.3448,-1.3528,-1.3382,-1.29,-1.2636,-1.2268,-1.175,-1.1446,-1.1507,-1.1758,-1.1095,-0.9687,-0.7636,-0.4666,-0.2155,-0.047,0.0902,0.2077,0.3249,0.4343,0.5354,0.6089,0.6784,0.7326,0.7676,0.794,0.8131,0.8327,0.8556,0.8699,0.877,0.8841,0.8975,0.8894,0.8817,0.8656,0.8494,0.8367,0.8255,0.8067,0.8022,0.8203,0.8479,0.8641,0.8802,0.8894,0.9049,0.9215,0.9358,0.9233,0.8974,-1.4356,-1.4398,-1.4356,-1.4356,-1.4363,-1.4166,-1.4201,-1.4314,-1.3899,-1.387,-1.3997,-1.3864,-1.373,-1.3786,-1.3948,-1.3955,-1.3695,-1.3568,-1.3434,-1.3398,-1.3264,-1.3185,-1.3307,-1.3786,-1.4117,-1.4356,-1.4531,-1.4524,-1.4398,-1.4356,-1.4272,-1.4033,-1.361,-1.327,-1.3009,-1.2583,-1.2198,-1.1946,-1.1725,-1.1456,-1.1192,-1.0811,-1.0434,-0.9947,-0.9555,-0.9318,-0.9291,-0.9324,-0.9606,-1.0138,-1.0263,-1.034,-1.0473,-1.0492,-1.0625,-1.085,-1.1186,-1.1669,-1.2164,-1.2472,-1.2767,-1.3162,-1.3331,-1.3382,-1.3215,-1.3149,-1.2973,-1.2489,-1.2268,-1.1929,-1.1298,-1.1037,-1.0729,-1.0019,-0.979,-0.8566,-0.6201,-0.4042,-0.2235,-0.0784,0.0509,0.1762,0.3132,0.4302,0.5506,0.6514,0.7211,0.7791,0.8169,0.8437,0.8627,0.8822,0.8941,0.8975,0.9003,0.915,0.9251,0.9268,0.918,0.9107,0.8765,0.8574,0.8458,0.8292,0.8158,0.837,0.8576,0.877,0.8964,0.9119,0.928,0.9472,0.9508,0.9392,0.9228,-1.399,-1.4166,-1.3948,-1.399,-1.4124,-1.3913,-1.4026,-1.4314,-1.3899,-1.3737,-1.3779,-1.373,-1.361,-1.3525,-1.3695,-1.3737,-1.3695,-1.3646,-1.3519,-1.3398,-1.3355,-1.3398,-1.3568,-1.3913,-1.413,-1.4201,-1.4243,-1.425,-1.4208,-1.4166,-1.4033,-1.3779,-1.3392,-1.2966,-1.2577,-1.1929,-1.1505,-1.1251,-1.1073,-1.0857,-1.0616,-1.0361,-1.002,-0.9708,-0.9289,-0.9026,-0.8871,-0.8855,-0.9161,-0.9738,-0.9909,-0.9942,-0.9964,-1.0262,-1.0513,-1.0663,-1.1111,-1.1595,-1.2003,-1.2268,-1.2562,-1.2936,-1.3046,-1.3039,-1.2966,-1.2826,-1.2636,-1.2268,-1.1929,-1.1446,-1.0962,-1.0588,-0.9986,-0.9084,-0.8381,-0.7243,-0.5527,-0.3814,-0.2273,-0.098,0.0235,0.1488,0.2817,0.4219,0.5544,0.6553,0.7442,0.8212,0.8551,0.8822,0.8975,0.9089,0.9208,0.9241,0.9273,0.943,0.9501,0.9566,0.9589,0.9612,0.9145,0.8664,0.8565,0.8428,0.8344,0.8451,0.8668,0.8867,0.9087,0.928,0.9408,0.9536,0.9597,0.953,0.9321,-1.3652,-1.3786,-1.3659,-1.361,-1.3652,-1.3603,-1.373,-1.3893,-1.3688,-1.3561,-1.361,-1.3652,-1.3568,-1.3434,-1.3737,-1.387,-1.387,-1.3737,-1.3695,-1.3737,-1.3695,-1.3695,-1.3779,-1.3962,-1.4088,-1.4088,-1.4088,-1.4088,-1.4088,-1.3997,-1.3864,-1.3646,-1.3179,-1.2705,-1.2229,-1.1542,-1.1068,-1.0857,-1.0598,-1.0294,-1.0193,-0.9971,-0.9663,-0.9387,-0.9051,-0.8765,-0.8617,-0.8656,-0.8952,-0.9409,-0.9687,-0.9813,-0.9942,-1.0268,-1.0481,-1.0519,-1.0999,-1.1484,-1.1898,-1.2114,-1.2409,-1.2783,-1.29,-1.2863,-1.2753,-1.2599,-1.2342,-1.1905,-1.149,-1.1074,-1.0588,-1.0062,-0.9268,-0.828,-0.7165,-0.6083,-0.5062,-0.3712,-0.2435,-0.1295,-0.0118,0.1136,0.2386,0.3947,0.5312,0.6518,0.7518,0.8246,0.8861,0.9094,0.9322,0.9468,0.9582,0.9652,0.9765,0.9916,0.9954,0.9992,0.9981,1.0012,0.9666,0.9094,0.8957,0.8867,0.8642,0.8602,0.8914,0.9129,0.9221,0.9382,0.9446,0.9562,0.9635,0.9687,0.9445,-1.3417,-1.3398,-1.3355,-1.327,-1.3143,-1.3307,-1.3392,-1.344,-1.3483,-1.3434,-1.344,-1.3561,-1.3483,-1.3349,-1.3568,-1.3913,-1.3913,-1.3701,-1.387,-1.3955,-1.4004,-1.3955,-1.3737,-1.3962,-1.4088,-1.4088,-1.4088,-1.4046,-1.4004,-1.3822,-1.3652,-1.3392,-1.2875,-1.2357,-1.18,-1.1198,-1.0814,-1.0467,-1.012,-0.9907,-0.9864,-0.9701,-0.9476,-0.9168,-0.8804,-0.8559,-0.8413,-0.848,-0.8788,-0.9291,-0.9461,-0.9767,-1.0136,-1.035,-1.0492,-1.055,-1.085,-1.1298,-1.1824,-1.1935,-1.2194,-1.2643,-1.2783,-1.2753,-1.2526,-1.2335,-1.2046,-1.1577,-1.1198,-1.0812,-1.0255,-0.9496,-0.8694,-0.7744,-0.6623,-0.5654,-0.4807,-0.3641,-0.2472,-0.1649,-0.0432,0.0784,0.2113,0.348,0.4965,0.636,0.7399,0.8241,0.8894,0.9316,0.9657,0.9954,1.003,1.0105,1.0255,1.0438,1.0438,1.0438,1.0443,1.0413,1.0265,0.9871,0.9624,0.9429,0.9229,0.9187,0.9347,0.947,0.9444,0.9478,0.9606,0.9676,0.9741,0.9718,0.9603,-1.3595,-1.3398,-1.3222,-1.3143,-1.31,-1.3179,-1.327,-1.3398,-1.3561,-1.3525,-1.344,-1.344,-1.3222,-1.2869,-1.3052,-1.3094,-1.3349,-1.3434,-1.3659,-1.4088,-1.4088,-1.3955,-1.3786,-1.3955,-1.4046,-1.4046,-1.4088,-1.3955,-1.3779,-1.361,-1.344,-1.2875,-1.2406,-1.1843,-1.1198,-1.0641,-1.0081,-0.982,-0.9563,-0.9476,-0.9519,-0.9515,-0.9413,-0.9132,-0.873,-0.8284,-0.8005,-0.7952,-0.8168,-0.8611,-0.9052,-0.9395,-0.9769,-1.0111,-1.0331,-1.0513,-1.0738,-1.1074,-1.144,-1.1706,-1.1892,-1.2187,-1.2335,-1.2342,-1.2157,-1.2077,-1.1818,-1.1453,-1.1074,-1.0588,-0.9992,-0.9382,-0.8542,-0.7587,-0.643,-0.5234,-0.4187,-0.3214,-0.2276,-0.1414,-0.0393,0.0785,0.2037,0.3287,0.4727,0.6121,0.7242,0.8199,0.8889,0.9463,0.9841,1.018,1.0363,1.04,1.0588,1.0738,1.0775,1.0812,1.0812,1.0769,1.0617,1.0518,1.0227,0.9987,0.9786,0.9806,0.9757,0.9677,0.9625,0.9675,0.9708,0.974,0.9774,0.978,0.9712,-1.3033,-1.293,-1.2674,-1.2546,-1.2503,-1.2802,-1.296,-1.3137,-1.3519,-1.3568,-1.344,-1.3483,-1.3222,-1.2747,-1.2833,-1.296,-1.2966,-1.3264,-1.3568,-1.3864,-1.3906,-1.3828,-1.3695,-1.3652,-1.3616,-1.3616,-1.3616,-1.3483,-1.3264,-1.3052,-1.2662,-1.2363,-1.1843,-1.1241,-1.0722,-1.0212,-0.9825,-0.9519,-0.9218,-0.9087,-0.913,-0.9218,-0.913,-0.8857,-0.8379,-0.7937,-0.7552,-0.739,-0.765,-0.8055,-0.8437,-0.8937,-0.9544,-0.9997,-1.0255,-1.0475,-1.07,-1.0999,-1.1335,-1.1521,-1.1706,-1.1966,-1.1929,-1.1972,-1.1824,-1.1706,-1.1372,-1.1111,-1.0743,-1.0255,-0.9657,-0.9084,-0.8318,-0.7238,-0.6083,-0.4844,-0.368,-0.2862,-0.2196,-0.1335,-0.0354,0.0667,0.1881,0.3132,0.4494,0.589,0.6903,0.7863,0.8851,0.9425,0.9916,1.0255,1.0513,1.07,1.0887,1.1037,1.1074,1.1111,1.1149,1.1074,1.0934,1.0868,1.0735,1.0501,1.0264,1.0043,0.9973,0.9894,0.9826,0.9772,0.9778,0.9772,0.9831,0.9913,0.9816,-1.2397,-1.2326,-1.208,-1.1871,-1.1828,-1.2454,-1.2747,-1.2881,-1.3483,-1.3652,-1.3483,-1.3561,-1.3179,-1.279,-1.2711,-1.2753,-1.2796,-1.3052,-1.3349,-1.361,-1.361,-1.3525,-1.3434,-1.3179,-1.2966,-1.293,-1.3052,-1.2924,-1.2662,-1.2272,-1.2235,-1.1892,-1.1284,-1.0809,-1.0381,-0.9951,-0.9559,-0.917,-0.8955,-0.8823,-0.8823,-0.8903,-0.8871,-0.8562,-0.8209,-0.7728,-0.7364,-0.7173,-0.7285,-0.7714,-0.7783,-0.8394,-0.9241,-0.9846,-1.0218,-1.04,-1.0625,-1.0925,-1.1223,-1.1372,-1.1484,-1.1811,-1.1589,-1.1515,-1.1558,-1.126,-1.0968,-1.0743,-1.0481,-1.0067,-0.9359,-0.8818,-0.7893,-0.6738,-0.5619,-0.4419,-0.3329,-0.2665,-0.2,-0.1218,-0.0314,0.0589,0.1686,0.2898,0.4258,0.558,0.6591,0.7599,0.8585,0.9496,1.0067,1.0481,1.0775,1.0956,1.1149,1.1298,1.1335,1.1372,1.144,1.1372,1.1298,1.1255,1.1126,1.0941,1.0699,1.0509,1.0353,1.0339,1.0202,0.9965,0.9874,0.9958,1.0021,1.0079,0.9938,-1.2266,-1.2037,-1.1854,-1.1811,-1.2037,-1.2491,-1.2796,-1.3143,-1.3695,-1.387,-1.3603,-1.3349,-1.296,-1.2497,-1.2037,-1.2123,-1.2448,-1.2705,-1.3045,-1.3349,-1.3313,-1.3137,-1.3003,-1.2662,-1.2369,-1.2203,-1.2412,-1.2534,-1.2406,-1.2357,-1.1892,-1.1596,-1.0987,-1.0511,-1.0081,-0.9563,-0.9078,-0.8815,-0.8692,-0.8604,-0.8512,-0.8842,-0.8966,-0.8645,-0.8309,-0.7849,-0.7364,-0.727,-0.7399,-0.7539,-0.771,-0.8165,-0.878,-0.9279,-0.9695,-1.0143,-1.0438,-1.0738,-1.1037,-1.1149,-1.1186,-1.1223,-1.1149,-1.1031,-1.0993,-1.0881,-1.0663,-1.0556,-1.0406,-1.0105,-0.9354,-0.8675,-0.7804,-0.6654,-0.5375,-0.4222,-0.3095,-0.2275,-0.1608,-0.0785,-0.0118,0.0589,0.1727,0.2827,0.4045,0.5398,0.6549,0.7668,0.8732,0.9679,1.0481,1.0818,1.1074,1.1223,1.1372,1.1521,1.1632,1.1669,1.17,1.1706,1.1632,1.1632,1.1539,1.1446,1.1335,1.1144,1.101,1.0817,1.0609,1.0377,1.0277,1.0187,1.0212,1.0263,1.0253,-1.1734,-1.1472,-1.1386,-1.1467,-1.172,-1.232,-1.2747,-1.3137,-1.3525,-1.3659,-1.3483,-1.3222,-1.2753,-1.2246,-1.1995,-1.1995,-1.2203,-1.2277,-1.2705,-1.3052,-1.2924,-1.2881,-1.2747,-1.2326,-1.2037,-1.1866,-1.1989,-1.1903,-1.1688,-1.1548,-1.1375,-1.0949,-1.0472,-1.012,-0.9777,-0.9388,-0.8819,-0.8556,-0.852,-0.8476,-0.8292,-0.8819,-0.8875,-0.8692,-0.8388,-0.801,-0.7579,-0.7279,-0.7315,-0.7422,-0.7567,-0.791,-0.8365,-0.8822,-0.9311,-0.9916,-1.0218,-1.0475,-1.0738,-1.0775,-1.0818,-1.0775,-1.07,-1.0663,-1.0588,-1.0475,-1.0325,-1.0255,-1.018,-0.9911,-0.9193,-0.8458,-0.745,-0.628,-0.4997,-0.3722,-0.2695,-0.1843,-0.1061,-0.0276,0.0239,0.0958,0.1927,0.2992,0.3986,0.5149,0.6475,0.7659,0.8851,0.983,1.0758,1.1037,1.1267,1.1521,1.1683,1.1851,1.2006,1.2024,1.2079,1.2079,1.204,1.2077,1.2114,1.2107,1.1944,1.1715,1.1308,1.0991,1.088,1.0724,1.0419,1.0232,1.0391,1.0426,1.041,-1.1071,-1.0944,-1.0954,-1.1122,-1.1456,-1.2149,-1.2711,-1.3094,-1.3307,-1.3355,-1.3222,-1.2966,-1.2503,-1.2086,-1.1957,-1.1995,-1.2032,-1.2063,-1.2412,-1.2711,-1.2497,-1.2497,-1.2546,-1.2166,-1.1699,-1.1823,-1.1478,-1.1138,-1.1138,-1.0997,-1.0689,-1.0511,-1.0207,-0.9777,-0.9476,-0.9213,-0.8771,-0.8468,-0.8384,-0.838,-0.8468,-0.864,-0.8818,-0.8658,-0.8487,-0.8163,-0.7786,-0.7481,-0.7352,-0.7383,-0.7473,-0.7638,-0.8059,-0.8437,-0.897,-0.962,-0.9922,-1.018,-1.0331,-1.0293,-1.0331,-1.0368,-1.0143,-1.0143,-1.0218,-1.0067,-0.9879,-0.9884,-0.9846,-0.9614,-0.8945,-0.814,-0.7082,-0.5829,-0.4471,-0.3184,-0.2186,-0.1302,-0.0517,0.012,0.0569,0.1252,0.2102,0.2704,0.3631,0.5134,0.6433,0.7731,0.8894,0.9997,1.0802,1.111,1.1428,1.1739,1.1971,1.2216,1.2379,1.2461,1.2584,1.2719,1.2637,1.2556,1.2599,1.2636,1.2372,1.2101,1.1651,1.1288,1.1214,1.0987,1.0509,1.0335,1.0467,1.0504,1.0483,-1.0536,-1.0727,-1.0733,-1.1073,-1.1671,-1.2314,-1.279,-1.3052,-1.3264,-1.3179,-1.279,-1.2357,-1.2026,-1.1823,-1.1742,-1.1995,-1.2155,-1.2118,-1.2198,-1.2448,-1.2075,-1.1995,-1.208,-1.1607,-1.1564,-1.1607,-1.1262,-1.1051,-1.0878,-1.0829,-1.0781,-1.0516,-1.0125,-0.982,-0.9428,-0.8995,-0.8504,-0.8245,-0.8204,-0.8424,-0.8688,-0.8692,-0.8762,-0.882,-0.8703,-0.8467,-0.8113,-0.7794,-0.7626,-0.7437,-0.7321,-0.7539,-0.8025,-0.8289,-0.8637,-0.9056,-0.9435,-0.9771,-0.9884,-0.9884,-0.9884,-0.9922,-0.9657,-0.9582,-0.9657,-0.9733,-0.969,-0.9884,-0.9733,-0.9349,-0.8737,-0.7977,-0.6835,-0.5517,-0.411,-0.2758,-0.1651,-0.0678,0.012,0.0571,0.1035,0.1501,0.2146,0.2644,0.3304,0.4896,0.6429,0.773,0.9019,1.016,1.1027,1.1388,1.1746,1.2075,1.2348,1.2616,1.2752,1.2879,1.302,1.3196,1.3116,1.3046,1.3119,1.3046,1.2826,1.2673,1.2435,1.2109,1.1732,1.1307,1.0883,1.0685,1.0595,1.0575,1.0561,-1.0294,-1.0342,-1.0598,-1.0944,-1.137,-1.2026,-1.2454,-1.2662,-1.279,-1.2705,-1.2491,-1.216,-1.1952,-1.1871,-1.1871,-1.208,-1.2283,-1.2123,-1.216,-1.224,-1.1946,-1.1828,-1.1871,-1.1564,-1.1386,-1.1295,-1.0992,-1.0603,-1.0516,-1.0434,-1.0386,-1.0255,-0.982,-0.948,-0.9253,-0.8815,-0.8332,-0.7984,-0.7944,-0.8292,-0.8604,-0.8736,-0.8834,-0.8962,-0.8956,-0.8797,-0.8542,-0.8267,-0.8008,-0.7789,-0.7692,-0.7799,-0.8069,-0.8303,-0.8537,-0.8771,-0.8846,-0.9137,-0.9473,-0.9468,-0.9582,-0.962,-0.9473,-0.9359,-0.9435,-0.9435,-0.943,-0.9544,-0.9473,-0.9089,-0.8405,-0.7568,-0.637,-0.5073,-0.361,-0.2243,-0.1032,-0.008,0.0692,0.1119,0.1469,0.1932,0.2344,0.284,0.3597,0.5059,0.6518,0.7833,0.9187,1.0434,1.1171,1.1719,1.2068,1.2454,1.2726,1.2999,1.3192,1.3303,1.3358,1.3492,1.3521,1.3492,1.3564,1.3528,1.3382,1.3258,1.3208,1.2676,1.2058,1.166,1.1309,1.1075,1.085,1.074,1.0744,-1.0168,-1.012,-1.0511,-1.0814,-1.1073,-1.1725,-1.2118,-1.2283,-1.232,-1.2277,-1.216,-1.1995,-1.1957,-1.2037,-1.208,-1.2289,-1.254,-1.2166,-1.2203,-1.216,-1.1952,-1.1742,-1.1699,-1.1478,-1.1208,-1.1198,-1.0679,-1.0294,-0.9994,-0.982,-0.9738,-0.9825,-0.9519,-0.917,-0.8859,-0.8552,-0.8157,-0.7635,-0.7856,-0.8208,-0.8472,-0.8696,-0.8823,-0.8907,-0.9003,-0.9043,-0.8865,-0.8535,-0.8226,-0.8135,-0.797,-0.797,-0.8084,-0.8138,-0.8342,-0.8515,-0.8573,-0.8713,-0.9018,-0.9208,-0.9359,-0.9468,-0.9468,-0.9354,-0.9198,-0.9203,-0.9208,-0.9241,-0.917,-0.8789,-0.8109,-0.7207,-0.5975,-0.4524,-0.2976,-0.1616,-0.0362,0.053,0.1244,0.1647,0.1997,0.2223,0.2651,0.3096,0.4023,0.5322,0.6637,0.8017,0.9376,1.0777,1.1441,1.2036,1.2447,1.2864,1.3273,1.3491,1.3662,1.3754,1.3801,1.3804,1.3851,1.3914,1.3956,1.3928,1.3891,1.3811,1.376,1.3014,1.2338,1.2026,1.1695,1.1321,1.1089,1.0976,1.0909,-1.012,-1.0294,-1.0603,-1.0814,-1.1025,-1.1714,-1.1983,-1.1946,-1.1977,-1.1892,-1.178,-1.1742,-1.1871,-1.2037,-1.2289,-1.2583,-1.2966,-1.2295,-1.2246,-1.2069,-1.1774,-1.1607,-1.157,-1.1348,-1.0997,-1.0901,-1.0381,-0.9951,-0.9563,-0.9165,-0.9213,-0.9257,-0.9126,-0.8947,-0.864,-0.8288,-0.7981,-0.7635,-0.7852,-0.8113,-0.8292,-0.8472,-0.8692,-0.8828,-0.8784,-0.874,-0.8859,-0.8567,-0.832,-0.8219,-0.8037,-0.7957,-0.806,-0.7981,-0.8121,-0.8358,-0.8376,-0.8484,-0.8746,-0.898,-0.9208,-0.9435,-0.9544,-0.9387,-0.9117,-0.8851,-0.8851,-0.8932,-0.8822,-0.8518,-0.7825,-0.6969,-0.5633,-0.4196,-0.265,-0.1266,0.0,0.1162,0.1814,0.2194,0.2498,0.2773,0.3154,0.3599,0.4232,0.5484,0.7243,0.8611,0.993,1.1214,1.1801,1.235,1.2844,1.3287,1.3838,1.4012,1.4083,1.4248,1.4394,1.4313,1.4196,1.4265,1.4253,1.4353,1.4317,1.4317,1.4238,1.3641,1.3069,1.2497,1.2013,1.1621,1.1349,1.1199,1.1129,-1.0168,-1.012,-1.0381,-1.0598,-1.0852,-1.137,-1.1413,-1.1251,-1.1332,-1.1413,-1.1467,-1.1736,-1.1995,-1.224,-1.2448,-1.2662,-1.2796,-1.2625,-1.2369,-1.2198,-1.1983,-1.178,-1.1564,-1.1214,-1.0987,-1.0554,-0.999,-0.9423,-0.8942,-0.864,-0.8468,-0.8468,-0.86,-0.8552,-0.8245,-0.7893,-0.7584,-0.7591,-0.768,-0.7852,-0.8201,-0.8292,-0.8512,-0.8867,-0.8872,-0.8823,-0.8838,-0.8639,-0.844,-0.8265,-0.8032,-0.8012,-0.7983,-0.7878,-0.7986,-0.8259,-0.8154,-0.8255,-0.8589,-0.8784,-0.9013,-0.9322,-0.9506,-0.9425,-0.8998,-0.8699,-0.8513,-0.8441,-0.8365,-0.8097,-0.7322,-0.6395,-0.5267,-0.3832,-0.2364,-0.0918,0.0367,0.1591,0.2403,0.2798,0.3111,0.3359,0.378,0.4187,0.4824,0.5659,0.7501,0.9173,1.0449,1.1639,1.2232,1.2743,1.3253,1.3743,1.4255,1.4427,1.4508,1.4703,1.492,1.4752,1.4562,1.4359,1.4397,1.4577,1.4748,1.4713,1.4561,1.431,1.3831,1.3155,1.247,1.185,1.1617,1.1423,1.1404,-1.0164,-1.0125,-1.025,-1.0381,-1.0641,-1.0901,-1.0857,-1.0641,-1.0727,-1.1025,-1.1327,-1.1682,-1.2026,-1.2363,-1.2534,-1.2747,-1.2747,-1.2662,-1.2412,-1.224,-1.2075,-1.1817,-1.1429,-1.1079,-1.0727,-1.0207,-0.9646,-0.9078,-0.8548,-0.8245,-0.8116,-0.8028,-0.794,-0.7984,-0.7852,-0.7408,-0.7143,-0.7238,-0.7326,-0.7459,-0.7804,-0.8025,-0.8245,-0.8644,-0.8696,-0.8692,-0.8642,-0.8484,-0.8426,-0.826,-0.8084,-0.7983,-0.791,-0.7869,-0.794,-0.7986,-0.8,-0.7949,-0.8322,-0.8856,-0.9051,-0.9392,-0.9544,-0.9349,-0.8965,-0.8508,-0.8169,-0.7944,-0.7872,-0.7522,-0.6707,-0.5893,-0.4724,-0.3288,-0.1587,-0.0121,0.0991,0.2161,0.2824,0.3418,0.3754,0.4152,0.4649,0.5107,0.584,0.6598,0.7924,0.9419,1.0533,1.1704,1.2685,1.3179,1.3678,1.4206,1.4685,1.4767,1.4812,1.501,1.5138,1.505,1.4875,1.4668,1.4593,1.4756,1.4927,1.5034,1.4955,1.4776,1.4347,1.3795,1.2977,1.2108,1.1909,1.1777,1.1746,-1.012,-1.0294,-1.0294,-1.0294,-1.0294,-1.0294,-1.0337,-1.025,-1.0337,-1.0679,-1.1198,-1.137,-1.1757,-1.2235,-1.2363,-1.2583,-1.2753,-1.2534,-1.2326,-1.2203,-1.2075,-1.165,-1.13,-1.0949,-1.0598,-0.9946,-0.9384,-0.8775,-0.8245,-0.7984,-0.79,-0.7768,-0.7632,-0.7547,-0.7459,-0.7061,-0.6836,-0.6836,-0.6884,-0.7058,-0.7319,-0.7676,-0.7984,-0.8292,-0.8516,-0.8516,-0.8297,-0.8338,-0.8271,-0.8155,-0.7946,-0.7906,-0.7971,-0.7687,-0.77,-0.7829,-0.762,-0.7638,-0.7821,-0.8894,-0.9316,-0.943,-0.9506,-0.9354,-0.878,-0.8246,-0.7748,-0.7561,-0.733,-0.6907,-0.6205,-0.5428,-0.4142,-0.2685,-0.1042,0.0408,0.1549,0.2751,0.3481,0.4014,0.4529,0.5021,0.5551,0.6136,0.6879,0.7697,0.8669,0.9691,1.0773,1.1882,1.3029,1.3587,1.4067,1.4413,1.4824,1.4999,1.5153,1.5348,1.5395,1.5311,1.5156,1.4963,1.4941,1.5039,1.5185,1.5363,1.5355,1.5311,1.4775,1.4214,1.318,1.2416,1.2226,1.2125,1.2092,-1.0038,-1.0125,-1.0125,-0.9994,-0.9859,-1.0033,-0.9946,-0.9733,-0.9994,-1.0376,-1.0895,-1.1284,-1.1634,-1.1977,-1.2235,-1.2369,-1.2332,-1.2497,-1.2326,-1.1946,-1.1989,-1.1774,-1.1386,-1.0949,-1.0554,-0.9951,-0.9257,-0.856,-0.7984,-0.7764,-0.7544,-0.7367,-0.7367,-0.7275,-0.7231,-0.7054,-0.701,-0.701,-0.7058,-0.7146,-0.737,-0.7544,-0.7764,-0.816,-0.8248,-0.8204,-0.7965,-0.8115,-0.8107,-0.7918,-0.7732,-0.7805,-0.7866,-0.7663,-0.7573,-0.7646,-0.7492,-0.7257,-0.7403,-0.7974,-0.8737,-0.9079,-0.9316,-0.9241,-0.9041,-0.8241,-0.7706,-0.7092,-0.671,-0.6167,-0.5467,-0.4807,-0.3653,-0.2245,-0.0693,0.0706,0.1911,0.3272,0.4196,0.4603,0.5053,0.5909,0.6548,0.6939,0.7631,0.8319,0.9208,1.0141,1.1207,1.2323,1.3458,1.3955,1.4441,1.4713,1.4985,1.517,1.5367,1.5584,1.5637,1.5559,1.5431,1.5316,1.5339,1.5427,1.5591,1.5726,1.5709,1.5586,1.519,1.455,1.3739,1.2991,1.2714,1.2563,1.2451,-0.9994,-0.9994,-0.9907,-0.9733,-0.9563,-0.9694,-0.9559,-0.9388,-0.9733,-1.012,-1.0593,-1.1068,-1.1413,-1.1677,-1.1892,-1.2112,-1.2,-1.216,-1.2118,-1.1736,-1.1952,-1.1736,-1.1343,-1.0906,-1.0429,-0.9864,-0.9126,-0.8384,-0.7896,-0.7547,-0.7323,-0.7187,-0.7187,-0.7187,-0.7143,-0.7051,-0.6966,-0.6922,-0.6877,-0.6922,-0.7146,-0.737,-0.7547,-0.7852,-0.7984,-0.7984,-0.7836,-0.7833,-0.7851,-0.7623,-0.7511,-0.7569,-0.7573,-0.7569,-0.7466,-0.7454,-0.7026,-0.6753,-0.671,-0.7011,-0.777,-0.8494,-0.8818,-0.897,-0.8851,-0.8127,-0.7357,-0.6742,-0.6086,-0.5389,-0.4693,-0.4034,-0.3011,-0.1617,-0.0248,0.1134,0.223,0.3525,0.4446,0.4856,0.5559,0.6486,0.7379,0.7876,0.832,0.9023,0.9731,1.0606,1.1524,1.2566,1.3603,1.4181,1.4643,1.492,1.5153,1.5305,1.5546,1.5784,1.5803,1.576,1.5813,1.5675,1.5746,1.5781,1.5882,1.5955,1.6,1.5868,1.5525,1.5165,1.4641,1.3931,1.3314,1.2975,1.2757,-0.9994,-0.9994,-0.9733,-0.9519,-0.9349,-0.9305,-0.9305,-0.9305,-0.9519,-0.9951,-1.0593,-1.0424,-1.0766,-1.1413,-1.137,-1.1505,-1.1817,-1.1903,-1.178,-1.1693,-1.1693,-1.1435,-1.1084,-1.0603,-1.0168,-0.9602,-0.8903,-0.8116,-0.7808,-0.7275,-0.701,-0.7098,-0.719,-0.719,-0.7102,-0.7058,-0.6972,-0.6922,-0.6833,-0.6833,-0.7013,-0.7098,-0.7279,-0.7544,-0.7724,-0.7658,-0.7523,-0.7456,-0.7302,-0.71,-0.6958,-0.703,-0.7049,-0.7153,-0.7177,-0.6949,-0.6367,-0.6093,-0.5977,-0.6356,-0.6696,-0.7383,-0.7931,-0.8208,-0.8298,-0.7927,-0.7211,-0.6293,-0.5509,-0.4657,-0.388,-0.3118,-0.2307,-0.0975,0.0374,0.1527,0.2509,0.3466,0.4324,0.5034,0.5804,0.6689,0.7672,0.8265,0.8768,0.9334,0.9951,1.0557,1.1449,1.2512,1.3506,1.4272,1.4719,1.5097,1.5305,1.5523,1.57,1.5942,1.5905,1.5904,1.5956,1.6084,1.609,1.6118,1.6129,1.6193,1.6325,1.6202,1.5912,1.5544,1.5078,1.4421,1.3621,1.3214,1.2994,-1.0077,-1.0164,-0.9777,-0.9476,-0.9305,-0.9087,-0.913,-0.9301,-0.9393,-0.9694,-1.0168,-1.025,-1.0424,-1.0516,-1.0722,-1.0895,-1.1111,-1.1289,-1.1295,-1.13,-1.1295,-1.0987,-1.0641,-1.0212,-0.9777,-0.9122,-0.842,-0.7716,-0.7319,-0.683,-0.67,-0.6881,-0.7017,-0.7105,-0.7238,-0.733,-0.719,-0.7054,-0.6922,-0.6922,-0.6966,-0.7051,-0.7187,-0.7275,-0.7415,-0.7328,-0.7099,-0.7242,-0.7048,-0.6668,-0.6821,-0.6876,-0.6683,-0.6844,-0.6945,-0.6718,-0.6131,-0.5625,-0.5512,-0.5589,-0.5854,-0.6318,-0.683,-0.7633,-0.7893,-0.7704,-0.7028,-0.6122,-0.511,-0.4224,-0.3412,-0.2597,-0.1702,-0.0539,0.0677,0.1593,0.258,0.3543,0.4399,0.5292,0.6017,0.6927,0.791,0.8655,0.9174,0.9687,1.0207,1.0711,1.1422,1.248,1.333,1.4097,1.4824,1.525,1.555,1.5792,1.5934,1.6024,1.6034,1.6103,1.6291,1.6418,1.6424,1.6426,1.6377,1.6492,1.67,1.6517,1.6237,1.5806,1.535,1.4653,1.4004,1.3576,1.3194,-1.0125,-1.0111,-0.9775,-0.9359,-0.9026,-0.8838,-0.8959,-0.9262,-0.9388,-0.965,-0.9994,-1.0033,-1.0033,-1.0081,-1.0294,-1.0424,-1.0549,-1.0901,-1.0949,-1.0771,-1.0852,-1.0593,-1.0207,-0.982,-0.9432,-0.8775,-0.8116,-0.7452,-0.6922,-0.6432,-0.6254,-0.6526,-0.6662,-0.7017,-0.7279,-0.7459,-0.7503,-0.7367,-0.7234,-0.7187,-0.7095,-0.7051,-0.701,-0.7051,-0.7146,-0.6883,-0.6751,-0.7028,-0.6685,-0.6399,-0.6588,-0.6602,-0.6455,-0.6641,-0.6826,-0.656,-0.5938,-0.5512,-0.5356,-0.5243,-0.5318,-0.5562,-0.6058,-0.6769,-0.7254,-0.7266,-0.6751,-0.607,-0.4909,-0.3876,-0.3055,-0.2192,-0.1205,-0.0213,0.0733,0.1619,0.2628,0.3674,0.4566,0.547,0.633,0.7204,0.8065,0.8819,0.9432,0.9724,1.0241,1.0875,1.1536,1.2462,1.3209,1.3893,1.4747,1.5418,1.5703,1.5924,1.5984,1.6091,1.6231,1.6345,1.6569,1.6792,1.6876,1.6785,1.6626,1.6747,1.6848,1.6735,1.6482,1.6088,1.5772,1.5307,1.4628,1.3913,1.3558,-1.0193,-0.9986,-0.9667,-0.9128,-0.8611,-0.8597,-0.8807,-0.9253,-0.9405,-0.9662,-0.9826,-0.9618,-0.9595,-0.9668,-0.9792,-0.999,-1.0164,-1.0424,-1.0467,-1.025,-1.0207,-1.0033,-0.9685,-0.9432,-0.8907,-0.8508,-0.7893,-0.7054,-0.6567,-0.6033,-0.5766,-0.608,-0.639,-0.67,-0.6966,-0.7367,-0.7415,-0.7282,-0.7238,-0.719,-0.701,-0.6922,-0.6881,-0.6918,-0.6766,-0.654,-0.6655,-0.656,-0.6302,-0.6237,-0.6241,-0.6268,-0.6268,-0.6345,-0.6525,-0.6363,-0.5709,-0.5356,-0.5085,-0.4929,-0.4968,-0.5277,-0.5777,-0.6179,-0.6489,-0.6833,-0.6446,-0.5904,-0.4883,-0.3849,-0.298,-0.2076,-0.1061,-0.0215,0.0654,0.1588,0.2526,0.3705,0.4959,0.5821,0.6555,0.7427,0.8201,0.8951,0.9388,0.9689,1.0207,1.0901,1.1505,1.232,1.3045,1.3688,1.4601,1.5377,1.5706,1.5871,1.5941,1.61,1.6408,1.6636,1.6915,1.715,1.735,1.7135,1.6902,1.6845,1.6841,1.6788,1.67,1.6473,1.6166,1.5948,1.5343,1.458,1.3909,-1.0115,-1.0124,-0.9285,-0.8702,-0.8411,-0.838,-0.8611,-0.8978,-0.888,-0.9123,-0.9341,-0.908,-0.8901,-0.9042,-0.9205,-0.9428,-0.9715,-0.9854,-0.9951,-0.982,-0.9689,-0.934,-0.8986,-0.8679,-0.8288,-0.7764,-0.719,-0.6523,-0.5902,-0.5458,-0.5324,-0.5549,-0.5902,-0.6166,-0.6564,-0.6966,-0.7017,-0.6972,-0.6969,-0.6925,-0.6789,-0.6789,-0.6745,-0.6697,-0.6552,-0.6523,-0.6603,-0.6614,-0.6218,-0.5923,-0.5941,-0.5909,-0.5796,-0.5831,-0.5983,-0.5938,-0.5398,-0.5085,-0.4851,-0.4618,-0.4462,-0.4657,-0.5037,-0.5419,-0.5827,-0.6176,-0.6139,-0.5587,-0.4862,-0.3854,-0.2916,-0.1954,-0.1037,-0.0262,0.0617,0.151,0.2462,0.3905,0.5323,0.6174,0.6862,0.7592,0.8412,0.8903,0.9297,0.9777,1.0337,1.0857,1.1246,1.1929,1.2833,1.3561,1.4531,1.5211,1.5583,1.595,1.6092,1.6462,1.6832,1.7046,1.7243,1.7535,1.7752,1.7419,1.7189,1.715,1.7066,1.691,1.6822,1.6735,1.6603,1.6365,1.6103,1.5488,1.4596,-1.0003,-0.9919,-0.8972,-0.8542,-0.8442,-0.8458,-0.8695,-0.8974,-0.8666,-0.8715,-0.8992,-0.8746,-0.8539,-0.8581,-0.8784,-0.8891,-0.9178,-0.927,-0.9244,-0.9209,-0.9034,-0.8644,-0.8288,-0.8021,-0.7713,-0.7234,-0.6567,-0.5902,-0.528,-0.5013,-0.4971,-0.5104,-0.5322,-0.563,-0.6074,-0.6302,-0.6482,-0.6485,-0.6523,-0.6479,-0.639,-0.639,-0.6567,-0.6567,-0.653,-0.6495,-0.6587,-0.6601,-0.6244,-0.5896,-0.5796,-0.5828,-0.5754,-0.5715,-0.575,-0.567,-0.5318,-0.4771,-0.4616,-0.4307,-0.3997,-0.4229,-0.4421,-0.4854,-0.5054,-0.5384,-0.5476,-0.4941,-0.4269,-0.3331,-0.2723,-0.1868,-0.1186,-0.0444,0.0622,0.1653,0.3087,0.4681,0.5987,0.7004,0.7643,0.8221,0.8903,0.9384,0.9689,0.9907,1.0429,1.0901,1.1246,1.1714,1.2577,1.3434,1.4363,1.5117,1.5602,1.6017,1.6356,1.6766,1.7195,1.7521,1.7774,1.7999,1.8112,1.7832,1.7597,1.7496,1.7403,1.7154,1.7137,1.7144,1.6987,1.6811,1.6557,1.6319,1.5578,-0.9808,-0.9415,-0.8684,-0.84,-0.8526,-0.8539,-0.8777,-0.9052,-0.8594,-0.8408,-0.8558,-0.8484,-0.838,-0.8447,-0.8559,-0.8571,-0.8621,-0.8686,-0.8632,-0.8548,-0.8241,-0.7981,-0.776,-0.7448,-0.7139,-0.6741,-0.6121,-0.5589,-0.5055,-0.479,-0.4659,-0.4705,-0.4924,-0.5186,-0.5544,-0.5769,-0.5861,-0.5905,-0.5947,-0.5944,-0.5899,-0.5947,-0.6302,-0.6438,-0.6416,-0.6344,-0.6567,-0.6592,-0.6363,-0.6014,-0.5691,-0.5595,-0.5637,-0.5598,-0.5673,-0.5592,-0.5201,-0.4774,-0.4501,-0.4192,-0.3958,-0.3919,-0.4031,-0.4148,-0.4387,-0.4293,-0.4374,-0.4074,-0.3383,-0.296,-0.2377,-0.1847,-0.1199,-0.0447,0.0716,0.1925,0.3621,0.5275,0.647,0.7617,0.8237,0.8767,0.9336,0.9777,0.9994,1.0212,1.0516,1.0944,1.1375,1.1935,1.2668,1.3349,1.411,1.481,1.5511,1.6009,1.6349,1.6941,1.7366,1.784,1.8263,1.8464,1.8502,1.8263,1.8045,1.7926,1.7621,1.7343,1.7397,1.7477,1.7238,1.7038,1.7217,1.6968,1.6556,-0.9419,-0.8515,-0.8246,-0.8115,-0.8098,-0.825,-0.8523,-0.8646,-0.8255,-0.8032,-0.8062,-0.7897,-0.7808,-0.7826,-0.7804,-0.7947,-0.8226,-0.8217,-0.8241,-0.8201,-0.7669,-0.7404,-0.7139,-0.6874,-0.652,-0.6169,-0.5769,-0.5369,-0.501,-0.461,-0.4389,-0.4433,-0.4659,-0.479,-0.4837,-0.5015,-0.5146,-0.5235,-0.5235,-0.5235,-0.5636,-0.5813,-0.6169,-0.6257,-0.6251,-0.6468,-0.6645,-0.6695,-0.6431,-0.6109,-0.5656,-0.5416,-0.5401,-0.5482,-0.5556,-0.5437,-0.5087,-0.4774,-0.4465,-0.3997,-0.3763,-0.3684,-0.3682,-0.3485,-0.3376,-0.2799,-0.2821,-0.2717,-0.2294,-0.2282,-0.1859,-0.1538,-0.0978,-0.0089,0.0935,0.2273,0.3788,0.5309,0.6694,0.7665,0.846,0.9117,0.9816,1.0164,1.0294,1.0554,1.0949,1.1332,1.1462,1.2069,1.2711,1.3307,1.3948,1.4608,1.5352,1.5906,1.6351,1.6936,1.7525,1.8037,1.8483,1.8897,1.8868,1.8758,1.8481,1.8275,1.7957,1.7727,1.7561,1.7596,1.7361,1.727,1.7545,1.7575,1.7126]}]]